GFSSW_500_temp_000.txt.gz
Temp
-9 -9 -8 -8 -8 -8 -8 -8 -8 -8 -8 -8 -8 -8 -8 -8 -9 -9 -9 -9 -9 -9 -9 -9 -9 -9 -9 -9 -9 -9 -9 -9 -9 -9 -9 -10 -10 -10 -10 -10 -10 -10 -9 -10 -10
-9 -9 -9 -9 -9 -9 -8 -8 -8 -8 -8 -8 -8 -8 -8 -9 -9 -9 -9 -9 -9 -9 -9 -9 -9 -9 -9 -9 -9 -9 -10 -10 -10 -10 -10 -10 -10 -9 -10 -10 -10 -10 -9 -9 -10
-9 -9 -9 -9 -9 -9 -9 -9 -9 -9 -9 -9 -9 -9 -9 -9 -9 -9 -9 -9 -9 -9 -9 -9 -9 -9 -9 -9 -9 -10 -10 -10 -10 -10 -10 -10 -10 -10 -10 -10 -9 -10 -9 -10 -9
-9 -9 -9 -9 -9 -9 -9 -9 -9 -9 -9 -9 -9 -9 -9 -9 -9 -9 -9 -9 -9 -9 -9 -10 -10 -10 -10 -10 -10 -9 -10 -10 -10 -10 -10 -10 -10 -10 -10 -10 -9 -9 -9 -10 -10
-9 -9 -9 -9 -9 -9 -9 -9 -9 -9 -9 -9 -9 -9 -9 -9 -9 -9 -9 -9 -9 -10 -10 -10 -10 -10 -10 -10 -10 -9 -10 -9 -9 -10 -10 -10 -10 -10 -10 -10 -10 -10 -10 -9 -10
-9 -9 -9 -9 -9 -9 -9 -9 -9 -9 -9 -9 -9 -9 -9 -9 -10 -10 -10 -10 -10 -10 -10 -10 -10 -10 -10 -10 -10 -10 -10 -10 -10 -10 -10 -10 -10 -10 -10 -10 -10 -10 -10 -10 -10
-10 -9 -9 -9 -9 -9 -9 -9 -9 -10 -10 -10 -10 -10 -10 -10 -10 -10 -10 -11 -10 -10 -10 -10 -10 -10 -10 -10 -10 -10 -10 -10 -10 -10 -10 -10 -10 -10 -10 -10 -10 -10 -10 -10 -10
-10 -10 -10 -10 -10 -10 -10 -10 -10 -10 -10 -10 -10 -10 -10 -10 -10 -11 -11 -11 -11 -11 -11 -11 -11 -11 -11 -11 -11 -11 -11 -11 -10 -10 -10 -10 -9 -10 -10 -10 -10 -10 -10 -10 -10
-10 -10 -10 -10 -10 -10 -10 -10 -10 -10 -10 -10 -10 -10 -10 -10 -10 -11 -11 -11 -11 -11 -11 -11 -11 -11 -11 -11 -11 -11 -11 -11 -10 -10 -11 -10 -9 -10 -10 -10 -10 -10 -10 -10 -10
-11 -11 -11 -11 -11 -11 -11 -11 -11 -11 -10 -10 -10 -10 -10 -10 -11 -11 -11 -11 -11 -11 -11 -11 -11 -11 -10 -11 -11 -11 -12 -11 -11 -11 -12 -10 -9 -10 -10 -10 -10 -10 -10 -10 -10
-11 -11 -11 -11 -11 -11 -11 -11 -11 -11 -11 -11 -10 -11 -10 -11 -11 -11 -11 -11 -11 -11 -11 -11 -11 -10 -11 -12 -11 -11 -11 -11 -11 -11 -12 -11 -10 -10 -9 -10 -10 -10 -10 -10 -10
-11 -11 -11 -11 -11 -11 -11 -12 -12 -11 -10 -11 -11 -10 -11 -11 -11 -11 -11 -11 -11 -11 -11 -11 -10 -11 -12 -11 -11 -11 -11 -11 -10 -11 -11 -11 -10 -9 -9 -9 -10 -10 -10 -10 -10
-11 -11 -12 -12 -12 -12 -12 -12 -12 -11 -10 -10 -11 -11 -11 -11 -11 -11 -11 -11 -11 -11 -11 -11 -11 -11 -11 -11 -11 -11 -11 -11 -11 -11 -11 -10 -9 -9 -9 -9 -10 -10 -10 -10 -10
-12 -12 -12 -12 -12 -12 -12 -12 -12 -12 -10 -9 -10 -10 -11 -11 -11 -11 -11 -12 -11 -11 -11 -11 -11 -11 -12 -11 -12 -11 -11 -11 -11 -11 -11 -10 -8 -8 -9 -9 -9 -10 -10 -10 -10
-13 -12 -12 -12 -12 -12 -12 -13 -13 -13 -10 -10 -10 -10 -10 -11 -11 -11 -12 -12 -12 -12 -11 -11 -11 -11 -12 -12 -12 -12 -12 -12 -12 -11 -11 -10 -10 -8 -9 -9 -9 -9 -10 -11 -11
-13 -12 -13 -13 -12 -13 -13 -13 -14 -13 -10 -11 -11 -11 -11 -11 -11 -11 -11 -12 -12 -12 -12 -11 -12 -12 -12 -12 -12 -12 -12 -12 -12 -12 -10 -10 -10 -7 -9 -9 -9 -10 -10 -10 -11
-12 -12 -12 -13 -13 -13 -13 -14 -13 -11 -11 -10 -11 -11 -12 -11 -12 -13 -13 -12 -13 -13 -12 -13 -13 -13 -12 -12 -13 -13 -13 -13 -12 -12 -9 -10 -10 -9 -9 -10 -10 -10 -10 -11 -11
-12 -13 -12 -12 -13 -14 -14 -14 -13 -10 -11 -12 -13 -12 -11 -12 -12 -13 -13 -13 -13 -13 -13 -13 -12 -13 -13 -13 -13 -13 -14 -14 -14 -12 -11 -11 -9 -8 -10 -10 -10 -11 -11 -11 -10
-13 -13 -13 -13 -14 -14 -14 -13 -12 -12 -12 -14 -13 -12 -11 -11 -13 -13 -13 -13 -14 -14 -14 -15 -13 -14 -14 -14 -14 -12 -12 -14 -15 -13 -13 -9 -9 -9 -10 -10 -10 -11 -11 -11 -12
-14 -14 -13 -14 -14 -15 -14 -13 -13 -13 -13 -14 -14 -13 -13 -13 -13 -14 -13 -12 -14 -15 -15 -14 -15 -14 -15 -14 -13 -15 -14 -13 -14 -14 -14 -10 -11 -9 -11 -11 -11 -11 -12 -12 -13
-15 -15 -13 -14 -16 -16 -16 -14 -14 -14 -15 -15 -14 -14 -14 -13 -15 -15 -13 -13 -15 -15 -15 -15 -15 -13 -15 -14 -14 -14 -14 -15 -15 -15 -14 -13 -10 -10 -11 -11 -11 -12 -13 -13 -14
-16 -17 -15 -16 -17 -17 -16 -15 -14 -13 -15 -15 -15 -15 -15 -14 -15 -15 -15 -14 -16 -15 -15 -15 -16 -15 -14 -15 -15 -15 -15 -15 -14 -13 -14 -14 -11 -11 -11 -12 -13 -13 -13 -13 -14
-16 -16 -17 -17 -17 -16 -15 -16 -16 -15 -15 -15 -16 -16 -16 -15 -15 -16 -16 -15 -15 -15 -16 -15 -15 -15 -15 -14 -14 -15 -14 -15 -15 -15 -15 -15 -13 -12 -12 -13 -13 -13 -14 -15 -15
-17 -17 -17 -17 -17 -17 -17 -17 -16 -15 -16 -16 -16 -17 -18 -16 -16 -16 -16 -16 -16 -16 -16 -17 -17 -18 -17 -16 -17 -16 -16 -15 -16 -19 -15 -15 -15 -13 -13 -13 -13 -13 -15 -15 -15
-18 -18 -18 -19 -18 -18 -18 -19 -17 -16 -15 -16 -17 -17 -18 -19 -18 -19 -17 -15 -16 -17 -18 -19 -18 -17 -18 -18 -18 -17 -17 -17 -17 -17 -17 -15 -15 -14 -13 -14 -15 -14 -14 -15 -15
-20 -20 -20 -20 -20 -20 -20 -19 -19 -19 -18 -17 -17 -18 -18 -18 -18 -18 -18 -18 -17 -16 -17 -18 -17 -18 -17 -17 -17 -17 -17 -17 -17 -16 -17 -17 -16 -14 -15 -15 -13 -13 -15 -17 -17
-21 -21 -21 -21 -22 -22 -21 -21 -21 -21 -20 -20 -19 -19 -19 -18 -19 -19 -19 -19 -19 -19 -18 -18 -18 -18 -18 -17 -18 -19 -16 -16 -17 -17 -16 -17 -16 -16 -16 -16 -16 -16 -17 -17 -17

GFSSW_500_temp_003.txt.gz
Temp
-8 -9 -9 -9 -9 -9 -8 -8 -9 -9 -9 -9 -9 -9 -9 -9 -9 -9 -9 -9 -9 -9 -9 -9 -9 -9 -9 -9 -9 -9 -9 -10 -10 -10 -10 -10 -10 -10 -9 -10 -9 -10 -9 -10 -10
-8 -8 -8 -8 -9 -9 -9 -9 -8 -8 -8 -8 -9 -9 -9 -9 -9 -9 -9 -9 -9 -9 -9 -9 -9 -9 -9 -10 -9 -10 -10 -10 -10 -10 -10 -10 -10 -10 -10 -10 -10 -10 -9 -10 -10
-9 -8 -8 -8 -8 -8 -8 -8 -9 -9 -9 -9 -8 -9 -9 -9 -9 -9 -9 -9 -9 -9 -9 -9 -9 -9 -10 -10 -10 -10 -10 -10 -10 -10 -10 -10 -10 -10 -10 -10 -10 -10 -10 -10 -10
-9 -9 -9 -9 -9 -9 -9 -9 -9 -9 -9 -9 -9 -9 -9 -9 -9 -9 -9 -9 -9 -9 -9 -9 -9 -9 -10 -9 -10 -9 -10 -9 -10 -10 -10 -10 -10 -10 -10 -11 -10 -10 -10 -10 -10
-9 -9 -9 -9 -9 -9 -9 -9 -9 -9 -9 -9 -9 -9 -9 -9 -10 -9 -9 -10 -10 -10 -10 -10 -10 -10 -10 -10 -10 -9 -10 -10 -9 -9 -10 -10 -10 -10 -10 -11 -10 -10 -10 -9 -10
-10 -10 -10 -10 -10 -10 -9 -9 -9 -9 -9 -9 -9 -9 -9 -9 -9 -10 -10 -10 -10 -10 -10 -10 -10 -10 -10 -10 -10 -10 -10 -10 -10 -10 -10 -10 -10 -10 -11 -10 -10 -10 -10 -10 -10
-10 -10 -10 -10 -10 -10 -10 -10 -9 -9 -9 -9 -9 -9 -9 -9 -9 -10 -10 -10 -10 -10 -10 -10 -11 -11 -11 -11 -10 -10 -10 -10 -10 -10 -10 -10 -10 -10 -11 -11 -10 -10 -10 -10 -10
-10 -10 -10 -10 -10 -10 -10 -10 -10 -10 -10 -9 -9 -9 -9 -10 -10 -10 -10 -10 -10 -10 -10 -11 -11 -11 -11 -11 -11 -11 -11 -10 -10 -10 -10 -11 -10 -10 -11 -11 -10 -10 -10 -11 -11
-10 -10 -10 -10 -10 -10 -10 -10 -10 -10 -10 -10 -10 -10 -10 -10 -10 -10 -10 -11 -11 -11 -11 -11 -11 -11 -11 -10 -11 -11 -11 -10 -10 -10 -11 -11 -10 -10 -10 -10 -11 -11 -10 -10 -10
-10 -10 -11 -11 -11 -11 -11 -11 -10 -10 -10 -10 -10 -10 -10 -10 -10 -11 -11 -11 -11 -11 -11 -10 -11 -11 -11 -10 -11 -12 -11 -10 -10 -10 -10 -10 -10 -10 -10 -10 -10 -10 -10 -11 -10
-11 -11 -11 -11 -11 -11 -11 -11 -11 -11 -10 -10 -10 -10 -10 -10 -10 -11 -11 -11 -11 -11 -11 -11 -10 -10 -11 -11 -11 -11 -11 -10 -10 -11 -11 -11 -10 -9 -10 -10 -10 -10 -10 -11 -10
-11 -11 -11 -11 -11 -11 -11 -11 -11 -11 -10 -10 -10 -10 -10 -11 -10 -11 -11 -11 -11 -11 -11 -11 -10 -11 -12 -11 -11 -11 -11 -10 -10 -11 -11 -10 -9 -9 -9 -9 -9 -10 -10 -11 -10
-12 -11 -11 -11 -11 -11 -11 -12 -11 -11 -10 -10 -10 -10 -11 -11 -10 -11 -11 -11 -11 -11 -11 -11 -11 -11 -11 -11 -12 -11 -11 -11 -11 -11 -10 -10 -8 -9 -9 -9 -9 -10 -10 -10 -10
-12 -12 -12 -12 -12 -12 -12 -12 -11 -11 -10 -10 -10 -10 -11 -11 -10 -11 -11 -11 -11 -11 -11 -11 -11 -11 -11 -11 -12 -10 -12 -11 -11 -11 -10 -10 -8 -8 -8 -9 -9 -10 -10 -10 -10
-13 -13 -13 -12 -13 -13 -13 -13 -13 -12 -11 -11 -10 -10 -10 -10 -11 -11 -12 -12 -12 -12 -12 -11 -12 -12 -12 -12 -13 -11 -11 -12 -11 -11 -10 -9 -10 -7 -8 -8 -9 -9 -10 -11 -11
-14 -13 -13 -13 -13 -13 -13 -13 -14 -13 -11 -12 -12 -12 -12 -11 -11 -11 -11 -11 -12 -12 -12 -11 -12 -12 -12 -13 -13 -12 -12 -11 -12 -11 -10 -10 -10 -6 -8 -9 -9 -10 -10 -10 -11
-14 -13 -13 -13 -13 -14 -13 -13 -13 -12 -12 -12 -12 -12 -12 -12 -12 -12 -13 -13 -12 -13 -13 -13 -11 -12 -13 -13 -14 -14 -13 -12 -12 -12 -10 -11 -11 -7 -9 -9 -10 -10 -10 -10 -11
-14 -14 -13 -13 -13 -13 -14 -15 -14 -11 -12 -12 -12 -12 -12 -13 -12 -13 -13 -13 -15 -16 -15 -14 -12 -13 -13 -14 -14 -14 -15 -14 -14 -12 -11 -11 -8 -8 -10 -10 -11 -10 -11 -11 -11
-15 -14 -13 -14 -13 -14 -14 -15 -12 -13 -13 -14 -14 -12 -11 -11 -13 -13 -13 -13 -15 -15 -16 -15 -14 -14 -14 -14 -14 -14 -15 -15 -16 -14 -14 -10 -9 -9 -10 -11 -10 -10 -11 -12 -12
-16 -16 -15 -14 -14 -14 -14 -13 -13 -13 -14 -15 -14 -13 -13 -13 -15 -15 -14 -14 -14 -15 -16 -15 -15 -13 -14 -15 -14 -14 -14 -15 -15 -15 -14 -11 -11 -10 -11 -11 -12 -12 -12 -13 -14
-17 -16 -15 -16 -16 -16 -15 -14 -13 -14 -16 -16 -15 -15 -14 -15 -15 -16 -16 -14 -15 -15 -15 -16 -16 -13 -15 -14 -15 -15 -15 -15 -15 -15 -15 -15 -12 -11 -12 -12 -13 -14 -13 -14 -15
-16 -16 -16 -16 -16 -16 -15 -15 -15 -14 -15 -15 -16 -16 -16 -16 -16 -16 -15 -16 -16 -16 -16 -16 -17 -16 -16 -16 -16 -16 -16 -16 -16 -15 -16 -16 -15 -12 -13 -13 -14 -14 -14 -14 -14
-17 -17 -16 -16 -17 -16 -16 -16 -16 -16 -15 -17 -17 -17 -18 -18 -18 -16 -16 -15 -16 -17 -17 -16 -17 -18 -18 -18 -17 -18 -18 -18 -18 -17 -17 -16 -15 -13 -14 -14 -14 -13 -14 -14 -14
-18 -18 -17 -17 -17 -17 -17 -17 -17 -16 -16 -16 -18 -19 -19 -19 -17 -17 -16 -15 -16 -18 -18 -19 -17 -17 -19 -18 -17 -18 -17 -18 -18 -18 -17 -18 -16 -16 -14 -13 -13 -15 -15 -15 -14
-19 -19 -19 -18 -18 -18 -19 -19 -18 -18 -18 -17 -18 -19 -19 -20 -19 -18 -18 -18 -17 -17 -18 -20 -19 -19 -18 -17 -17 -17 -17 -16 -19 -18 -18 -17 -17 -16 -16 -15 -15 -15 -15 -15 -16
-20 -20 -20 -20 -21 -21 -20 -19 -20 -19 -20 -19 -19 -19 -20 -20 -20 -20 -20 -20 -19 -17 -18 -19 -19 -20 -20 -19 -18 -18 -18 -18 -17 -15 -17 -18 -19 -15 -15 -16 -16 -16 -16 -17 -17
-22 -21 -21 -21 -21 -22 -21 -22 -22 -21 -21 -22 -21 -21 -21 -20 -21 -22 -22 -21 -19 -20 -20 -20 -21 -20 -21 -20 -20 -21 -18 -17 -17 -17 -16 -19 -17 -19 -18 -17 -17 -17 -17 -18 -17

GFSSW_500_temp_006.txt.gz
Temp
-9 -9 -9 -9 -9 -9 -9 -8 -8 -8 -8 -8 -8 -8 -9 -9 -9 -9 -9 -9 -9 -9 -9 -9 -9 -9 -9 -9 -9 -10 -10 -10 -10 -10 -10 -10 -10 -10 -10 -9 -10 -10 -10 -10 -10
-9 -9 -9 -9 -8 -9 -8 -8 -8 -8 -8 -8 -8 -8 -8 -9 -9 -9 -9 -9 -9 -9 -9 -9 -9 -9 -9 -9 -9 -9 -10 -10 -10 -10 -10 -10 -10 -10 -10 -10 -9 -9 -10 -10 -10
-9 -9 -9 -9 -9 -9 -9 -8 -8 -8 -8 -8 -8 -8 -8 -9 -9 -9 -9 -9 -9 -9 -9 -9 -9 -9 -9 -9 -9 -9 -10 -10 -10 -10 -10 -10 -10 -10 -10 -10 -10 -9 -10 -9 -10
-9 -9 -9 -9 -9 -9 -9 -9 -9 -9 -9 -9 -9 -9 -9 -9 -9 -9 -9 -9 -9 -9 -9 -9 -9 -9 -9 -9 -10 -9 -10 -10 -10 -10 -10 -10 -10 -10 -9 -11 -10 -10 -10 -10 -10
-9 -9 -9 -9 -9 -9 -9 -9 -9 -9 -9 -9 -9 -9 -9 -9 -9 -9 -9 -9 -9 -10 -10 -10 -10 -10 -10 -10 -10 -9 -10 -10 -10 -10 -10 -10 -10 -10 -10 -11 -11 -10 -10 -10 -10
-9 -10 -9 -9 -9 -9 -9 -9 -9 -9 -9 -9 -9 -9 -9 -9 -9 -9 -10 -10 -10 -10 -10 -10 -10 -10 -10 -10 -10 -10 -10 -10 -10 -11 -11 -10 -10 -10 -11 -11 -11 -11 -11 -11 -10
-10 -10 -10 -10 -10 -10 -9 -9 -9 -9 -10 -9 -9 -9 -9 -9 -9 -10 -10 -10 -10 -10 -10 -10 -10 -10 -10 -10 -10 -10 -10 -10 -10 -11 -11 -10 -9 -10 -11 -11 -11 -11 -11 -11 -11
-10 -10 -10 -10 -10 -10 -10 -10 -10 -10 -10 -10 -10 -10 -10 -10 -10 -10 -10 -10 -10 -10 -10 -10 -10 -10 -10 -11 -10 -10 -10 -11 -11 -11 -10 -11 -9 -10 -11 -11 -11 -11 -11 -11 -11
-11 -10 -10 -10 -10 -10 -10 -10 -10 -10 -10 -10 -10 -10 -10 -10 -10 -10 -10 -10 -10 -10 -10 -11 -10 -11 -11 -10 -10 -11 -11 -11 -10 -10 -10 -11 -10 -10 -10 -10 -10 -10 -11 -11 -11
-11 -11 -11 -11 -11 -11 -11 -10 -10 -10 -10 -10 -10 -10 -10 -10 -10 -10 -11 -11 -11 -11 -10 -10 -11 -11 -11 -11 -11 -11 -11 -11 -11 -11 -10 -10 -10 -10 -10 -10 -10 -10 -10 -10 -11
-11 -11 -11 -11 -11 -11 -11 -11 -11 -10 -10 -10 -10 -10 -10 -10 -10 -10 -11 -11 -11 -10 -11 -11 -10 -10 -11 -12 -11 -11 -11 -11 -11 -12 -11 -10 -10 -9 -9 -9 -9 -10 -10 -10 -11
-12 -12 -12 -12 -11 -11 -11 -11 -11 -11 -10 -10 -10 -10 -10 -10 -10 -11 -11 -11 -11 -11 -11 -11 -10 -11 -12 -11 -11 -11 -11 -11 -11 -12 -11 -10 -9 -9 -9 -9 -9 -9 -10 -10 -10
-12 -12 -12 -12 -12 -11 -11 -11 -11 -11 -10 -10 -11 -10 -11 -11 -10 -11 -11 -11 -11 -11 -11 -11 -11 -11 -11 -11 -12 -11 -11 -11 -11 -11 -11 -10 -8 -8 -9 -9 -10 -10 -10 -10 -10
-12 -12 -13 -12 -12 -12 -12 -12 -12 -12 -11 -10 -10 -11 -11 -11 -11 -11 -12 -12 -12 -12 -12 -11 -11 -11 -12 -12 -12 -11 -12 -12 -11 -11 -10 -10 -6 -7 -9 -9 -9 -10 -10 -10 -10
-13 -12 -13 -13 -13 -13 -13 -13 -13 -12 -11 -11 -11 -11 -11 -11 -11 -11 -12 -12 -12 -12 -12 -11 -12 -12 -12 -12 -13 -11 -13 -13 -12 -11 -11 -10 -10 -7 -9 -9 -9 -9 -10 -10 -10
-14 -13 -13 -14 -14 -14 -13 -13 -13 -13 -11 -12 -12 -12 -12 -11 -11 -11 -11 -12 -12 -12 -12 -12 -12 -12 -12 -12 -12 -13 -12 -14 -14 -13 -9 -11 -12 -4 -8 -9 -9 -9 -9 -10 -10
-14 -13 -13 -14 -14 -14 -14 -14 -14 -13 -12 -12 -12 -12 -12 -12 -12 -12 -12 -12 -12 -12 -11 -11 -11 -11 -12 -13 -13 -14 -13 -13 -13 -13 -10 -10 -11 -8 -9 -9 -10 -10 -10 -10 -10
-14 -14 -14 -14 -14 -14 -14 -14 -13 -12 -12 -13 -13 -13 -12 -13 -13 -13 -12 -12 -12 -13 -12 -12 -10 -12 -12 -14 -14 -14 -15 -15 -15 -13 -11 -12 -9 -8 -10 -10 -11 -11 -11 -10 -11
-14 -14 -14 -14 -14 -14 -15 -14 -13 -13 -13 -14 -14 -13 -13 -13 -14 -14 -13 -13 -13 -14 -15 -14 -12 -13 -14 -14 -14 -13 -13 -14 -16 -15 -14 -11 -10 -10 -10 -11 -10 -11 -12 -12 -11
-15 -14 -14 -15 -14 -15 -15 -13 -13 -14 -15 -14 -14 -14 -13 -14 -14 -15 -15 -13 -14 -14 -15 -15 -15 -13 -15 -15 -14 -15 -15 -15 -15 -16 -15 -13 -11 -10 -10 -11 -11 -12 -13 -13 -13
-17 -17 -14 -17 -17 -17 -16 -14 -15 -15 -15 -16 -16 -16 -15 -14 -15 -15 -15 -15 -15 -15 -16 -16 -16 -14 -15 -15 -16 -16 -17 -17 -17 -16 -16 -16 -13 -12 -11 -11 -12 -13 -14 -14 -16
-17 -17 -17 -18 -18 -18 -17 -17 -17 -16 -16 -17 -17 -16 -16 -16 -16 -15 -15 -14 -14 -16 -16 -17 -18 -18 -15 -15 -15 -17 -17 -17 -17 -17 -17 -17 -16 -13 -14 -14 -14 -13 -15 -16 -16
-17 -17 -17 -17 -18 -18 -18 -17 -18 -17 -17 -17 -18 -17 -18 -17 -17 -17 -16 -16 -16 -17 -17 -17 -19 -19 -19 -17 -16 -17 -17 -17 -18 -18 -17 -16 -15 -15 -15 -14 -14 -15 -16 -17 -17
-19 -19 -18 -18 -18 -18 -18 -18 -18 -18 -18 -18 -18 -18 -19 -19 -18 -18 -18 -18 -18 -19 -19 -19 -19 -19 -19 -18 -18 -18 -18 -18 -18 -18 -18 -18 -17 -15 -15 -15 -15 -15 -16 -16 -17
-20 -20 -19 -19 -19 -19 -20 -19 -19 -18 -19 -19 -19 -19 -19 -20 -19 -19 -20 -19 -18 -18 -19 -20 -20 -20 -19 -19 -19 -19 -18 -19 -19 -18 -19 -18 -19 -18 -17 -15 -15 -16 -15 -15 -16
-21 -21 -21 -21 -21 -21 -21 -21 -21 -21 -21 -20 -21 -21 -21 -21 -22 -22 -22 -21 -22 -20 -21 -21 -21 -21 -20 -20 -20 -20 -21 -20 -20 -19 -19 -20 -20 -20 -19 -18 -19 -16 -17 -17 -19
-23 -23 -23 -22 -23 -22 -22 -22 -22 -23 -22 -22 -22 -22 -22 -22 -22 -22 -23 -23 -23 -23 -22 -22 -22 -21 -20 -20 -20 -20 -20 -20 -20 -20 -21 -20 -20 -21 -21 -20 -20 -17 -16 -16 -16

GFSSW_500_temp_009.txt.gz
Temp
-9 -9 -9 -9 -9 -9 -9 -9 -9 -8 -8 -8 -8 -8 -8 -8 -8 -8 -8 -9 -9 -9 -9 -9 -9 -9 -9 -9 -9 -9 -10 -10 -10 -10 -10 -10 -10 -10 -10 -9 -10 -9 -10 -9 -9
-9 -9 -9 -9 -9 -9 -9 -9 -9 -9 -9 -9 -9 -9 -9 -9 -9 -9 -9 -8 -9 -9 -9 -9 -9 -9 -9 -9 -9 -9 -10 -10 -10 -10 -10 -10 -10 -10 -10 -10 -10 -9 -9 -9 -10
-9 -9 -9 -9 -9 -9 -9 -9 -9 -9 -9 -9 -9 -9 -9 -9 -9 -9 -9 -9 -9 -9 -9 -9 -9 -9 -9 -9 -10 -9 -10 -10 -10 -10 -10 -10 -10 -10 -10 -10 -11 -10 -10 -10 -10
-9 -9 -9 -9 -9 -9 -9 -9 -9 -9 -9 -9 -9 -9 -9 -9 -9 -9 -9 -9 -9 -10 -10 -10 -9 -10 -10 -10 -10 -9 -10 -11 -10 -10 -10 -11 -10 -10 -9 -11 -11 -11 -10 -11 -10
-9 -9 -9 -9 -9 -9 -9 -9 -9 -9 -9 -9 -9 -9 -9 -9 -10 -9 -9 -9 -10 -10 -10 -10 -10 -10 -10 -10 -10 -10 -10 -10 -11 -10 -11 -12 -11 -10 -10 -12 -11 -11 -11 -11 -11
-9 -9 -9 -9 -9 -9 -9 -9 -9 -9 -9 -9 -9 -9 -9 -9 -10 -9 -10 -10 -10 -10 -10 -10 -10 -10 -10 -10 -10 -10 -10 -10 -10 -11 -11 -12 -11 -10 -11 -12 -11 -11 -11 -11 -11
-10 -10 -10 -9 -9 -9 -9 -9 -9 -9 -9 -9 -9 -9 -9 -10 -10 -10 -10 -10 -10 -10 -10 -10 -10 -10 -10 -10 -10 -10 -10 -10 -11 -11 -12 -12 -10 -10 -11 -12 -11 -11 -11 -11 -11
-10 -10 -10 -10 -10 -10 -10 -10 -10 -10 -10 -10 -10 -10 -10 -10 -10 -10 -10 -10 -10 -10 -10 -10 -10 -10 -10 -11 -10 -11 -10 -11 -11 -11 -11 -11 -10 -10 -11 -11 -11 -11 -11 -11 -11
-10 -10 -10 -10 -10 -10 -10 -10 -10 -10 -10 -10 -10 -10 -10 -10 -11 -11 -11 -10 -10 -10 -10 -10 -10 -10 -11 -10 -10 -11 -11 -11 -11 -11 -11 -11 -10 -11 -10 -11 -11 -10 -10 -11 -11
-11 -11 -11 -11 -11 -11 -11 -11 -11 -11 -11 -10 -10 -10 -10 -10 -10 -11 -11 -11 -11 -11 -10 -11 -11 -11 -11 -11 -11 -11 -11 -11 -10 -11 -11 -11 -10 -10 -11 -10 -10 -10 -10 -10 -11
-11 -11 -11 -11 -11 -11 -11 -11 -11 -11 -11 -11 -10 -10 -10 -10 -10 -11 -11 -11 -11 -11 -11 -11 -10 -10 -11 -11 -11 -11 -11 -10 -10 -11 -11 -10 -9 -9 -9 -9 -9 -10 -10 -10 -10
-11 -11 -11 -11 -11 -11 -11 -11 -11 -11 -10 -11 -10 -10 -11 -11 -10 -11 -11 -11 -11 -11 -11 -11 -10 -11 -12 -11 -11 -11 -11 -11 -10 -11 -11 -9 -8 -9 -9 -9 -10 -10 -10 -10 -10
-12 -12 -11 -11 -12 -12 -11 -11 -11 -11 -10 -10 -10 -11 -11 -11 -11 -11 -12 -11 -11 -11 -11 -11 -10 -11 -11 -11 -12 -12 -12 -11 -11 -11 -10 -9 -7 -9 -9 -9 -10 -10 -9 -10 -10
-12 -12 -12 -12 -12 -12 -12 -12 -11 -11 -10 -10 -11 -11 -11 -11 -11 -12 -11 -12 -12 -11 -12 -10 -11 -11 -11 -11 -13 -11 -13 -12 -11 -11 -10 -9 -6 -7 -8 -9 -9 -9 -10 -10 -10
-12 -13 -13 -13 -13 -13 -13 -13 -13 -12 -11 -11 -11 -11 -11 -12 -12 -12 -12 -12 -12 -12 -12 -12 -12 -12 -12 -12 -12 -12 -13 -13 -12 -11 -10 -9 -9 -7 -8 -9 -8 -9 -9 -11 -11
-13 -13 -13 -14 -14 -14 -14 -13 -13 -13 -11 -12 -12 -12 -12 -12 -12 -12 -13 -12 -12 -12 -12 -12 -12 -12 -12 -12 -12 -12 -12 -12 -12 -12 -10 -10 -11 -5 -8 -8 -9 -9 -9 -9 -9
-13 -13 -13 -15 -15 -15 -14 -14 -14 -13 -12 -12 -13 -13 -13 -14 -13 -13 -13 -13 -13 -12 -12 -12 -12 -12 -12 -13 -13 -14 -14 -13 -12 -12 -10 -11 -11 -7 -9 -9 -9 -9 -9 -10 -10
-14 -13 -13 -14 -15 -15 -14 -15 -14 -12 -12 -13 -14 -14 -14 -14 -14 -14 -13 -12 -13 -13 -13 -13 -12 -13 -13 -14 -14 -14 -15 -14 -15 -13 -12 -12 -11 -8 -10 -10 -10 -9 -10 -10 -12
-14 -14 -13 -15 -15 -16 -17 -15 -13 -13 -14 -14 -15 -14 -14 -15 -15 -15 -15 -14 -14 -15 -15 -15 -13 -14 -14 -14 -14 -14 -14 -15 -16 -16 -15 -11 -11 -10 -10 -10 -10 -10 -10 -11 -13
-15 -17 -14 -15 -16 -16 -16 -13 -13 -14 -15 -15 -14 -15 -14 -15 -15 -16 -15 -14 -14 -15 -16 -16 -15 -15 -15 -15 -14 -16 -15 -16 -17 -17 -16 -15 -13 -11 -10 -11 -12 -12 -12 -13 -15
-17 -17 -17 -17 -18 -18 -16 -14 -14 -14 -15 -16 -16 -15 -15 -15 -16 -17 -17 -15 -16 -16 -16 -17 -17 -15 -16 -15 -16 -16 -16 -15 -16 -17 -17 -17 -16 -13 -13 -12 -12 -13 -13 -15 -16
-18 -18 -17 -17 -18 -18 -17 -16 -17 -16 -17 -17 -18 -17 -17 -17 -17 -18 -18 -17 -17 -17 -17 -17 -19 -19 -16 -16 -16 -17 -17 -17 -18 -17 -18 -19 -18 -15 -15 -14 -14 -14 -15 -16 -16
-19 -19 -19 -19 -19 -18 -18 -18 -18 -18 -18 -18 -18 -18 -18 -18 -18 -18 -19 -19 -19 -19 -19 -18 -19 -19 -18 -17 -16 -18 -18 -19 -19 -20 -19 -19 -18 -17 -16 -15 -15 -15 -16 -16 -17
-20 -19 -20 -20 -19 -19 -19 -19 -19 -18 -18 -19 -19 -19 -19 -19 -19 -19 -19 -19 -19 -19 -19 -19 -19 -19 -20 -20 -18 -19 -18 -18 -20 -20 -18 -19 -19 -18 -18 -18 -16 -18 -17 -16 -16
-20 -21 -21 -20 -20 -20 -20 -20 -19 -19 -20 -20 -20 -20 -20 -21 -20 -20 -20 -20 -20 -20 -20 -21 -21 -21 -20 -20 -20 -20 -20 -20 -20 -20 -21 -20 -20 -20 -21 -20 -19 -18 -18 -18 -17
-22 -22 -22 -22 -22 -21 -21 -21 -21 -21 -21 -21 -21 -21 -21 -21 -22 -21 -21 -21 -21 -21 -22 -22 -21 -22 -21 -21 -22 -22 -22 -21 -22 -20 -20 -20 -20 -21 -21 -20 -20 -19 -19 -18 -18
-23 -23 -23 -23 -23 -23 -22 -22 -23 -23 -22 -22 -22 -22 -22 -23 -23 -22 -23 -23 -23 -23 -22 -22 -22 -22 -22 -22 -23 -23 -21 -23 -21 -21 -22 -21 -21 -21 -21 -21 -21 -20 -20 -20 -19

GFSSW_500_temp_012.txt.gz
Temp
-9 -9 -9 -9 -9 -9 -9 -9 -9 -9 -9 -9 -9 -9 -9 -9 -9 -9 -9 -9 -9 -9 -9 -9 -9 -9 -9 -9 -9 -9 -9 -10 -10 -10 -10 -10 -10 -10 -10 -10 -10 -10 -9 -10 -10
-9 -9 -9 -9 -9 -9 -9 -9 -9 -9 -9 -9 -9 -9 -9 -9 -9 -9 -9 -9 -9 -9 -9 -9 -9 -9 -9 -9 -9 -9 -9 -10 -10 -10 -10 -10 -10 -10 -10 -10 -11 -10 -10 -10 -10
-9 -9 -9 -9 -9 -9 -9 -9 -9 -9 -9 -9 -9 -9 -9 -9 -9 -9 -9 -9 -9 -9 -9 -9 -10 -10 -9 -10 -10 -9 -10 -10 -10 -10 -10 -10 -11 -11 -10 -11 -12 -11 -11 -11 -11
-9 -9 -9 -9 -9 -9 -9 -9 -9 -9 -9 -9 -9 -9 -9 -9 -9 -9 -9 -9 -9 -10 -10 -9 -9 -10 -10 -10 -10 -10 -10 -10 -10 -11 -10 -11 -11 -11 -10 -11 -12 -11 -11 -11 -11
-9 -9 -9 -9 -9 -9 -9 -9 -9 -9 -9 -9 -9 -9 -9 -9 -10 -9 -9 -9 -9 -9 -9 -10 -10 -10 -10 -10 -10 -10 -10 -10 -11 -11 -11 -12 -11 -11 -10 -12 -12 -11 -11 -11 -11
-10 -9 -9 -9 -9 -9 -9 -9 -9 -9 -9 -9 -9 -9 -9 -10 -10 -10 -10 -10 -10 -10 -10 -10 -10 -10 -10 -10 -10 -10 -10 -11 -11 -11 -11 -12 -12 -10 -11 -12 -12 -11 -11 -11 -10
-10 -10 -10 -10 -10 -10 -10 -10 -10 -9 -9 -9 -9 -9 -10 -10 -10 -10 -10 -10 -10 -10 -10 -10 -10 -10 -10 -10 -10 -10 -10 -10 -11 -11 -11 -11 -11 -10 -11 -11 -12 -11 -11 -11 -10
-10 -10 -10 -10 -10 -10 -10 -10 -10 -10 -10 -10 -10 -10 -10 -11 -11 -11 -10 -10 -10 -10 -10 -10 -10 -10 -10 -10 -10 -10 -10 -10 -11 -11 -11 -11 -10 -11 -11 -11 -11 -11 -10 -10 -10
-10 -10 -10 -10 -10 -10 -10 -10 -10 -10 -10 -10 -11 -11 -11 -11 -11 -11 -11 -11 -11 -11 -11 -11 -10 -11 -11 -11 -10 -10 -11 -10 -10 -11 -10 -10 -10 -10 -11 -10 -10 -10 -10 -10 -11
-11 -11 -10 -10 -10 -10 -10 -10 -10 -10 -10 -11 -11 -11 -11 -11 -11 -11 -11 -11 -11 -11 -11 -11 -11 -11 -11 -11 -11 -11 -10 -10 -10 -11 -10 -10 -9 -10 -10 -10 -10 -10 -11 -11 -11
-11 -11 -11 -11 -11 -11 -11 -11 -11 -11 -11 -11 -11 -10 -10 -11 -11 -11 -11 -11 -11 -11 -11 -11 -10 -11 -12 -12 -12 -11 -10 -10 -10 -11 -10 -9 -8 -8 -9 -9 -10 -10 -10 -10 -10
-11 -11 -11 -11 -11 -11 -11 -11 -11 -11 -10 -11 -11 -11 -11 -11 -11 -11 -11 -11 -11 -11 -11 -11 -10 -12 -12 -12 -12 -11 -11 -10 -10 -11 -10 -9 -8 -9 -9 -9 -9 -9 -10 -10 -10
-12 -12 -12 -12 -12 -11 -11 -12 -11 -11 -10 -10 -11 -11 -11 -11 -11 -11 -12 -12 -11 -11 -11 -11 -11 -11 -12 -12 -12 -12 -12 -11 -10 -10 -10 -9 -7 -8 -9 -9 -9 -10 -10 -10 -9
-12 -12 -12 -12 -12 -12 -12 -12 -12 -12 -10 -10 -10 -11 -11 -12 -12 -12 -12 -12 -12 -12 -12 -11 -12 -12 -12 -12 -13 -12 -13 -12 -11 -11 -10 -9 -6 -7 -8 -9 -9 -9 -9 -10 -10
-13 -13 -13 -12 -12 -12 -12 -12 -13 -13 -11 -11 -11 -11 -12 -12 -12 -13 -13 -13 -13 -13 -13 -13 -13 -13 -12 -13 -13 -12 -13 -13 -12 -12 -11 -10 -10 -8 -8 -9 -9 -10 -10 -10 -11
-13 -13 -13 -13 -13 -13 -13 -13 -13 -13 -11 -12 -12 -13 -13 -13 -13 -13 -13 -13 -13 -13 -13 -13 -13 -13 -13 -13 -13 -13 -13 -13 -13 -12 -11 -11 -11 -7 -9 -9 -10 -10 -10 -10 -10
-13 -13 -14 -14 -14 -14 -14 -14 -13 -12 -11 -12 -13 -13 -14 -14 -14 -15 -14 -14 -14 -14 -13 -14 -13 -13 -13 -13 -14 -14 -14 -14 -13 -13 -12 -12 -11 -9 -10 -10 -10 -11 -11 -11 -12
-14 -15 -15 -15 -14 -15 -15 -15 -13 -12 -13 -13 -15 -15 -14 -15 -15 -15 -15 -15 -14 -14 -14 -14 -13 -13 -14 -15 -15 -15 -15 -15 -15 -14 -13 -13 -11 -9 -10 -10 -11 -12 -12 -12 -13
-14 -14 -13 -15 -15 -15 -16 -15 -13 -13 -14 -15 -16 -16 -15 -15 -16 -16 -16 -15 -15 -15 -16 -15 -13 -13 -14 -15 -14 -15 -16 -16 -16 -16 -16 -13 -12 -11 -11 -11 -12 -13 -14 -14 -15
-15 -15 -15 -17 -17 -17 -17 -14 -14 -14 -14 -15 -15 -16 -15 -15 -17 -17 -16 -15 -15 -15 -16 -16 -15 -14 -15 -15 -15 -16 -16 -16 -17 -18 -17 -15 -14 -12 -11 -12 -14 -14 -15 -16 -16
-16 -16 -16 -17 -18 -18 -16 -16 -17 -17 -16 -16 -16 -17 -17 -16 -17 -18 -18 -17 -17 -17 -17 -17 -17 -15 -15 -14 -16 -17 -17 -17 -18 -19 -18 -18 -17 -14 -14 -14 -14 -15 -16 -16 -15
-17 -17 -17 -17 -18 -18 -17 -18 -18 -17 -18 -18 -18 -19 -19 -19 -18 -18 -19 -19 -18 -19 -18 -18 -19 -19 -17 -17 -17 -18 -18 -18 -19 -19 -19 -20 -19 -17 -16 -16 -16 -18 -17 -16 -16
-18 -18 -18 -18 -18 -19 -19 -19 -19 -18 -18 -19 -19 -19 -19 -19 -19 -19 -19 -19 -20 -19 -19 -19 -20 -20 -20 -19 -18 -19 -19 -20 -19 -19 -20 -20 -19 -19 -19 -18 -17 -17 -16 -16 -16
-20 -20 -19 -20 -20 -20 -20 -20 -19 -19 -20 -20 -20 -20 -20 -20 -20 -20 -20 -20 -20 -20 -19 -20 -21 -21 -21 -20 -20 -20 -20 -21 -21 -20 -20 -20 -20 -20 -20 -20 -19 -18 -18 -18 -18
-20 -20 -20 -20 -20 -21 -21 -21 -20 -20 -21 -21 -21 -21 -21 -21 -21 -21 -21 -21 -20 -20 -20 -21 -21 -21 -21 -21 -22 -22 -21 -21 -20 -21 -22 -22 -22 -22 -21 -21 -21 -21 -20 -19 -19
-21 -21 -21 -21 -22 -22 -22 -22 -22 -22 -23 -22 -22 -22 -22 -22 -22 -22 -22 -22 -22 -22 -21 -22 -22 -22 -22 -22 -23 -23 -23 -22 -21 -22 -22 -22 -22 -22 -22 -22 -22 -21 -21 -21 -20
-22 -22 -22 -22 -23 -23 -23 -23 -23 -23 -23 -23 -23 -23 -23 -23 -23 -23 -23 -23 -23 -23 -23 -23 -23 -23 -23 -23 -24 -24 -22 -23 -23 -23 -23 -23 -23 -23 -23 -23 -23 -22 -22 -22 -21

GFSSW_500_temp_015.txt.gz
Temp
-9 -9 -9 -9 -9 -9 -9 -9 -9 -9 -9 -9 -9 -9 -9 -9 -9 -9 -9 -9 -9 -9 -9 -9 -9 -9 -9 -9 -9 -9 -9 -10 -10 -10 -10 -10 -10 -10 -10 -10 -11 -10 -10 -10 -10
-9 -9 -9 -9 -9 -9 -9 -9 -9 -9 -9 -9 -9 -9 -9 -9 -9 -9 -9 -9 -9 -9 -9 -9 -9 -9 -9 -9 -9 -9 -9 -10 -10 -10 -10 -10 -10 -11 -10 -11 -11 -11 -11 -11 -11
-10 -10 -10 -10 -9 -9 -9 -9 -9 -9 -9 -9 -9 -9 -9 -9 -9 -9 -9 -9 -9 -9 -9 -9 -9 -9 -10 -10 -10 -9 -10 -10 -10 -10 -10 -10 -11 -11 -11 -11 -12 -12 -11 -11 -11
-10 -10 -10 -10 -10 -9 -9 -9 -9 -9 -9 -9 -9 -9 -9 -9 -9 -10 -9 -9 -9 -9 -9 -10 -10 -10 -10 -10 -10 -10 -10 -10 -10 -11 -11 -11 -11 -11 -11 -11 -12 -11 -11 -11 -11
-10 -9 -9 -9 -9 -9 -9 -9 -9 -9 -9 -9 -9 -9 -9 -9 -10 -10 -10 -10 -10 -10 -10 -10 -10 -10 -10 -10 -10 -10 -10 -10 -11 -11 -11 -11 -11 -11 -10 -12 -11 -11 -11 -11 -11
-10 -10 -10 -10 -9 -9 -9 -9 -9 -9 -9 -9 -9 -9 -9 -10 -10 -10 -10 -10 -10 -10 -10 -10 -10 -10 -10 -10 -10 -10 -10 -10 -10 -11 -11 -11 -11 -10 -11 -11 -11 -11 -11 -11 -10
-10 -10 -10 -10 -10 -10 -10 -10 -10 -10 -10 -10 -10 -10 -10 -10 -10 -10 -10 -11 -10 -10 -11 -11 -10 -10 -10 -10 -10 -10 -10 -10 -10 -11 -11 -11 -10 -11 -11 -11 -11 -11 -11 -11 -11
-10 -10 -10 -10 -10 -10 -10 -10 -10 -10 -10 -10 -10 -10 -10 -10 -11 -11 -11 -11 -11 -11 -11 -11 -10 -10 -10 -11 -10 -10 -10 -10 -11 -11 -10 -10 -10 -11 -11 -10 -10 -10 -11 -11 -11
-11 -11 -11 -10 -10 -10 -10 -10 -10 -10 -10 -10 -10 -10 -10 -11 -11 -11 -11 -11 -11 -11 -11 -11 -10 -10 -11 -11 -10 -11 -10 -10 -10 -11 -10 -10 -9 -9 -10 -10 -10 -10 -10 -11 -11
-11 -11 -11 -11 -11 -11 -11 -11 -11 -10 -10 -10 -10 -10 -10 -11 -11 -11 -11 -11 -11 -11 -11 -11 -11 -11 -11 -11 -11 -11 -10 -10 -10 -11 -10 -9 -9 -9 -10 -10 -10 -10 -10 -11 -11
-12 -11 -11 -11 -11 -11 -11 -11 -11 -10 -11 -11 -11 -10 -11 -11 -11 -11 -11 -11 -11 -11 -11 -11 -10 -11 -11 -11 -11 -10 -10 -10 -10 -11 -10 -9 -9 -9 -10 -10 -10 -10 -10 -10 -11
-12 -12 -12 -11 -11 -11 -11 -11 -11 -10 -10 -11 -11 -11 -11 -11 -11 -11 -11 -11 -11 -11 -11 -11 -10 -11 -11 -11 -11 -11 -10 -10 -10 -11 -10 -9 -8 -9 -10 -10 -10 -10 -11 -10 -10
-12 -12 -12 -12 -12 -11 -11 -11 -11 -11 -10 -10 -11 -11 -11 -12 -11 -12 -12 -12 -11 -11 -11 -11 -11 -11 -11 -11 -12 -12 -12 -11 -10 -10 -10 -8 -8 -8 -9 -10 -10 -10 -11 -11 -10
-13 -12 -12 -12 -12 -12 -12 -12 -12 -12 -11 -10 -10 -11 -11 -11 -11 -12 -12 -12 -12 -12 -13 -12 -12 -12 -12 -12 -13 -11 -13 -12 -11 -11 -10 -9 -7 -8 -9 -9 -10 -10 -10 -11 -11
-13 -13 -13 -13 -13 -13 -13 -12 -12 -12 -11 -11 -11 -11 -11 -12 -12 -12 -13 -13 -13 -13 -13 -13 -14 -14 -13 -13 -13 -12 -13 -13 -12 -12 -10 -9 -9 -8 -9 -10 -11 -11 -11 -12 -13
-13 -13 -13 -13 -13 -13 -13 -13 -13 -13 -11 -12 -12 -13 -13 -13 -13 -13 -13 -13 -14 -14 -14 -14 -14 -14 -15 -14 -14 -13 -13 -13 -13 -13 -11 -10 -11 -8 -9 -11 -12 -13 -15 -14 -13
-14 -14 -14 -14 -14 -14 -14 -14 -13 -13 -13 -13 -14 -14 -14 -15 -15 -16 -15 -15 -15 -14 -14 -14 -14 -14 -15 -15 -15 -15 -15 -14 -14 -13 -12 -12 -11 -10 -11 -12 -13 -14 -14 -13 -14
-14 -14 -14 -15 -15 -15 -15 -14 -13 -12 -13 -15 -15 -15 -15 -16 -16 -16 -16 -15 -16 -16 -16 -15 -13 -14 -15 -15 -15 -15 -16 -16 -16 -14 -13 -14 -11 -10 -11 -12 -14 -14 -14 -14 -14
-14 -14 -15 -15 -15 -15 -16 -15 -14 -14 -14 -15 -16 -16 -15 -15 -16 -16 -16 -16 -16 -17 -17 -17 -14 -15 -15 -16 -16 -16 -16 -17 -17 -17 -16 -13 -12 -11 -12 -14 -14 -15 -14 -15 -15
-15 -14 -15 -16 -16 -17 -16 -15 -15 -15 -16 -15 -15 -16 -15 -16 -16 -16 -16 -16 -16 -17 -18 -18 -17 -16 -17 -16 -16 -18 -17 -17 -17 -18 -18 -16 -15 -12 -13 -15 -15 -15 -15 -15 -15
-16 -16 -17 -18 -18 -17 -16 -16 -17 -17 -17 -17 -16 -17 -17 -17 -17 -18 -18 -17 -17 -17 -18 -19 -20 -18 -19 -16 -18 -18 -18 -19 -19 -20 -19 -19 -18 -14 -15 -16 -15 -15 -15 -15 -15
-18 -19 -18 -18 -18 -17 -17 -18 -17 -17 -18 -19 -19 -18 -19 -19 -19 -19 -19 -19 -19 -19 -19 -19 -20 -20 -19 -19 -19 -19 -20 -20 -20 -20 -20 -20 -20 -18 -18 -18 -18 -18 -18 -17 -17
-18 -18 -18 -18 -18 -18 -18 -19 -18 -18 -19 -19 -19 -19 -20 -20 -20 -20 -20 -19 -20 -20 -20 -21 -21 -21 -20 -20 -19 -20 -20 -20 -21 -21 -20 -20 -20 -20 -20 -19 -18 -18 -17 -17 -19
-19 -19 -19 -19 -19 -19 -19 -19 -19 -19 -19 -20 -20 -21 -20 -21 -21 -21 -21 -21 -21 -20 -21 -21 -21 -21 -21 -20 -21 -21 -22 -21 -21 -21 -21 -21 -21 -22 -22 -22 -21 -21 -20 -20 -19
-20 -19 -20 -20 -20 -20 -21 -20 -20 -21 -21 -21 -22 -22 -22 -22 -22 -22 -22 -22 -22 -21 -21 -22 -21 -22 -22 -22 -22 -22 -22 -22 -21 -21 -21 -22 -23 -22 -22 -22 -22 -22 -22 -21 -20
-21 -21 -20 -21 -21 -21 -21 -21 -21 -22 -22 -21 -23 -23 -23 -23 -23 -23 -23 -23 -22 -22 -23 -23 -23 -23 -22 -22 -23 -23 -22 -22 -22 -22 -23 -23 -22 -23 -23 -23 -23 -23 -23 -23 -22
-22 -22 -22 -22 -22 -22 -22 -22 -22 -22 -22 -23 -23 -23 -23 -24 -24 -24 -24 -24 -23 -23 -23 -23 -23 -24 -23 -23 -24 -24 -23 -23 -24 -23 -24 -24 -24 -25 -25 -24 -24 -24 -23 -23 -23

GFSSW_500_temp_021.txt.gz
Temp
-9 -9 -9 -9 -9 -9 -9 -9 -9 -9 -9 -9 -9 -9 -9 -9 -9 -9 -9 -9 -9 -9 -9 -9 -9 -9 -9 -9 -9 -9 -9 -10 -10 -10 -10 -10 -10 -10 -11 -11 -11 -11 -10 -10 -10
-9 -9 -9 -9 -9 -9 -9 -9 -9 -9 -9 -9 -9 -9 -9 -9 -9 -9 -9 -9 -9 -9 -9 -9 -9 -9 -9 -9 -9 -10 -10 -10 -10 -10 -10 -10 -10 -10 -11 -11 -12 -11 -11 -10 -11
-9 -9 -9 -9 -9 -9 -10 -10 -10 -10 -9 -9 -9 -9 -9 -9 -9 -9 -9 -9 -9 -9 -9 -9 -9 -9 -9 -10 -10 -10 -10 -10 -10 -10 -10 -10 -10 -10 -10 -11 -11 -11 -11 -11 -11
-10 -10 -10 -10 -10 -10 -10 -10 -10 -9 -9 -9 -9 -9 -9 -9 -9 -9 -9 -9 -9 -9 -9 -9 -10 -10 -10 -10 -10 -10 -10 -10 -10 -10 -10 -10 -10 -10 -10 -11 -11 -11 -11 -11 -11
-10 -10 -10 -10 -10 -10 -10 -10 -10 -9 -9 -9 -9 -9 -9 -9 -9 -9 -9 -9 -10 -10 -10 -10 -10 -10 -10 -10 -10 -10 -10 -10 -11 -11 -11 -11 -11 -10 -10 -11 -11 -11 -11 -11 -11
-10 -10 -10 -10 -10 -10 -10 -10 -10 -10 -10 -10 -9 -10 -10 -10 -10 -10 -10 -10 -10 -10 -10 -10 -10 -10 -10 -10 -10 -10 -10 -10 -11 -11 -11 -11 -10 -10 -11 -11 -11 -11 -11 -11 -11
-10 -10 -10 -10 -10 -10 -10 -10 -10 -10 -10 -10 -10 -10 -10 -10 -10 -10 -10 -10 -10 -10 -10 -10 -10 -10 -11 -11 -10 -10 -10 -10 -11 -11 -10 -11 -10 -11 -11 -11 -10 -11 -11 -11 -11
-11 -10 -10 -10 -10 -10 -10 -10 -10 -10 -10 -10 -10 -10 -10 -10 -10 -10 -10 -10 -10 -10 -10 -11 -11 -11 -11 -11 -10 -10 -10 -10 -10 -10 -10 -10 -10 -11 -11 -11 -11 -11 -11 -11 -11
-11 -11 -11 -11 -10 -10 -10 -10 -10 -10 -11 -11 -10 -10 -10 -11 -11 -11 -10 -10 -10 -11 -11 -11 -11 -11 -11 -11 -11 -11 -10 -10 -10 -10 -10 -10 -10 -10 -11 -10 -10 -11 -11 -10 -11
-11 -11 -11 -11 -11 -11 -10 -10 -11 -10 -10 -10 -10 -11 -11 -11 -11 -11 -11 -11 -11 -11 -11 -11 -11 -11 -11 -11 -11 -11 -10 -10 -10 -11 -10 -9 -9 -10 -10 -10 -11 -11 -11 -11 -10
-12 -11 -11 -11 -11 -11 -11 -11 -11 -11 -11 -11 -11 -11 -11 -11 -11 -11 -11 -11 -11 -11 -11 -11 -11 -11 -11 -11 -11 -11 -11 -11 -11 -11 -10 -10 -9 -10 -10 -10 -11 -11 -11 -11 -10
-12 -11 -11 -11 -11 -11 -11 -11 -11 -11 -10 -11 -11 -11 -11 -11 -11 -11 -11 -11 -11 -11 -11 -11 -11 -11 -12 -12 -11 -11 -11 -10 -11 -11 -10 -10 -9 -10 -10 -11 -11 -12 -11 -11 -10
-12 -12 -11 -11 -11 -11 -11 -11 -11 -11 -10 -10 -11 -11 -11 -11 -11 -11 -12 -11 -11 -11 -11 -11 -11 -11 -11 -12 -12 -12 -11 -11 -11 -11 -11 -10 -10 -10 -11 -11 -11 -11 -11 -10 -11
-12 -12 -12 -11 -11 -11 -11 -11 -11 -11 -11 -10 -11 -11 -11 -11 -11 -11 -12 -12 -12 -12 -12 -11 -12 -12 -12 -12 -12 -12 -12 -12 -12 -12 -12 -11 -10 -11 -12 -12 -12 -12 -11 -11 -11
-12 -12 -12 -11 -12 -12 -12 -12 -12 -12 -12 -11 -12 -12 -12 -12 -12 -12 -13 -13 -13 -13 -13 -13 -13 -13 -13 -13 -13 -13 -13 -13 -13 -13 -13 -13 -13 -11 -12 -12 -11 -12 -13 -13 -13
-13 -13 -13 -13 -13 -13 -13 -12 -13 -13 -12 -13 -13 -13 -13 -13 -13 -12 -13 -13 -14 -14 -14 -14 -13 -14 -14 -14 -14 -14 -13 -13 -14 -14 -12 -13 -13 -13 -13 -14 -12 -13 -13 -14 -15
-14 -14 -14 -14 -14 -13 -13 -13 -13 -13 -13 -13 -14 -14 -14 -14 -15 -15 -14 -14 -14 -14 -14 -14 -14 -14 -15 -14 -15 -15 -15 -14 -14 -15 -13 -15 -13 -13 -14 -14 -14 -15 -15 -16 -16
-14 -14 -14 -14 -14 -14 -14 -14 -13 -13 -13 -14 -14 -14 -14 -15 -15 -15 -15 -15 -15 -15 -15 -15 -14 -15 -14 -15 -16 -16 -16 -16 -16 -15 -15 -15 -14 -13 -15 -14 -14 -15 -16 -16 -17
-15 -15 -15 -15 -15 -14 -14 -14 -14 -14 -14 -15 -15 -15 -15 -15 -15 -15 -16 -16 -16 -17 -16 -16 -15 -16 -16 -16 -16 -17 -17 -17 -17 -17 -16 -15 -15 -15 -16 -15 -15 -15 -15 -15 -15
-15 -15 -15 -15 -15 -15 -14 -14 -15 -16 -16 -16 -16 -16 -16 -16 -16 -16 -16 -16 -16 -17 -17 -17 -16 -16 -17 -17 -17 -18 -18 -18 -18 -19 -19 -17 -16 -16 -17 -17 -16 -16 -16 -16 -16
-15 -15 -15 -16 -16 -15 -15 -16 -15 -15 -16 -16 -16 -16 -16 -17 -17 -17 -16 -17 -17 -17 -17 -18 -18 -17 -17 -17 -18 -19 -18 -19 -19 -19 -19 -20 -19 -18 -18 -19 -18 -18 -18 -18 -18
-16 -15 -16 -16 -16 -16 -15 -15 -15 -16 -17 -17 -17 -18 -17 -19 -18 -18 -18 -19 -18 -18 -19 -19 -20 -19 -18 -18 -19 -19 -19 -20 -21 -20 -20 -21 -20 -20 -19 -19 -20 -20 -20 -21 -20
-18 -17 -17 -16 -16 -17 -17 -17 -18 -17 -17 -18 -18 -18 -19 -19 -19 -19 -19 -19 -19 -19 -19 -20 -20 -21 -19 -19 -19 -21 -21 -21 -21 -22 -22 -21 -21 -21 -21 -21 -20 -21 -20 -20 -21
-19 -18 -18 -18 -18 -18 -18 -18 -18 -19 -19 -19 -19 -19 -19 -19 -19 -19 -19 -20 -20 -20 -20 -20 -20 -20 -21 -21 -21 -22 -22 -22 -22 -22 -22 -22 -22 -22 -21 -22 -22 -21 -21 -21 -21
-19 -19 -19 -19 -18 -19 -20 -19 -19 -19 -19 -20 -20 -20 -20 -20 -20 -20 -20 -20 -20 -21 -21 -22 -22 -22 -22 -22 -23 -23 -23 -23 -23 -23 -23 -23 -23 -23 -23 -23 -23 -24 -23 -22 -21
-20 -20 -20 -20 -20 -20 -20 -19 -20 -20 -20 -20 -20 -20 -20 -21 -21 -21 -21 -21 -21 -22 -22 -23 -23 -23 -23 -23 -24 -24 -23 -23 -23 -23 -24 -24 -24 -24 -24 -24 -24 -24 -24 -23 -23
-20 -21 -21 -21 -21 -21 -21 -21 -21 -21 -21 -21 -21 -21 -21 -21 -22 -22 -22 -23 -23 -23 -23 -23 -24 -24 -24 -24 -24 -24 -22 -24 -24 -23 -24 -25 -25 -25 -25 -26 -26 -26 -26 -26 -25

GFSSW_500_temp_024.txt.gz
Temp
-9 -9 -9 -9 -9 -9 -9 -9 -9 -9 -9 -9 -9 -9 -9 -9 -9 -9 -9 -9 -9 -9 -9 -9 -9 -9 -9 -9 -9 -9 -9 -10 -10 -10 -10 -10 -10 -10 -11 -11 -11 -10 -11 -10 -10
-9 -9 -9 -9 -9 -9 -9 -9 -9 -9 -10 -9 -9 -9 -9 -9 -9 -9 -9 -9 -9 -9 -9 -9 -9 -9 -9 -9 -9 -9 -10 -10 -10 -10 -10 -10 -10 -10 -10 -11 -11 -11 -11 -11 -11
-10 -10 -10 -9 -9 -9 -9 -9 -10 -10 -10 -10 -10 -10 -9 -9 -9 -9 -9 -9 -9 -9 -9 -9 -9 -9 -9 -9 -10 -10 -10 -10 -10 -10 -10 -10 -10 -10 -10 -10 -11 -11 -11 -11 -11
-10 -10 -10 -10 -10 -10 -10 -10 -10 -10 -10 -10 -10 -10 -10 -9 -9 -9 -9 -9 -9 -9 -9 -9 -10 -10 -9 -10 -10 -10 -10 -10 -11 -11 -10 -10 -11 -11 -10 -10 -10 -11 -10 -10 -11
-10 -10 -10 -10 -10 -10 -10 -10 -10 -10 -10 -10 -10 -9 -9 -9 -9 -9 -9 -9 -9 -9 -10 -10 -10 -10 -10 -10 -10 -10 -10 -10 -10 -10 -11 -10 -11 -10 -11 -10 -11 -11 -11 -11 -11
-10 -10 -10 -10 -10 -10 -10 -10 -10 -10 -10 -10 -10 -10 -10 -10 -10 -10 -10 -9 -10 -10 -10 -10 -10 -10 -10 -10 -10 -10 -11 -11 -11 -11 -11 -11 -11 -11 -11 -10 -10 -11 -11 -11 -11
-11 -10 -10 -10 -10 -10 -10 -10 -10 -10 -10 -10 -10 -10 -10 -10 -10 -10 -10 -10 -10 -10 -10 -10 -10 -10 -10 -10 -10 -11 -10 -11 -11 -11 -10 -10 -11 -11 -10 -10 -10 -11 -11 -11 -11
-11 -11 -11 -11 -11 -11 -10 -10 -10 -10 -10 -10 -10 -10 -10 -10 -10 -10 -10 -10 -10 -10 -10 -10 -10 -10 -10 -11 -11 -10 -10 -10 -11 -10 -10 -10 -10 -11 -10 -10 -10 -11 -11 -10 -11
-11 -11 -11 -11 -11 -11 -11 -11 -11 -11 -11 -10 -10 -10 -10 -10 -11 -11 -11 -11 -11 -11 -11 -11 -10 -10 -11 -11 -11 -11 -11 -11 -11 -11 -10 -9 -9 -10 -11 -11 -11 -11 -11 -11 -10
-11 -12 -12 -11 -11 -11 -11 -11 -11 -11 -11 -11 -11 -11 -11 -11 -11 -11 -11 -11 -11 -11 -11 -11 -11 -11 -11 -11 -11 -11 -11 -11 -11 -11 -11 -10 -9 -9 -9 -9 -10 -10 -10 -10 -9
-12 -12 -12 -12 -12 -11 -11 -11 -11 -11 -11 -11 -11 -11 -11 -11 -11 -11 -11 -11 -11 -11 -11 -11 -11 -11 -11 -11 -11 -11 -11 -10 -11 -11 -11 -10 -10 -10 -11 -11 -11 -11 -10 -10 -10
-12 -12 -12 -12 -12 -12 -12 -11 -11 -11 -11 -12 -12 -11 -11 -11 -11 -11 -11 -11 -11 -11 -11 -11 -11 -11 -11 -11 -11 -11 -11 -11 -11 -11 -11 -11 -11 -11 -11 -12 -12 -11 -11 -11 -11
-12 -12 -12 -11 -12 -12 -12 -12 -11 -11 -11 -11 -11 -11 -11 -11 -11 -11 -12 -11 -11 -11 -11 -11 -11 -11 -11 -11 -11 -12 -12 -12 -12 -12 -12 -12 -11 -12 -12 -12 -11 -11 -12 -12 -11
-13 -12 -12 -11 -11 -12 -12 -11 -12 -11 -11 -10 -11 -11 -11 -11 -11 -12 -12 -11 -11 -11 -12 -11 -12 -12 -12 -12 -12 -12 -12 -12 -12 -12 -12 -12 -11 -12 -13 -12 -11 -11 -14 -14 -13
-13 -12 -12 -12 -12 -12 -12 -12 -12 -12 -11 -11 -11 -11 -12 -12 -12 -12 -12 -12 -13 -13 -13 -13 -12 -13 -13 -13 -13 -13 -13 -13 -13 -13 -13 -13 -13 -12 -13 -13 -13 -13 -14 -14 -14
-13 -12 -12 -12 -12 -12 -12 -12 -12 -13 -11 -12 -12 -12 -13 -13 -13 -13 -13 -13 -13 -13 -13 -13 -12 -13 -14 -14 -14 -14 -13 -14 -14 -14 -13 -14 -13 -12 -13 -14 -14 -15 -15 -15 -16
-13 -13 -13 -13 -13 -13 -13 -13 -14 -13 -12 -12 -13 -13 -13 -13 -14 -14 -14 -14 -14 -13 -13 -14 -14 -14 -14 -14 -14 -15 -15 -15 -14 -14 -14 -14 -13 -13 -14 -14 -14 -15 -15 -16 -16
-14 -14 -14 -13 -14 -14 -14 -14 -13 -12 -13 -13 -14 -14 -14 -14 -14 -15 -15 -15 -15 -15 -15 -15 -14 -15 -15 -15 -15 -15 -16 -16 -16 -15 -15 -14 -14 -14 -15 -16 -16 -16 -15 -16 -16
-14 -14 -14 -14 -14 -14 -14 -14 -13 -14 -15 -15 -15 -14 -15 -15 -15 -15 -15 -15 -16 -16 -16 -16 -15 -16 -15 -15 -16 -16 -16 -17 -17 -16 -16 -15 -15 -15 -16 -16 -16 -16 -16 -17 -17
-14 -14 -14 -14 -15 -15 -15 -14 -14 -15 -15 -15 -15 -15 -15 -16 -16 -16 -16 -15 -16 -16 -17 -16 -16 -17 -17 -16 -17 -18 -18 -18 -18 -19 -18 -17 -17 -16 -17 -18 -18 -18 -18 -18 -18
-15 -15 -14 -15 -15 -15 -14 -15 -16 -16 -16 -16 -16 -16 -16 -16 -16 -16 -16 -16 -16 -16 -17 -17 -17 -17 -17 -18 -18 -18 -18 -18 -19 -19 -19 -19 -18 -18 -18 -18 -18 -19 -19 -19 -19
-15 -15 -15 -16 -16 -15 -16 -16 -16 -16 -16 -17 -17 -16 -17 -18 -18 -18 -17 -18 -17 -17 -18 -19 -19 -18 -18 -18 -19 -19 -19 -19 -19 -19 -20 -21 -21 -20 -20 -20 -20 -21 -21 -20 -20
-15 -16 -17 -17 -16 -17 -17 -17 -17 -17 -18 -17 -17 -17 -18 -18 -18 -18 -18 -19 -18 -19 -19 -19 -19 -19 -19 -19 -20 -20 -20 -20 -21 -21 -21 -22 -21 -21 -22 -22 -21 -21 -21 -21 -21
-18 -18 -17 -17 -17 -17 -18 -18 -18 -18 -17 -17 -18 -18 -18 -18 -19 -19 -19 -19 -20 -20 -20 -20 -20 -20 -20 -20 -20 -21 -21 -21 -22 -23 -22 -22 -22 -22 -23 -23 -23 -23 -22 -22 -22
-19 -18 -18 -18 -17 -19 -18 -18 -19 -19 -19 -19 -18 -19 -19 -19 -20 -20 -20 -20 -20 -20 -20 -21 -20 -21 -21 -21 -21 -21 -21 -21 -22 -23 -23 -23 -24 -23 -23 -24 -24 -23 -23 -23 -23
-18 -18 -18 -18 -19 -19 -19 -18 -19 -19 -19 -19 -20 -20 -20 -20 -21 -20 -20 -20 -21 -20 -21 -21 -21 -22 -21 -22 -23 -23 -21 -22 -23 -23 -24 -24 -24 -24 -24 -24 -24 -24 -24 -24 -24
-19 -19 -19 -19 -19 -19 -19 -19 -20 -20 -20 -20 -20 -21 -21 -21 -21 -21 -21 -21 -21 -21 -22 -22 -22 -23 -22 -23 -24 -23 -22 -24 -24 -24 -24 -24 -24 -24 -24 -24 -24 -24 -25 -25 -25

GFSSW_500_temp_027.txt.gz
Temp
-9 -9 -9 -9 -9 -9 -9 -9 -9 -9 -9 -9 -9 -9 -9 -9 -9 -9 -9 -9 -9 -9 -9 -9 -9 -9 -9 -9 -9 -9 -10 -10 -10 -10 -10 -10 -10 -10 -11 -11 -11 -10 -11 -10 -10
-10 -10 -10 -10 -10 -9 -9 -9 -9 -9 -9 -9 -10 -10 -9 -9 -9 -9 -9 -9 -9 -9 -9 -9 -9 -9 -9 -9 -10 -9 -10 -10 -10 -10 -10 -10 -10 -10 -10 -10 -11 -11 -11 -11 -11
-10 -10 -10 -10 -10 -10 -10 -10 -9 -9 -9 -10 -10 -10 -10 -10 -10 -10 -9 -9 -9 -9 -9 -9 -9 -9 -9 -9 -10 -10 -10 -10 -10 -10 -10 -11 -11 -11 -10 -11 -11 -11 -11 -11 -11
-10 -10 -10 -10 -10 -10 -10 -10 -10 -10 -10 -10 -10 -10 -10 -10 -10 -9 -9 -9 -9 -9 -9 -9 -9 -9 -10 -10 -10 -10 -10 -10 -10 -11 -11 -11 -11 -11 -11 -10 -11 -11 -11 -11 -11
-10 -10 -10 -10 -10 -10 -10 -10 -10 -10 -10 -10 -10 -10 -10 -10 -10 -9 -9 -9 -9 -9 -9 -10 -10 -10 -10 -10 -10 -10 -10 -10 -10 -11 -11 -11 -11 -10 -11 -10 -10 -11 -11 -11 -11
-10 -10 -10 -10 -10 -10 -10 -10 -10 -10 -10 -10 -10 -10 -10 -10 -10 -10 -10 -10 -10 -10 -10 -10 -10 -10 -10 -10 -10 -10 -10 -10 -11 -11 -11 -11 -11 -11 -10 -10 -10 -11 -11 -11 -11
-11 -11 -10 -10 -10 -10 -10 -10 -10 -10 -10 -10 -10 -10 -10 -10 -10 -10 -10 -10 -10 -10 -10 -10 -10 -10 -10 -10 -10 -10 -10 -11 -11 -10 -10 -10 -11 -11 -11 -10 -11 -11 -10 -10 -10
-11 -11 -11 -11 -11 -11 -11 -10 -10 -10 -10 -10 -10 -10 -10 -10 -10 -10 -10 -10 -10 -10 -10 -10 -10 -10 -10 -10 -10 -10 -10 -11 -11 -10 -10 -10 -10 -11 -11 -11 -11 -11 -11 -10 -10
-11 -12 -11 -11 -11 -11 -11 -11 -11 -11 -11 -11 -11 -11 -11 -11 -11 -11 -11 -11 -11 -11 -11 -11 -11 -11 -11 -11 -11 -11 -10 -10 -11 -11 -10 -10 -9 -10 -10 -11 -11 -11 -11 -10 -10
-12 -12 -12 -11 -11 -11 -11 -11 -11 -11 -11 -11 -11 -11 -11 -11 -11 -11 -11 -11 -11 -11 -11 -11 -11 -11 -11 -11 -10 -10 -11 -11 -11 -11 -11 -10 -10 -10 -10 -11 -11 -10 -10 -10 -11
-12 -12 -12 -12 -12 -12 -12 -11 -11 -11 -12 -11 -11 -11 -11 -11 -11 -11 -11 -11 -11 -11 -11 -11 -11 -11 -11 -11 -11 -11 -10 -10 -11 -11 -10 -11 -10 -11 -11 -12 -11 -11 -11 -11 -11
-12 -12 -12 -12 -12 -12 -12 -12 -12 -11 -11 -12 -12 -11 -11 -11 -11 -11 -11 -11 -11 -11 -11 -11 -11 -11 -11 -11 -11 -11 -11 -11 -11 -11 -11 -11 -11 -11 -12 -11 -11 -12 -12 -12 -11
-13 -13 -12 -13 -12 -12 -12 -12 -12 -12 -12 -12 -12 -11 -11 -11 -11 -11 -11 -11 -11 -11 -11 -11 -11 -12 -11 -11 -12 -12 -12 -12 -11 -12 -12 -11 -11 -12 -13 -12 -13 -12 -12 -12 -12
-13 -13 -13 -12 -12 -12 -12 -12 -12 -12 -12 -11 -11 -11 -11 -11 -12 -11 -12 -12 -11 -12 -12 -11 -12 -12 -12 -12 -12 -12 -12 -12 -12 -12 -12 -12 -11 -11 -12 -12 -13 -13 -12 -13 -13
-13 -13 -13 -13 -13 -13 -13 -12 -12 -12 -12 -11 -11 -11 -12 -12 -12 -12 -12 -12 -12 -13 -13 -12 -12 -13 -13 -13 -13 -13 -13 -13 -13 -13 -12 -13 -12 -12 -12 -13 -13 -13 -14 -14 -14
-13 -13 -13 -13 -13 -13 -13 -12 -12 -13 -11 -12 -12 -12 -12 -13 -13 -12 -13 -13 -13 -13 -13 -13 -12 -13 -13 -14 -14 -13 -14 -14 -14 -14 -13 -13 -13 -12 -13 -13 -14 -14 -14 -15 -15
-13 -13 -13 -13 -13 -13 -13 -13 -13 -12 -12 -12 -13 -13 -13 -13 -13 -13 -13 -13 -14 -13 -13 -13 -14 -14 -14 -14 -14 -15 -15 -15 -14 -14 -14 -14 -14 -13 -14 -14 -14 -14 -14 -15 -16
-13 -13 -14 -14 -14 -13 -13 -14 -13 -12 -13 -13 -14 -14 -14 -14 -14 -14 -14 -14 -14 -14 -14 -14 -15 -15 -15 -15 -15 -16 -16 -16 -16 -15 -15 -15 -14 -15 -15 -15 -15 -15 -16 -16 -17
-14 -14 -14 -14 -14 -14 -14 -14 -12 -14 -15 -14 -14 -14 -14 -15 -15 -15 -15 -15 -15 -16 -16 -16 -15 -15 -15 -15 -16 -15 -16 -16 -16 -16 -16 -15 -15 -15 -16 -16 -16 -17 -16 -16 -17
-14 -14 -14 -14 -14 -14 -14 -14 -14 -14 -15 -15 -15 -15 -15 -16 -16 -16 -16 -15 -16 -16 -16 -16 -16 -16 -16 -16 -16 -16 -16 -17 -17 -18 -17 -17 -17 -17 -17 -18 -18 -18 -18 -18 -18
-14 -14 -14 -14 -15 -14 -14 -14 -15 -15 -15 -15 -15 -15 -16 -17 -17 -16 -16 -15 -15 -16 -16 -16 -16 -16 -16 -17 -18 -18 -18 -18 -19 -19 -19 -19 -18 -18 -19 -19 -19 -19 -19 -19 -19
-14 -14 -14 -14 -15 -15 -15 -15 -16 -16 -16 -16 -16 -16 -17 -17 -16 -17 -17 -16 -16 -16 -17 -17 -17 -17 -17 -18 -18 -18 -19 -19 -19 -19 -20 -20 -20 -19 -20 -20 -20 -21 -21 -21 -21
-15 -15 -15 -15 -15 -16 -15 -16 -16 -16 -16 -16 -16 -16 -17 -18 -18 -18 -18 -18 -17 -17 -17 -18 -18 -17 -17 -19 -19 -20 -20 -20 -20 -20 -20 -21 -20 -21 -21 -22 -22 -22 -22 -22 -22
-15 -15 -15 -15 -16 -16 -16 -17 -17 -17 -17 -17 -17 -18 -18 -19 -19 -19 -18 -18 -18 -18 -18 -18 -18 -18 -18 -20 -20 -20 -20 -20 -21 -21 -22 -21 -22 -22 -23 -23 -23 -23 -23 -23 -23
-16 -16 -16 -16 -16 -17 -18 -19 -18 -17 -18 -18 -18 -19 -19 -19 -19 -19 -19 -19 -18 -19 -19 -19 -19 -19 -19 -20 -20 -20 -20 -20 -22 -23 -24 -22 -23 -22 -23 -23 -23 -23 -24 -24 -24
-18 -18 -18 -18 -18 -20 -20 -19 -18 -18 -19 -19 -19 -19 -19 -19 -19 -20 -19 -19 -20 -20 -20 -20 -20 -21 -20 -21 -21 -21 -20 -21 -22 -22 -23 -23 -23 -24 -23 -24 -24 -24 -24 -24 -24
-18 -20 -19 -19 -20 -19 -19 -19 -19 -19 -19 -19 -19 -20 -20 -20 -20 -20 -20 -21 -21 -21 -21 -21 -21 -22 -21 -22 -22 -22 -21 -23 -23 -23 -23 -23 -24 -24 -24 -24 -24 -25 -25 -25 -25

GFSSW_500_temp_030.txt.gz
Temp
-10 -9 -9 -9 -9 -9 -9 -9 -9 -9 -9 -9 -9 -9 -9 -9 -9 -9 -9 -9 -9 -9 -9 -9 -9 -9 -9 -9 -9 -9 -10 -10 -10 -10 -10 -10 -10 -10 -11 -11 -11 -11 -11 -10 -10
-10 -10 -10 -10 -10 -10 -10 -10 -10 -10 -9 -9 -9 -10 -10 -10 -10 -9 -9 -9 -9 -9 -9 -9 -9 -9 -9 -9 -9 -9 -10 -10 -10 -10 -10 -10 -10 -10 -11 -11 -11 -11 -11 -11 -11
-10 -10 -10 -10 -10 -10 -10 -10 -10 -10 -9 -9 -9 -9 -10 -10 -10 -10 -10 -10 -10 -9 -9 -9 -9 -9 -9 -9 -9 -10 -10 -10 -10 -10 -10 -10 -10 -11 -11 -11 -11 -11 -11 -11 -11
-10 -10 -10 -10 -10 -10 -10 -10 -10 -10 -10 -10 -10 -10 -10 -10 -10 -10 -10 -10 -9 -9 -9 -9 -9 -9 -10 -10 -10 -10 -10 -10 -10 -10 -10 -10 -11 -11 -11 -10 -11 -11 -11 -11 -11
-10 -10 -10 -10 -10 -10 -10 -10 -10 -10 -10 -10 -10 -10 -10 -10 -10 -10 -10 -10 -9 -9 -9 -9 -9 -10 -10 -10 -10 -10 -10 -10 -10 -11 -11 -11 -11 -11 -11 -11 -11 -11 -11 -10 -10
-10 -10 -10 -10 -10 -10 -10 -10 -10 -10 -10 -10 -10 -10 -10 -10 -10 -10 -10 -10 -10 -9 -9 -10 -10 -10 -10 -10 -10 -10 -10 -10 -10 -11 -11 -11 -11 -11 -11 -11 -11 -11 -10 -10 -10
-11 -11 -11 -10 -10 -10 -10 -10 -10 -10 -10 -10 -10 -10 -10 -10 -10 -10 -10 -10 -10 -10 -10 -10 -10 -10 -10 -10 -10 -10 -10 -11 -11 -10 -10 -10 -11 -11 -11 -11 -11 -11 -10 -10 -10
-11 -11 -11 -11 -11 -11 -11 -11 -10 -10 -10 -10 -10 -10 -10 -10 -10 -10 -10 -10 -10 -11 -10 -11 -10 -10 -10 -10 -11 -11 -10 -11 -11 -11 -11 -10 -11 -11 -11 -11 -12 -11 -10 -10 -10
-12 -12 -12 -11 -11 -11 -11 -11 -11 -11 -11 -11 -11 -11 -11 -11 -11 -11 -11 -11 -11 -11 -11 -11 -11 -11 -11 -11 -11 -11 -10 -10 -11 -11 -10 -10 -10 -11 -11 -11 -11 -11 -11 -11 -11
-12 -12 -12 -12 -12 -11 -11 -11 -11 -11 -11 -11 -11 -11 -11 -11 -11 -11 -11 -11 -11 -11 -11 -11 -11 -11 -11 -11 -10 -10 -10 -10 -10 -11 -10 -10 -10 -11 -11 -11 -10 -10 -11 -11 -11
-12 -12 -12 -12 -12 -12 -12 -12 -12 -12 -11 -11 -11 -11 -11 -11 -11 -11 -11 -11 -11 -11 -11 -10 -10 -11 -11 -10 -11 -11 -11 -11 -11 -11 -10 -11 -11 -11 -11 -11 -11 -11 -11 -11 -10
-12 -12 -12 -12 -12 -12 -12 -12 -12 -12 -11 -12 -11 -11 -11 -11 -11 -11 -11 -11 -11 -11 -11 -10 -10 -11 -11 -11 -11 -11 -11 -11 -11 -11 -11 -11 -11 -12 -12 -12 -12 -12 -12 -12 -12
-12 -12 -12 -12 -12 -12 -12 -12 -12 -12 -12 -12 -12 -11 -12 -12 -11 -11 -12 -11 -11 -11 -11 -11 -11 -11 -11 -11 -11 -12 -12 -12 -12 -12 -12 -11 -11 -12 -12 -12 -13 -13 -13 -13 -13
-13 -14 -13 -13 -13 -13 -13 -13 -13 -12 -12 -11 -12 -11 -11 -12 -11 -11 -11 -11 -11 -11 -11 -11 -12 -12 -12 -12 -12 -12 -12 -12 -12 -12 -12 -12 -11 -11 -12 -12 -12 -13 -13 -13 -13
-13 -13 -13 -13 -13 -13 -13 -13 -13 -13 -12 -12 -11 -11 -11 -12 -12 -11 -12 -12 -12 -12 -12 -12 -12 -12 -13 -12 -12 -13 -13 -13 -13 -13 -12 -12 -12 -12 -13 -13 -13 -13 -14 -14 -14
-12 -12 -13 -13 -13 -13 -13 -13 -14 -14 -12 -12 -12 -12 -12 -12 -12 -12 -12 -12 -12 -12 -12 -12 -12 -13 -13 -13 -13 -13 -14 -14 -14 -14 -13 -13 -13 -12 -13 -13 -14 -14 -14 -15 -15
-13 -13 -13 -13 -13 -13 -13 -13 -14 -13 -12 -12 -12 -13 -13 -13 -13 -13 -13 -13 -13 -13 -13 -13 -13 -13 -13 -14 -14 -14 -15 -15 -14 -14 -14 -14 -13 -13 -14 -14 -14 -15 -15 -15 -16
-13 -14 -13 -13 -13 -14 -14 -14 -13 -11 -13 -13 -13 -13 -14 -14 -14 -13 -13 -14 -13 -13 -13 -14 -14 -14 -14 -15 -15 -15 -15 -16 -15 -15 -14 -14 -14 -14 -14 -15 -16 -16 -16 -16 -17
-13 -13 -13 -14 -14 -14 -14 -14 -12 -12 -13 -14 -14 -14 -14 -14 -14 -14 -14 -14 -14 -14 -15 -15 -15 -15 -15 -16 -16 -15 -15 -16 -16 -15 -15 -14 -14 -14 -15 -15 -16 -17 -17 -17 -17
-14 -14 -14 -14 -14 -14 -14 -14 -13 -13 -14 -14 -14 -14 -14 -15 -14 -15 -15 -14 -15 -15 -15 -16 -16 -16 -16 -16 -15 -16 -16 -16 -16 -16 -15 -15 -14 -15 -16 -16 -17 -18 -18 -18 -18
-14 -14 -14 -14 -14 -14 -14 -13 -13 -14 -14 -15 -14 -15 -15 -15 -15 -15 -15 -15 -15 -16 -17 -16 -16 -16 -16 -16 -16 -16 -16 -16 -17 -17 -17 -16 -15 -16 -17 -18 -18 -19 -19 -19 -20
-14 -14 -14 -14 -14 -14 -14 -14 -14 -14 -15 -15 -15 -15 -15 -16 -15 -16 -15 -15 -15 -16 -16 -16 -16 -16 -16 -16 -17 -17 -17 -17 -18 -17 -18 -19 -16 -17 -18 -19 -19 -20 -20 -20 -20
-14 -14 -14 -14 -14 -14 -15 -15 -15 -15 -15 -16 -16 -16 -16 -16 -16 -16 -16 -16 -16 -16 -16 -17 -17 -17 -17 -18 -18 -18 -18 -18 -18 -19 -19 -20 -18 -18 -19 -20 -21 -21 -21 -21 -21
-15 -15 -15 -15 -15 -15 -15 -15 -15 -15 -15 -16 -16 -16 -17 -17 -16 -17 -17 -17 -18 -18 -18 -18 -18 -18 -18 -19 -18 -18 -18 -18 -19 -19 -19 -19 -20 -20 -21 -21 -21 -21 -22 -22 -23
-16 -16 -15 -15 -15 -15 -15 -15 -15 -16 -16 -16 -17 -17 -17 -17 -17 -18 -18 -18 -19 -19 -19 -18 -18 -18 -19 -19 -19 -19 -18 -19 -20 -20 -21 -20 -21 -21 -22 -23 -22 -23 -24 -24 -24
-16 -16 -16 -16 -15 -15 -16 -15 -16 -17 -17 -17 -18 -19 -18 -18 -18 -18 -19 -19 -19 -19 -19 -19 -20 -19 -19 -20 -20 -19 -19 -20 -20 -21 -22 -23 -23 -23 -23 -23 -23 -23 -24 -23 -24
-16 -17 -17 -16 -16 -16 -16 -16 -17 -18 -19 -19 -19 -19 -19 -19 -19 -19 -19 -19 -19 -20 -20 -20 -20 -20 -20 -21 -21 -21 -20 -21 -21 -22 -23 -23 -23 -24 -24 -24 -24 -24 -24 -24 -24

GFSSW_500_temp_033.txt.gz
Temp
-10 -10 -10 -10 -10 -10 -10 -10 -9 -9 -9 -9 -9 -10 -10 -10 -10 -10 -10 -9 -9 -9 -9 -9 -9 -9 -9 -9 -9 -9 -9 -9 -10 -10 -10 -10 -11 -11 -11 -11 -11 -11 -11 -11 -11
-10 -10 -10 -10 -10 -10 -10 -10 -10 -10 -10 -10 -9 -9 -10 -10 -10 -10 -10 -10 -10 -10 -10 -10 -10 -10 -9 -9 -9 -9 -10 -10 -10 -10 -10 -10 -10 -11 -11 -11 -11 -11 -10 -11 -11
-10 -10 -10 -10 -10 -10 -10 -10 -10 -10 -10 -10 -10 -10 -10 -10 -10 -10 -10 -10 -10 -10 -10 -10 -10 -9 -9 -9 -9 -10 -10 -10 -10 -10 -10 -10 -10 -11 -11 -11 -11 -11 -11 -10 -10
-10 -10 -10 -10 -10 -10 -10 -10 -10 -10 -10 -10 -10 -10 -10 -10 -10 -10 -10 -10 -10 -10 -10 -10 -10 -10 -9 -9 -10 -10 -10 -10 -10 -10 -10 -10 -11 -11 -11 -11 -12 -11 -11 -10 -10
-10 -10 -10 -10 -10 -10 -10 -10 -10 -10 -10 -10 -10 -10 -10 -10 -10 -10 -10 -10 -10 -10 -10 -10 -10 -10 -10 -10 -10 -10 -10 -10 -10 -10 -10 -10 -11 -11 -11 -11 -11 -11 -11 -11 -11
-10 -10 -10 -10 -10 -10 -10 -10 -10 -10 -10 -10 -10 -10 -10 -10 -10 -10 -10 -10 -10 -10 -10 -10 -10 -10 -10 -10 -10 -10 -10 -11 -11 -11 -11 -11 -11 -11 -11 -11 -11 -11 -10 -10 -11
-11 -11 -11 -11 -11 -10 -10 -10 -10 -10 -10 -10 -10 -10 -10 -10 -10 -10 -10 -10 -10 -10 -10 -10 -10 -10 -10 -10 -10 -10 -10 -10 -10 -10 -11 -11 -11 -11 -11 -11 -11 -11 -11 -11 -11
-11 -11 -11 -11 -11 -11 -11 -11 -11 -11 -10 -10 -10 -10 -10 -10 -10 -10 -10 -10 -10 -10 -10 -10 -10 -10 -10 -10 -10 -10 -10 -11 -11 -11 -11 -10 -11 -11 -11 -11 -11 -11 -11 -11 -11
-12 -12 -12 -11 -11 -11 -11 -11 -11 -11 -11 -11 -11 -11 -11 -11 -11 -11 -11 -11 -11 -10 -10 -10 -10 -10 -10 -10 -10 -10 -10 -10 -11 -10 -10 -10 -10 -12 -12 -11 -11 -11 -11 -11 -11
-12 -12 -12 -12 -12 -12 -12 -12 -11 -11 -11 -11 -11 -11 -11 -11 -11 -11 -11 -11 -11 -11 -11 -11 -10 -10 -11 -11 -10 -10 -10 -10 -10 -10 -10 -10 -10 -11 -11 -11 -11 -11 -11 -11 -11
-12 -12 -12 -12 -12 -12 -12 -12 -12 -12 -12 -12 -11 -11 -11 -11 -11 -11 -11 -11 -11 -11 -11 -11 -10 -11 -11 -10 -10 -10 -10 -10 -11 -11 -11 -11 -11 -11 -11 -11 -12 -11 -11 -11 -11
-12 -12 -12 -12 -12 -12 -12 -12 -12 -12 -12 -12 -12 -11 -11 -11 -11 -11 -12 -11 -11 -11 -11 -11 -10 -11 -11 -10 -10 -10 -11 -11 -11 -11 -10 -11 -11 -11 -12 -12 -12 -12 -12 -12 -12
-12 -12 -12 -12 -12 -12 -12 -12 -12 -12 -12 -12 -12 -11 -11 -11 -11 -11 -11 -11 -11 -11 -11 -11 -11 -11 -11 -11 -11 -11 -11 -11 -11 -11 -11 -11 -11 -12 -12 -12 -12 -12 -13 -13 -13
-12 -13 -13 -12 -12 -13 -13 -13 -13 -13 -12 -11 -12 -11 -11 -12 -11 -11 -12 -11 -11 -11 -11 -10 -11 -11 -11 -11 -11 -11 -12 -12 -12 -12 -12 -11 -11 -12 -12 -13 -13 -13 -13 -13 -13
-13 -13 -14 -13 -12 -13 -14 -14 -14 -14 -12 -11 -11 -11 -11 -12 -12 -11 -11 -11 -11 -11 -11 -11 -11 -12 -12 -12 -12 -12 -12 -12 -12 -12 -11 -12 -12 -11 -12 -13 -13 -13 -13 -13 -13
-13 -13 -13 -13 -12 -13 -14 -13 -14 -14 -12 -11 -11 -12 -12 -12 -12 -12 -12 -12 -12 -12 -12 -12 -12 -13 -13 -13 -13 -13 -13 -13 -12 -12 -11 -12 -13 -11 -12 -13 -13 -14 -14 -14 -14
-13 -13 -13 -13 -13 -14 -13 -14 -15 -13 -11 -11 -12 -12 -12 -12 -12 -12 -12 -12 -12 -12 -12 -13 -13 -13 -13 -13 -13 -13 -14 -14 -13 -13 -13 -13 -13 -12 -13 -13 -14 -14 -14 -14 -14
-13 -13 -13 -13 -14 -14 -14 -15 -15 -11 -12 -12 -13 -13 -13 -13 -13 -13 -13 -13 -13 -13 -13 -13 -13 -14 -14 -14 -14 -13 -14 -15 -14 -14 -14 -13 -12 -12 -14 -14 -14 -14 -14 -14 -15
-14 -13 -13 -13 -13 -14 -14 -15 -12 -12 -12 -13 -13 -13 -13 -14 -14 -14 -13 -13 -13 -13 -14 -14 -14 -14 -14 -14 -15 -14 -14 -15 -15 -15 -15 -14 -13 -14 -14 -15 -15 -15 -15 -15 -15
-14 -14 -13 -13 -14 -14 -14 -14 -12 -12 -12 -13 -13 -13 -13 -14 -14 -14 -14 -13 -14 -14 -14 -14 -14 -14 -15 -15 -16 -16 -16 -16 -16 -16 -16 -14 -14 -15 -15 -15 -15 -16 -17 -16 -16
-14 -14 -13 -14 -14 -14 -14 -14 -12 -12 -13 -13 -13 -14 -13 -14 -14 -14 -14 -14 -14 -15 -15 -14 -15 -15 -15 -16 -17 -17 -16 -16 -17 -16 -16 -15 -14 -15 -15 -16 -16 -16 -17 -18 -18
-14 -14 -13 -14 -14 -14 -14 -13 -13 -12 -13 -14 -14 -15 -15 -15 -14 -15 -14 -15 -15 -15 -16 -16 -15 -15 -15 -16 -17 -17 -16 -17 -17 -16 -17 -17 -15 -16 -16 -17 -17 -17 -18 -19 -19
-14 -14 -14 -14 -14 -14 -14 -14 -14 -13 -13 -14 -14 -15 -15 -15 -15 -15 -15 -15 -15 -15 -16 -17 -16 -16 -16 -16 -17 -17 -17 -17 -17 -18 -17 -18 -16 -17 -18 -18 -19 -19 -19 -20 -20
-15 -15 -14 -14 -14 -14 -14 -14 -14 -14 -14 -14 -15 -15 -15 -15 -15 -15 -15 -16 -16 -16 -16 -17 -17 -17 -16 -17 -17 -17 -17 -18 -18 -18 -18 -18 -18 -18 -19 -19 -20 -20 -21 -21 -21
-15 -15 -15 -15 -14 -14 -14 -14 -14 -15 -15 -15 -15 -15 -15 -16 -16 -16 -16 -17 -17 -17 -17 -17 -17 -17 -17 -18 -18 -18 -18 -18 -18 -19 -19 -18 -19 -19 -21 -21 -21 -21 -21 -21 -22
-16 -16 -15 -15 -15 -15 -15 -15 -15 -15 -15 -15 -16 -16 -16 -16 -16 -17 -17 -18 -18 -18 -18 -18 -18 -18 -18 -19 -19 -19 -18 -18 -19 -19 -20 -20 -20 -21 -21 -22 -22 -23 -23 -23 -24
-17 -17 -16 -16 -16 -16 -15 -15 -16 -16 -16 -16 -16 -17 -17 -17 -17 -18 -18 -18 -19 -18 -18 -19 -19 -19 -19 -19 -19 -19 -18 -19 -20 -20 -21 -21 -21 -22 -23 -23 -23 -23 -24 -24 -24

GFSSW_500_temp_036.txt.gz
Temp
-10 -10 -10 -10 -10 -10 -9 -9 -10 -10 -10 -10 -10 -10 -10 -10 -10 -10 -10 -10 -10 -10 -10 -10 -10 -10 -10 -10 -10 -10 -10 -9 -10 -10 -10 -10 -10 -11 -11 -11 -11 -11 -11 -11 -11
-10 -10 -10 -10 -10 -10 -10 -10 -10 -10 -10 -10 -10 -10 -10 -10 -10 -10 -10 -10 -10 -10 -10 -10 -10 -10 -10 -10 -10 -10 -10 -9 -10 -10 -10 -10 -10 -11 -11 -11 -11 -11 -11 -11 -11
-10 -10 -10 -10 -10 -10 -10 -10 -10 -10 -10 -10 -10 -10 -10 -10 -10 -10 -10 -10 -10 -10 -10 -10 -10 -10 -10 -10 -10 -10 -10 -10 -10 -10 -10 -10 -11 -11 -11 -11 -11 -11 -10 -10 -10
-10 -10 -10 -10 -10 -10 -10 -10 -10 -10 -10 -10 -10 -10 -10 -10 -10 -10 -10 -10 -10 -10 -10 -10 -10 -10 -10 -10 -10 -10 -10 -10 -10 -10 -10 -11 -11 -11 -11 -11 -11 -11 -11 -10 -10
-11 -10 -10 -10 -10 -10 -10 -10 -10 -10 -10 -10 -10 -10 -10 -10 -10 -10 -10 -10 -10 -10 -10 -10 -10 -10 -10 -10 -10 -10 -10 -10 -10 -10 -10 -10 -10 -11 -11 -11 -11 -11 -11 -11 -11
-11 -11 -11 -10 -10 -10 -10 -10 -10 -10 -10 -10 -10 -10 -10 -10 -10 -10 -10 -10 -10 -10 -10 -10 -10 -10 -10 -10 -10 -10 -10 -11 -11 -11 -11 -11 -11 -11 -11 -11 -11 -11 -11 -11 -11
-11 -11 -11 -11 -10 -10 -10 -10 -10 -10 -10 -10 -10 -10 -10 -10 -10 -10 -10 -10 -10 -10 -10 -10 -10 -10 -10 -10 -10 -10 -10 -10 -10 -11 -11 -11 -11 -11 -11 -11 -11 -10 -11 -11 -11
-11 -11 -11 -11 -11 -11 -11 -11 -11 -11 -11 -11 -10 -10 -10 -10 -10 -10 -10 -10 -10 -10 -10 -10 -10 -10 -10 -10 -10 -10 -10 -11 -11 -10 -10 -10 -11 -11 -11 -10 -10 -11 -11 -11 -11
-12 -12 -12 -11 -11 -11 -11 -11 -11 -11 -11 -11 -11 -11 -11 -11 -11 -10 -10 -10 -10 -10 -10 -11 -11 -10 -11 -11 -10 -10 -10 -10 -11 -10 -10 -10 -11 -11 -10 -10 -10 -11 -11 -11 -11
-12 -12 -12 -12 -12 -12 -11 -11 -11 -11 -11 -11 -11 -11 -11 -11 -11 -11 -11 -11 -11 -11 -11 -11 -11 -10 -11 -11 -10 -10 -10 -10 -11 -10 -10 -10 -10 -11 -10 -10 -10 -11 -11 -10 -11
-12 -12 -12 -12 -12 -12 -12 -12 -12 -12 -12 -12 -11 -11 -11 -11 -11 -11 -11 -11 -11 -11 -11 -11 -10 -11 -11 -11 -10 -10 -10 -10 -11 -11 -10 -10 -10 -11 -11 -11 -11 -11 -11 -11 -11
-12 -12 -13 -12 -12 -12 -12 -12 -12 -12 -11 -12 -11 -11 -11 -11 -11 -11 -11 -11 -11 -11 -11 -11 -11 -11 -11 -11 -10 -10 -10 -11 -11 -11 -10 -10 -11 -11 -11 -11 -11 -12 -12 -12 -12
-13 -13 -13 -13 -12 -12 -12 -13 -13 -12 -12 -11 -11 -11 -11 -11 -11 -11 -12 -11 -11 -11 -11 -11 -11 -11 -11 -11 -11 -11 -11 -11 -11 -11 -11 -11 -11 -11 -11 -11 -12 -12 -12 -12 -12
-13 -13 -13 -12 -12 -13 -13 -14 -14 -14 -12 -11 -12 -11 -11 -12 -11 -12 -12 -12 -11 -11 -11 -11 -11 -11 -11 -11 -11 -11 -11 -11 -11 -11 -11 -11 -10 -11 -12 -12 -12 -12 -13 -13 -13
-13 -13 -13 -13 -12 -13 -14 -14 -14 -13 -12 -11 -10 -11 -11 -12 -12 -12 -12 -12 -11 -11 -11 -10 -11 -11 -11 -11 -11 -11 -12 -12 -12 -12 -11 -11 -11 -10 -11 -12 -13 -13 -13 -13 -13
-13 -14 -13 -13 -13 -14 -14 -14 -14 -14 -11 -11 -11 -11 -12 -12 -12 -12 -12 -12 -12 -11 -11 -11 -11 -11 -11 -11 -12 -12 -12 -12 -12 -12 -11 -12 -12 -10 -11 -12 -13 -13 -14 -14 -13
-13 -13 -13 -13 -14 -14 -15 -15 -15 -12 -11 -11 -11 -12 -13 -13 -13 -13 -13 -13 -12 -12 -11 -12 -12 -12 -12 -12 -12 -12 -13 -13 -13 -13 -12 -12 -11 -11 -12 -13 -14 -14 -14 -15 -14
-13 -13 -13 -13 -13 -14 -14 -15 -15 -10 -11 -11 -12 -13 -12 -13 -13 -13 -13 -13 -12 -12 -12 -12 -12 -13 -13 -13 -13 -13 -13 -13 -13 -13 -12 -12 -11 -12 -13 -13 -14 -15 -15 -15 -15
-14 -14 -14 -13 -13 -14 -14 -15 -11 -11 -12 -13 -13 -12 -12 -13 -14 -13 -12 -13 -13 -13 -13 -13 -13 -13 -14 -14 -14 -13 -13 -14 -13 -13 -13 -12 -12 -13 -14 -14 -15 -15 -15 -15 -15
-14 -14 -14 -14 -14 -14 -14 -14 -12 -12 -13 -12 -12 -13 -13 -14 -14 -13 -13 -12 -13 -13 -14 -14 -14 -14 -14 -14 -14 -14 -14 -14 -14 -14 -13 -13 -13 -13 -14 -15 -16 -16 -15 -16 -16
-14 -14 -14 -14 -14 -14 -14 -13 -13 -13 -14 -13 -13 -13 -13 -13 -14 -13 -13 -13 -14 -15 -15 -15 -15 -14 -14 -14 -15 -15 -15 -15 -16 -15 -15 -14 -13 -14 -15 -16 -16 -17 -17 -16 -17
-14 -14 -14 -14 -14 -14 -14 -13 -13 -13 -13 -13 -13 -13 -14 -14 -14 -14 -13 -14 -14 -15 -15 -15 -15 -14 -14 -14 -15 -15 -15 -16 -16 -16 -17 -17 -13 -15 -16 -16 -17 -17 -17 -17 -17
-15 -14 -14 -14 -14 -14 -14 -14 -14 -14 -13 -13 -13 -13 -14 -14 -15 -14 -14 -15 -15 -15 -15 -15 -15 -15 -15 -14 -14 -15 -16 -17 -17 -17 -16 -18 -15 -16 -17 -17 -18 -18 -18 -18 -19
-16 -15 -15 -15 -14 -14 -14 -14 -14 -14 -14 -13 -13 -14 -14 -15 -15 -14 -15 -15 -15 -15 -15 -15 -15 -15 -15 -15 -15 -16 -16 -17 -17 -17 -17 -17 -17 -17 -18 -18 -19 -19 -19 -19 -20
-17 -16 -16 -15 -15 -15 -15 -14 -14 -14 -14 -14 -13 -14 -14 -14 -15 -15 -15 -15 -15 -15 -16 -16 -16 -16 -16 -16 -16 -16 -17 -17 -17 -17 -18 -17 -17 -18 -19 -20 -20 -20 -20 -20 -20
-17 -16 -16 -16 -16 -16 -15 -14 -15 -15 -15 -15 -15 -14 -15 -15 -15 -15 -15 -15 -16 -16 -16 -16 -17 -17 -17 -17 -17 -17 -17 -17 -17 -17 -18 -19 -18 -19 -20 -20 -20 -20 -20 -21 -21
-17 -17 -17 -17 -16 -16 -16 -15 -15 -15 -15 -15 -15 -15 -15 -15 -15 -16 -16 -16 -17 -17 -17 -17 -17 -17 -17 -18 -18 -18 -16 -18 -18 -18 -19 -19 -19 -20 -20 -20 -20 -21 -22 -22 -23

GFSSW_500_temp_042.txt.gz
Temp
-10 -10 -10 -10 -10 -10 -10 -10 -10 -10 -10 -10 -10 -10 -10 -10 -10 -10 -10 -10 -10 -10 -10 -10 -10 -10 -10 -10 -10 -10 -10 -10 -10 -10 -10 -10 -10 -10 -10 -10 -11 -11 -11 -11 -11
-10 -10 -10 -10 -10 -10 -10 -10 -10 -10 -10 -10 -10 -10 -10 -10 -10 -10 -10 -10 -10 -10 -10 -10 -10 -10 -10 -10 -10 -10 -10 -10 -10 -10 -10 -10 -10 -10 -10 -10 -11 -11 -11 -11 -11
-11 -11 -10 -10 -10 -10 -10 -10 -10 -10 -10 -10 -10 -10 -10 -10 -10 -10 -10 -10 -10 -10 -10 -10 -10 -10 -10 -10 -10 -10 -10 -10 -10 -10 -10 -10 -10 -10 -10 -10 -10 -11 -11 -11 -11
-11 -11 -11 -11 -10 -10 -10 -10 -10 -10 -10 -10 -10 -10 -10 -10 -10 -10 -10 -10 -10 -10 -10 -10 -10 -10 -10 -10 -10 -10 -10 -10 -10 -10 -10 -10 -10 -10 -10 -10 -10 -10 -11 -11 -11
-11 -11 -11 -11 -11 -11 -11 -10 -10 -10 -10 -10 -10 -10 -10 -10 -10 -10 -10 -10 -10 -10 -10 -10 -10 -10 -10 -10 -10 -10 -10 -10 -10 -10 -10 -10 -10 -10 -10 -10 -10 -11 -11 -11 -11
-12 -11 -11 -11 -11 -11 -11 -11 -11 -10 -10 -10 -10 -10 -10 -10 -10 -10 -10 -10 -10 -10 -10 -10 -10 -10 -10 -10 -10 -10 -10 -10 -10 -10 -11 -11 -10 -10 -10 -10 -10 -10 -10 -10 -10
-12 -12 -12 -11 -11 -11 -11 -11 -11 -11 -11 -10 -10 -10 -10 -10 -10 -10 -10 -10 -10 -10 -10 -10 -10 -10 -10 -10 -10 -10 -10 -10 -10 -10 -11 -10 -10 -10 -10 -10 -10 -10 -10 -10 -10
-12 -12 -12 -12 -12 -11 -11 -11 -11 -11 -11 -11 -11 -10 -10 -10 -10 -10 -10 -10 -10 -10 -10 -10 -10 -10 -10 -10 -10 -10 -11 -11 -11 -11 -11 -11 -10 -10 -10 -10 -10 -10 -10 -10 -10
-12 -12 -12 -12 -12 -12 -12 -11 -11 -11 -11 -11 -11 -10 -10 -11 -11 -10 -10 -10 -10 -10 -10 -10 -10 -10 -10 -10 -11 -11 -11 -11 -11 -11 -11 -11 -10 -10 -10 -10 -10 -10 -10 -10 -10
-12 -12 -12 -12 -12 -12 -12 -11 -11 -11 -11 -11 -11 -11 -10 -11 -11 -11 -11 -11 -11 -11 -11 -11 -11 -11 -11 -11 -11 -10 -11 -11 -11 -11 -11 -11 -11 -10 -10 -10 -10 -10 -10 -10 -10
-13 -13 -12 -12 -12 -12 -12 -12 -12 -11 -11 -11 -11 -11 -11 -11 -11 -11 -11 -11 -11 -11 -11 -11 -11 -11 -12 -11 -11 -11 -11 -11 -11 -11 -11 -11 -11 -10 -10 -10 -10 -10 -10 -10 -10
-13 -13 -12 -12 -13 -13 -12 -12 -12 -12 -11 -11 -11 -11 -11 -11 -11 -12 -11 -11 -11 -11 -12 -11 -11 -12 -11 -11 -11 -11 -11 -11 -11 -11 -10 -10 -10 -11 -11 -11 -10 -10 -10 -10 -11
-13 -13 -13 -13 -13 -12 -13 -13 -13 -13 -12 -12 -12 -12 -12 -12 -12 -12 -12 -12 -12 -11 -12 -11 -11 -12 -12 -12 -11 -11 -11 -11 -11 -11 -11 -10 -10 -10 -10 -10 -11 -11 -11 -11 -11
-13 -13 -13 -13 -13 -13 -13 -14 -14 -13 -13 -11 -12 -11 -11 -12 -11 -12 -12 -12 -12 -12 -12 -12 -12 -12 -12 -12 -12 -12 -12 -12 -11 -11 -11 -10 -9 -9 -10 -10 -11 -11 -11 -11 -12
-14 -13 -13 -13 -13 -13 -14 -15 -15 -15 -13 -12 -11 -11 -12 -12 -11 -12 -12 -12 -12 -12 -12 -12 -12 -12 -12 -12 -12 -12 -12 -12 -12 -11 -11 -10 -10 -9 -11 -11 -11 -11 -12 -12 -12
-14 -14 -13 -13 -12 -13 -15 -15 -15 -15 -11 -11 -11 -11 -11 -12 -12 -12 -12 -13 -13 -12 -12 -12 -13 -13 -12 -13 -13 -12 -12 -12 -12 -11 -10 -10 -11 -9 -11 -12 -12 -12 -12 -12 -12
-14 -14 -14 -13 -13 -13 -15 -15 -16 -13 -11 -10 -10 -11 -11 -12 -12 -12 -13 -13 -13 -13 -13 -13 -13 -13 -13 -13 -13 -13 -13 -12 -12 -11 -10 -11 -11 -10 -11 -12 -12 -12 -13 -13 -13
-15 -14 -14 -14 -14 -14 -14 -15 -14 -10 -11 -11 -11 -11 -11 -12 -12 -13 -13 -13 -13 -13 -14 -13 -13 -13 -13 -14 -13 -13 -13 -13 -12 -12 -11 -11 -11 -11 -11 -12 -12 -13 -13 -13 -13
-15 -15 -14 -14 -14 -14 -15 -16 -12 -11 -12 -12 -13 -12 -12 -12 -12 -13 -13 -13 -14 -14 -14 -14 -13 -13 -13 -13 -14 -13 -12 -13 -13 -13 -12 -11 -11 -11 -11 -12 -12 -13 -13 -13 -13
-15 -15 -15 -14 -14 -14 -15 -15 -12 -13 -13 -13 -13 -13 -13 -13 -13 -13 -13 -12 -14 -15 -15 -14 -13 -13 -13 -13 -13 -13 -14 -14 -13 -13 -12 -11 -11 -11 -12 -12 -13 -13 -14 -14 -14
-15 -15 -15 -15 -15 -15 -15 -13 -13 -14 -14 -14 -14 -14 -13 -13 -14 -14 -13 -13 -14 -15 -15 -15 -14 -13 -13 -13 -13 -13 -13 -14 -14 -13 -13 -12 -11 -12 -12 -13 -13 -14 -14 -14 -14
-16 -16 -15 -15 -15 -15 -15 -13 -13 -14 -14 -14 -14 -14 -13 -13 -14 -14 -13 -14 -15 -15 -15 -15 -15 -14 -14 -13 -13 -14 -13 -14 -13 -13 -13 -13 -12 -13 -13 -13 -13 -14 -15 -15 -16
-16 -16 -16 -15 -15 -15 -15 -14 -14 -14 -14 -14 -14 -14 -14 -14 -14 -14 -14 -14 -15 -15 -15 -15 -14 -15 -14 -13 -13 -12 -13 -13 -14 -14 -13 -14 -12 -13 -13 -14 -14 -15 -16 -16 -16
-18 -16 -16 -16 -15 -16 -15 -15 -15 -14 -14 -14 -14 -15 -14 -14 -14 -13 -13 -14 -15 -15 -15 -15 -15 -14 -13 -14 -14 -14 -14 -14 -15 -14 -13 -12 -13 -14 -14 -15 -16 -16 -16 -16 -17
-17 -17 -16 -16 -16 -16 -15 -15 -15 -15 -15 -15 -15 -14 -14 -15 -14 -13 -14 -15 -15 -15 -14 -15 -14 -15 -14 -14 -14 -14 -14 -15 -15 -14 -15 -13 -14 -15 -16 -16 -16 -16 -17 -17 -17
-17 -16 -17 -17 -17 -16 -16 -16 -16 -16 -16 -15 -15 -14 -15 -14 -14 -14 -15 -15 -15 -15 -15 -15 -14 -15 -14 -14 -15 -15 -14 -14 -14 -14 -15 -15 -14 -15 -16 -16 -17 -17 -17 -17 -17
-19 -18 -17 -17 -17 -17 -17 -16 -16 -17 -16 -15 -15 -15 -15 -15 -15 -15 -15 -15 -15 -15 -15 -15 -15 -15 -14 -15 -15 -15 -12 -15 -14 -15 -15 -16 -15 -16 -16 -17 -17 -17 -17 -18 -18

GFSSW_500_temp_045.txt.gz
Temp
-10 -10 -10 -10 -10 -10 -10 -10 -10 -10 -10 -10 -10 -10 -10 -10 -10 -10 -10 -10 -10 -10 -10 -10 -10 -10 -10 -10 -10 -10 -10 -10 -10 -10 -10 -10 -10 -10 -10 -10 -10 -11 -11 -11 -11
-10 -10 -10 -10 -10 -10 -10 -10 -10 -10 -10 -10 -10 -10 -10 -10 -10 -10 -10 -10 -10 -10 -10 -10 -10 -10 -10 -10 -10 -10 -10 -10 -10 -10 -10 -10 -10 -10 -10 -10 -11 -11 -11 -11 -11
-11 -10 -10 -10 -10 -10 -10 -10 -10 -10 -10 -10 -10 -10 -10 -10 -10 -10 -10 -10 -10 -10 -10 -10 -10 -10 -10 -10 -10 -10 -10 -10 -10 -10 -10 -10 -10 -10 -10 -10 -11 -10 -11 -11 -11
-11 -11 -11 -11 -10 -10 -10 -10 -10 -10 -10 -10 -10 -10 -10 -10 -10 -10 -10 -10 -10 -10 -10 -10 -10 -10 -10 -10 -10 -10 -10 -10 -10 -10 -10 -10 -10 -10 -10 -10 -10 -10 -11 -11 -11
-11 -11 -11 -11 -11 -11 -11 -11 -10 -10 -10 -10 -10 -10 -10 -10 -10 -10 -10 -10 -10 -10 -10 -10 -10 -10 -10 -10 -10 -10 -10 -10 -10 -10 -10 -10 -10 -10 -10 -10 -10 -10 -11 -11 -11
-12 -12 -11 -11 -11 -11 -11 -11 -11 -11 -10 -11 -10 -10 -10 -10 -10 -10 -10 -10 -10 -10 -10 -10 -10 -10 -10 -10 -10 -10 -10 -10 -10 -10 -10 -11 -10 -10 -10 -10 -10 -10 -10 -11 -11
-12 -12 -12 -12 -11 -11 -11 -11 -11 -11 -11 -11 -11 -11 -10 -10 -10 -10 -10 -10 -10 -10 -10 -10 -10 -10 -10 -10 -10 -10 -10 -10 -10 -10 -10 -11 -10 -10 -10 -10 -10 -10 -10 -10 -10
-12 -12 -12 -12 -12 -12 -11 -11 -11 -11 -11 -11 -11 -11 -10 -11 -10 -10 -10 -10 -10 -10 -10 -10 -10 -10 -10 -10 -10 -10 -10 -11 -10 -10 -11 -11 -11 -11 -10 -10 -10 -10 -10 -10 -10
-13 -12 -12 -12 -12 -12 -12 -12 -11 -11 -11 -11 -11 -11 -11 -11 -11 -11 -10 -10 -10 -10 -10 -10 -10 -10 -10 -10 -10 -11 -11 -11 -10 -11 -11 -11 -11 -11 -10 -10 -10 -10 -10 -11 -11
-13 -13 -12 -12 -12 -12 -12 -12 -12 -11 -11 -11 -11 -11 -10 -11 -11 -11 -11 -11 -11 -11 -11 -11 -10 -11 -11 -11 -11 -11 -11 -11 -11 -11 -11 -11 -11 -11 -10 -10 -10 -10 -11 -11 -11
-13 -13 -13 -12 -12 -12 -12 -12 -12 -12 -12 -12 -11 -11 -11 -11 -11 -11 -11 -11 -11 -11 -11 -11 -11 -11 -12 -11 -11 -11 -11 -11 -12 -12 -11 -11 -11 -10 -10 -10 -10 -10 -10 -10 -10
-14 -13 -13 -13 -12 -12 -12 -12 -12 -12 -12 -12 -11 -11 -11 -11 -11 -11 -11 -11 -11 -11 -11 -11 -11 -12 -12 -12 -12 -12 -11 -12 -12 -11 -11 -11 -10 -11 -10 -11 -10 -10 -10 -10 -10
-14 -14 -13 -13 -13 -12 -12 -13 -13 -13 -12 -12 -11 -11 -11 -11 -11 -11 -11 -11 -11 -11 -12 -12 -11 -12 -12 -12 -12 -12 -12 -12 -12 -11 -11 -11 -10 -10 -11 -10 -11 -10 -10 -10 -10
-14 -14 -14 -14 -13 -13 -13 -14 -14 -14 -13 -11 -11 -11 -11 -11 -11 -11 -12 -12 -12 -12 -12 -12 -11 -12 -12 -12 -13 -12 -12 -12 -12 -12 -12 -11 -9 -10 -10 -11 -11 -10 -10 -10 -10
-14 -15 -14 -13 -14 -13 -13 -15 -15 -15 -14 -12 -11 -11 -11 -12 -12 -11 -12 -12 -12 -12 -12 -11 -11 -12 -12 -12 -13 -13 -12 -12 -12 -12 -12 -11 -10 -9 -10 -10 -11 -11 -11 -11 -11
-15 -14 -14 -14 -13 -13 -14 -15 -15 -16 -12 -11 -10 -10 -11 -12 -12 -12 -12 -12 -12 -12 -12 -12 -12 -12 -13 -13 -13 -13 -13 -13 -13 -12 -11 -11 -11 -9 -10 -11 -11 -11 -11 -11 -11
-15 -15 -15 -14 -14 -14 -14 -14 -15 -14 -10 -10 -10 -11 -11 -11 -12 -12 -12 -12 -13 -13 -13 -13 -13 -13 -13 -13 -13 -13 -14 -14 -13 -12 -11 -11 -11 -10 -10 -11 -11 -12 -12 -12 -12
-16 -16 -15 -14 -14 -14 -14 -14 -14 -10 -11 -10 -11 -11 -11 -12 -12 -12 -12 -14 -14 -13 -14 -14 -14 -13 -14 -14 -14 -14 -14 -13 -13 -13 -12 -11 -11 -10 -11 -11 -12 -12 -12 -12 -12
-17 -17 -16 -14 -15 -14 -14 -14 -12 -10 -12 -12 -12 -12 -11 -12 -11 -13 -13 -14 -14 -14 -14 -14 -14 -14 -14 -14 -14 -13 -13 -15 -14 -13 -12 -11 -11 -11 -11 -12 -12 -12 -13 -13 -13
-16 -16 -17 -16 -15 -15 -15 -14 -12 -12 -13 -13 -13 -13 -13 -13 -13 -13 -14 -13 -13 -14 -15 -14 -14 -14 -14 -14 -14 -13 -13 -14 -14 -13 -13 -12 -11 -11 -11 -11 -12 -12 -13 -13 -13
-17 -16 -16 -16 -15 -15 -15 -13 -12 -13 -13 -14 -12 -14 -14 -14 -14 -14 -14 -13 -14 -15 -15 -15 -14 -13 -13 -12 -14 -14 -14 -14 -14 -14 -13 -12 -11 -11 -11 -11 -12 -12 -12 -13 -13
-17 -17 -16 -16 -15 -15 -15 -12 -14 -14 -14 -14 -14 -14 -13 -15 -14 -14 -14 -14 -15 -15 -15 -15 -15 -13 -13 -13 -14 -13 -13 -14 -14 -13 -13 -13 -10 -11 -11 -11 -11 -12 -13 -13 -14
-17 -17 -16 -16 -16 -16 -15 -14 -15 -15 -15 -14 -14 -14 -15 -15 -15 -14 -14 -14 -15 -15 -15 -15 -15 -14 -14 -12 -12 -13 -14 -14 -14 -14 -12 -13 -10 -12 -12 -12 -13 -13 -14 -14 -14
-18 -17 -16 -16 -16 -16 -16 -15 -15 -14 -15 -15 -14 -16 -15 -15 -15 -14 -14 -14 -15 -15 -15 -15 -15 -14 -13 -14 -14 -14 -14 -15 -15 -14 -11 -12 -12 -13 -13 -13 -14 -14 -14 -14 -14
-19 -17 -17 -17 -17 -16 -17 -16 -15 -15 -15 -15 -15 -15 -15 -15 -15 -14 -14 -15 -15 -15 -15 -15 -14 -14 -14 -14 -15 -14 -14 -14 -14 -12 -14 -10 -13 -14 -14 -14 -14 -14 -14 -14 -15
-20 -19 -18 -17 -17 -17 -17 -17 -16 -16 -16 -15 -15 -15 -16 -15 -14 -14 -15 -15 -15 -15 -15 -15 -14 -15 -14 -14 -15 -15 -14 -13 -13 -13 -13 -12 -12 -15 -14 -15 -15 -15 -15 -15 -15
-20 -20 -19 -18 -18 -18 -18 -17 -17 -17 -16 -16 -15 -16 -16 -15 -15 -15 -15 -15 -15 -15 -15 -15 -15 -15 -14 -15 -15 -15 -11 -14 -14 -13 -14 -14 -13 -15 -15 -15 -15 -16 -16 -16 -16

GFSSW_500_temp_048.txt.gz
Temp
-10 -9 -9 -9 -9 -9 -9 -10 -10 -10 -10 -10 -10 -10 -10 -10 -10 -10 -10 -10 -10 -10 -10 -10 -10 -10 -10 -10 -10 -10 -10 -10 -10 -10 -10 -10 -10 -10 -10 -10 -10 -10 -10 -11 -11
-10 -10 -10 -10 -10 -10 -10 -10 -10 -10 -10 -10 -10 -10 -10 -10 -10 -10 -10 -10 -10 -10 -10 -10 -10 -10 -10 -10 -10 -10 -10 -10 -10 -10 -10 -10 -10 -10 -10 -10 -10 -11 -10 -10 -10
-10 -10 -10 -10 -10 -10 -10 -10 -10 -10 -10 -10 -10 -10 -10 -10 -10 -10 -10 -10 -10 -10 -10 -10 -10 -10 -10 -10 -10 -10 -10 -10 -10 -10 -10 -10 -10 -10 -10 -10 -11 -11 -10 -11 -11
-11 -10 -10 -10 -10 -10 -10 -10 -10 -10 -10 -10 -10 -10 -10 -10 -10 -10 -10 -10 -10 -10 -10 -10 -10 -10 -10 -10 -10 -10 -10 -10 -10 -10 -10 -10 -10 -10 -10 -10 -10 -11 -11 -11 -11
-11 -11 -11 -11 -11 -11 -10 -10 -10 -10 -10 -10 -10 -10 -10 -10 -10 -10 -10 -10 -10 -10 -10 -10 -10 -10 -10 -10 -10 -10 -10 -10 -10 -10 -10 -10 -10 -10 -10 -11 -10 -10 -11 -11 -11
-12 -12 -11 -11 -11 -11 -11 -11 -11 -10 -10 -10 -10 -10 -10 -10 -10 -10 -10 -10 -10 -10 -10 -10 -10 -10 -10 -10 -10 -10 -10 -10 -10 -10 -10 -10 -10 -10 -10 -11 -10 -10 -10 -11 -11
-12 -12 -12 -11 -11 -11 -11 -11 -11 -11 -11 -11 -11 -10 -10 -10 -10 -10 -10 -10 -10 -10 -10 -10 -10 -10 -10 -10 -10 -10 -10 -10 -10 -10 -10 -10 -10 -11 -10 -11 -10 -10 -10 -10 -10
-12 -12 -12 -12 -12 -11 -11 -11 -11 -11 -11 -11 -11 -11 -10 -11 -11 -10 -10 -10 -10 -10 -10 -10 -10 -10 -10 -10 -10 -10 -10 -10 -10 -10 -10 -10 -10 -10 -11 -10 -10 -10 -10 -10 -10
-13 -12 -12 -12 -12 -12 -12 -12 -11 -11 -11 -11 -11 -11 -11 -11 -11 -11 -11 -10 -10 -10 -10 -10 -10 -10 -10 -10 -10 -11 -11 -10 -10 -10 -10 -11 -10 -10 -11 -10 -10 -10 -10 -10 -10
-13 -13 -13 -12 -12 -12 -12 -12 -12 -12 -12 -11 -11 -11 -11 -11 -11 -11 -11 -11 -10 -10 -10 -10 -10 -10 -11 -11 -11 -11 -11 -11 -11 -11 -11 -11 -11 -10 -10 -10 -10 -10 -10 -10 -10
-14 -13 -13 -13 -13 -12 -12 -12 -12 -12 -12 -12 -11 -11 -11 -11 -11 -11 -11 -11 -11 -11 -11 -11 -10 -10 -11 -11 -11 -11 -11 -11 -12 -11 -11 -11 -11 -11 -10 -10 -10 -10 -10 -10 -10
-15 -14 -14 -13 -13 -13 -12 -12 -12 -12 -12 -12 -12 -11 -11 -11 -11 -11 -11 -11 -11 -11 -11 -10 -10 -11 -11 -11 -11 -12 -12 -12 -12 -12 -11 -11 -10 -10 -10 -10 -11 -10 -10 -11 -11
-15 -15 -15 -14 -13 -13 -13 -13 -13 -13 -12 -11 -11 -11 -11 -11 -11 -11 -11 -11 -11 -11 -11 -11 -11 -11 -11 -11 -12 -12 -12 -12 -12 -12 -11 -11 -10 -10 -10 -10 -10 -11 -11 -10 -11
-15 -15 -15 -15 -14 -14 -14 -14 -14 -14 -13 -11 -11 -11 -11 -11 -11 -11 -11 -11 -11 -11 -12 -11 -11 -11 -12 -12 -12 -12 -12 -12 -12 -12 -12 -11 -10 -10 -10 -11 -10 -11 -11 -10 -11
-15 -15 -15 -15 -15 -14 -14 -15 -14 -14 -14 -12 -11 -11 -11 -12 -11 -11 -11 -11 -11 -12 -12 -11 -12 -12 -12 -12 -13 -12 -13 -13 -13 -13 -12 -11 -10 -9 -10 -10 -10 -11 -11 -11 -11
-16 -15 -15 -15 -15 -15 -15 -16 -16 -16 -13 -12 -11 -11 -11 -11 -12 -11 -11 -12 -12 -12 -12 -12 -12 -12 -12 -12 -13 -13 -13 -13 -13 -13 -11 -11 -12 -9 -10 -10 -10 -11 -11 -10 -10
-17 -16 -15 -15 -15 -15 -15 -15 -15 -15 -12 -11 -11 -11 -12 -12 -11 -12 -12 -12 -12 -12 -12 -12 -12 -12 -13 -13 -13 -13 -13 -13 -13 -13 -11 -12 -11 -9 -10 -11 -11 -11 -11 -10 -11
-17 -17 -16 -16 -14 -15 -15 -15 -15 -13 -13 -13 -13 -12 -12 -12 -11 -12 -12 -12 -12 -12 -13 -13 -13 -13 -13 -13 -14 -14 -14 -14 -13 -13 -12 -11 -9 -9 -10 -11 -12 -11 -11 -11 -12
-17 -17 -17 -16 -16 -15 -16 -15 -14 -13 -13 -14 -14 -13 -12 -11 -12 -13 -12 -12 -13 -13 -14 -14 -13 -13 -13 -14 -14 -14 -13 -15 -14 -13 -12 -11 -10 -10 -9 -11 -12 -12 -12 -12 -13
-18 -17 -16 -16 -17 -17 -17 -16 -14 -14 -14 -15 -14 -14 -13 -13 -13 -12 -12 -12 -13 -14 -14 -15 -15 -13 -13 -14 -14 -14 -14 -14 -14 -14 -13 -11 -10 -9 -10 -11 -12 -12 -13 -13 -13
-19 -18 -16 -17 -17 -19 -18 -16 -14 -15 -15 -15 -13 -14 -13 -13 -13 -13 -12 -12 -13 -14 -15 -15 -15 -14 -13 -13 -14 -14 -14 -14 -15 -14 -13 -11 -10 -10 -10 -11 -12 -12 -13 -13 -14
-20 -19 -17 -18 -18 -18 -18 -15 -15 -15 -16 -15 -15 -14 -14 -14 -14 -13 -12 -13 -14 -14 -15 -15 -15 -14 -14 -14 -14 -14 -14 -13 -14 -13 -13 -13 -9 -11 -11 -11 -12 -12 -13 -14 -14
-20 -19 -18 -19 -19 -19 -17 -17 -17 -16 -15 -15 -15 -15 -15 -15 -15 -13 -12 -13 -15 -15 -15 -15 -15 -15 -14 -13 -12 -13 -14 -14 -15 -15 -11 -13 -8 -11 -12 -12 -13 -13 -14 -14 -14
-21 -21 -19 -19 -19 -19 -18 -17 -17 -16 -16 -15 -15 -15 -15 -15 -15 -13 -13 -14 -15 -15 -16 -15 -15 -14 -13 -14 -14 -14 -14 -15 -15 -13 -13 -11 -12 -12 -13 -13 -13 -14 -14 -14 -14
-21 -21 -20 -19 -19 -19 -18 -18 -17 -16 -16 -16 -16 -15 -15 -15 -15 -14 -14 -14 -15 -15 -16 -15 -15 -15 -14 -15 -15 -14 -14 -14 -14 -12 -14 -11 -12 -13 -14 -14 -13 -13 -13 -13 -14
-21 -21 -21 -20 -19 -19 -19 -18 -17 -16 -16 -16 -16 -15 -16 -15 -15 -15 -16 -15 -15 -15 -16 -15 -15 -15 -14 -15 -15 -15 -14 -14 -13 -14 -13 -13 -11 -14 -15 -14 -14 -14 -14 -14 -15
-22 -22 -21 -20 -20 -20 -19 -18 -18 -17 -17 -17 -16 -17 -16 -15 -16 -16 -16 -16 -16 -15 -16 -16 -15 -15 -15 -15 -15 -15 -12 -14 -14 -13 -14 -14 -12 -15 -15 -14 -14 -14 -14 -15 -15

GFSSW_500_temp_051.txt.gz
Temp
-10 -10 -10 -10 -10 -10 -10 -9 -9 -9 -9 -10 -10 -10 -10 -10 -10 -10 -10 -10 -10 -10 -10 -10 -10 -10 -10 -10 -10 -10 -10 -10 -10 -10 -10 -10 -10 -10 -10 -10 -10 -10 -11 -11 -11
-10 -10 -10 -10 -10 -10 -10 -10 -9 -10 -10 -10 -10 -10 -10 -10 -10 -10 -10 -10 -10 -10 -10 -10 -10 -10 -10 -10 -10 -10 -10 -10 -10 -10 -10 -10 -10 -10 -10 -10 -10 -11 -11 -11 -11
-10 -10 -10 -10 -10 -10 -10 -10 -10 -10 -10 -10 -10 -10 -10 -10 -10 -10 -10 -10 -10 -10 -10 -10 -10 -10 -10 -10 -10 -10 -10 -10 -10 -10 -10 -10 -10 -10 -10 -10 -11 -11 -10 -11 -11
-11 -11 -10 -10 -10 -10 -10 -10 -10 -10 -10 -10 -10 -10 -10 -10 -10 -10 -10 -10 -10 -10 -10 -10 -10 -10 -10 -10 -10 -10 -10 -10 -10 -10 -10 -10 -10 -10 -10 -10 -11 -11 -11 -11 -11
-11 -11 -11 -10 -10 -10 -10 -10 -10 -10 -10 -10 -10 -10 -10 -10 -10 -10 -10 -10 -10 -10 -10 -10 -10 -10 -10 -10 -10 -10 -10 -10 -10 -10 -10 -10 -10 -10 -10 -10 -10 -11 -11 -11 -11
-12 -12 -11 -11 -11 -11 -10 -10 -10 -10 -10 -10 -10 -10 -10 -10 -10 -10 -10 -10 -10 -10 -10 -10 -10 -10 -10 -10 -10 -10 -10 -10 -10 -10 -10 -10 -10 -10 -11 -10 -10 -10 -10 -11 -11
-13 -12 -12 -12 -11 -11 -11 -11 -11 -11 -10 -10 -10 -10 -10 -10 -10 -10 -10 -10 -10 -10 -10 -10 -10 -10 -10 -10 -10 -10 -10 -10 -10 -10 -10 -10 -10 -10 -10 -11 -10 -10 -10 -10 -10
-14 -13 -13 -12 -12 -12 -11 -11 -11 -11 -11 -11 -10 -10 -10 -10 -11 -11 -10 -10 -10 -10 -10 -10 -10 -10 -10 -10 -10 -10 -10 -10 -10 -10 -10 -10 -10 -10 -10 -10 -11 -10 -10 -10 -10
-14 -13 -13 -13 -12 -12 -12 -12 -11 -11 -11 -11 -11 -10 -11 -11 -11 -11 -11 -11 -11 -11 -10 -10 -10 -10 -10 -10 -10 -10 -10 -10 -10 -10 -10 -10 -10 -10 -10 -10 -10 -10 -10 -11 -10
-14 -14 -13 -13 -13 -13 -12 -12 -12 -12 -11 -11 -11 -11 -11 -11 -11 -11 -11 -11 -11 -11 -11 -11 -10 -10 -11 -10 -11 -10 -10 -10 -10 -10 -10 -10 -10 -10 -10 -10 -10 -10 -10 -11 -10
-15 -15 -14 -14 -13 -13 -13 -12 -12 -12 -12 -12 -11 -11 -11 -11 -11 -11 -11 -11 -11 -11 -11 -11 -10 -10 -11 -11 -11 -11 -10 -10 -11 -11 -10 -10 -10 -10 -10 -10 -10 -10 -10 -10 -10
-15 -15 -15 -14 -14 -13 -13 -13 -13 -12 -12 -12 -11 -11 -11 -11 -11 -11 -11 -11 -11 -11 -11 -11 -10 -11 -11 -11 -11 -11 -11 -11 -11 -11 -10 -10 -10 -10 -10 -10 -10 -10 -10 -11 -11
-16 -16 -16 -15 -14 -14 -14 -14 -14 -13 -12 -12 -12 -11 -11 -11 -11 -11 -11 -11 -11 -11 -11 -11 -11 -11 -11 -11 -11 -11 -11 -11 -11 -12 -11 -11 -9 -10 -10 -10 -10 -10 -10 -10 -11
-16 -16 -16 -15 -14 -14 -14 -15 -14 -14 -13 -11 -12 -12 -11 -11 -11 -11 -11 -11 -11 -11 -12 -11 -11 -11 -11 -11 -11 -11 -12 -12 -12 -12 -11 -11 -9 -9 -10 -11 -10 -11 -11 -11 -11
-18 -16 -16 -15 -15 -14 -15 -16 -15 -15 -14 -13 -12 -12 -12 -12 -11 -12 -12 -12 -11 -12 -12 -11 -11 -12 -11 -11 -12 -11 -12 -12 -12 -12 -12 -11 -10 -8 -10 -10 -11 -11 -11 -11 -11
-18 -18 -17 -16 -15 -15 -15 -16 -16 -16 -13 -13 -12 -12 -12 -12 -12 -12 -12 -12 -12 -12 -12 -11 -11 -11 -11 -12 -12 -12 -12 -12 -12 -12 -11 -11 -11 -8 -10 -10 -11 -11 -11 -10 -11
-17 -17 -18 -17 -16 -16 -16 -16 -15 -15 -13 -12 -12 -12 -12 -12 -12 -12 -12 -12 -12 -12 -11 -12 -12 -12 -12 -12 -12 -13 -13 -13 -13 -12 -11 -11 -11 -9 -10 -11 -11 -11 -11 -11 -11
-17 -16 -17 -17 -17 -17 -16 -16 -15 -15 -14 -14 -13 -13 -13 -13 -12 -12 -12 -12 -12 -12 -12 -13 -13 -13 -12 -13 -14 -14 -13 -13 -12 -12 -12 -11 -9 -9 -10 -11 -11 -11 -11 -11 -10
-18 -17 -16 -17 -17 -17 -17 -16 -16 -15 -14 -15 -15 -14 -13 -13 -13 -13 -13 -12 -13 -13 -13 -13 -13 -13 -13 -13 -14 -14 -13 -14 -14 -13 -12 -11 -10 -10 -10 -10 -11 -11 -11 -12 -11
-18 -18 -17 -16 -17 -17 -18 -17 -16 -15 -15 -16 -15 -15 -14 -14 -14 -13 -13 -12 -12 -13 -14 -14 -14 -14 -14 -14 -14 -14 -14 -14 -14 -13 -12 -11 -10 -10 -10 -10 -11 -11 -12 -12 -12
-19 -19 -18 -18 -18 -19 -19 -18 -15 -16 -17 -16 -15 -15 -15 -15 -15 -14 -13 -13 -13 -14 -15 -15 -15 -13 -14 -13 -15 -15 -14 -14 -15 -14 -13 -11 -10 -10 -10 -10 -11 -11 -12 -12 -12
-20 -19 -18 -19 -19 -19 -19 -18 -16 -17 -17 -17 -16 -15 -15 -15 -15 -15 -14 -14 -14 -15 -14 -15 -16 -14 -14 -14 -15 -14 -14 -14 -14 -13 -14 -13 -8 -10 -11 -11 -12 -12 -13 -13 -13
-20 -20 -19 -20 -20 -20 -18 -18 -18 -17 -16 -17 -17 -15 -16 -16 -16 -15 -14 -14 -15 -15 -14 -15 -15 -15 -14 -13 -13 -13 -14 -14 -15 -15 -12 -13 -8 -10 -11 -12 -13 -13 -13 -14 -13
-21 -20 -20 -21 -20 -20 -20 -19 -18 -17 -17 -16 -17 -17 -17 -16 -16 -15 -14 -15 -15 -15 -16 -15 -15 -14 -13 -14 -15 -15 -15 -15 -16 -14 -13 -11 -11 -11 -12 -13 -13 -14 -13 -13 -13
-22 -21 -21 -21 -20 -20 -20 -20 -19 -18 -18 -18 -17 -17 -17 -17 -17 -15 -15 -15 -15 -15 -16 -16 -15 -15 -14 -15 -16 -15 -15 -15 -15 -12 -15 -10 -12 -12 -12 -13 -14 -14 -14 -13 -14
-23 -22 -22 -21 -21 -21 -21 -20 -20 -19 -19 -19 -18 -17 -17 -18 -17 -16 -16 -16 -15 -16 -16 -16 -15 -16 -15 -15 -16 -16 -15 -14 -14 -13 -14 -13 -11 -12 -14 -14 -14 -14 -14 -14 -14
-24 -23 -23 -22 -22 -22 -21 -21 -20 -20 -19 -19 -19 -19 -18 -17 -17 -16 -16 -16 -16 -16 -16 -16 -16 -16 -15 -16 -16 -16 -13 -15 -15 -14 -14 -14 -11 -15 -14 -14 -14 -14 -14 -14 -14

GFSSW_500_temp_054.txt.gz
Temp
-11 -10 -10 -10 -10 -10 -10 -10 -10 -10 -10 -10 -9 -10 -10 -10 -10 -10 -10 -10 -10 -10 -10 -10 -10 -10 -10 -10 -10 -10 -10 -10 -10 -10 -10 -10 -10 -10 -10 -10 -10 -11 -11 -11 -11
-11 -11 -10 -10 -10 -10 -10 -10 -10 -10 -10 -10 -10 -10 -10 -10 -10 -10 -10 -10 -10 -10 -10 -10 -10 -10 -10 -10 -10 -10 -10 -10 -10 -10 -10 -10 -10 -10 -10 -10 -10 -11 -11 -11 -11
-12 -11 -11 -10 -10 -10 -10 -10 -10 -10 -10 -10 -10 -10 -10 -10 -10 -10 -10 -10 -10 -10 -10 -10 -10 -10 -10 -10 -10 -10 -10 -10 -10 -10 -10 -10 -10 -10 -10 -10 -10 -10 -10 -11 -11
-12 -12 -11 -11 -11 -10 -10 -10 -10 -10 -10 -10 -10 -10 -10 -10 -10 -10 -10 -10 -10 -10 -10 -10 -10 -10 -10 -10 -10 -10 -10 -10 -10 -10 -10 -10 -10 -10 -10 -10 -10 -10 -10 -11 -11
-12 -12 -12 -11 -11 -11 -11 -10 -10 -10 -10 -10 -10 -10 -10 -10 -10 -10 -10 -10 -10 -10 -10 -10 -10 -10 -10 -10 -10 -10 -10 -10 -10 -10 -10 -10 -10 -10 -10 -10 -10 -11 -10 -10 -10
-13 -13 -12 -12 -11 -11 -11 -11 -11 -10 -10 -10 -10 -10 -10 -10 -10 -10 -10 -10 -10 -10 -10 -10 -10 -10 -10 -10 -10 -10 -10 -10 -10 -10 -10 -10 -10 -10 -10 -10 -10 -10 -11 -11 -11
-14 -13 -13 -13 -12 -11 -11 -11 -11 -11 -10 -10 -10 -10 -10 -10 -10 -10 -10 -10 -10 -10 -10 -10 -10 -10 -10 -10 -10 -10 -10 -10 -10 -10 -10 -10 -10 -10 -10 -10 -10 -10 -10 -11 -11
-15 -14 -13 -13 -13 -12 -12 -11 -11 -11 -11 -11 -11 -10 -11 -11 -10 -10 -10 -10 -10 -10 -10 -10 -10 -10 -10 -10 -10 -10 -10 -10 -10 -10 -10 -10 -10 -10 -10 -10 -10 -10 -10 -10 -10
-15 -15 -14 -13 -14 -13 -13 -12 -11 -11 -11 -11 -11 -11 -11 -11 -11 -11 -11 -11 -11 -11 -10 -10 -10 -10 -10 -10 -10 -10 -10 -10 -10 -10 -10 -10 -10 -10 -10 -10 -10 -10 -10 -10 -11
-15 -15 -15 -14 -14 -14 -14 -13 -13 -12 -11 -11 -11 -11 -11 -11 -11 -11 -11 -11 -11 -11 -11 -11 -10 -10 -11 -11 -10 -10 -10 -10 -10 -10 -10 -10 -10 -10 -10 -10 -10 -10 -11 -11 -11
-15 -15 -15 -15 -15 -14 -14 -14 -13 -13 -12 -12 -11 -11 -11 -11 -11 -11 -11 -11 -11 -11 -11 -11 -11 -11 -11 -11 -10 -10 -10 -10 -10 -10 -10 -10 -10 -10 -10 -10 -11 -11 -11 -11 -11
-16 -15 -15 -15 -15 -15 -15 -14 -14 -13 -13 -12 -12 -11 -11 -11 -11 -11 -11 -11 -11 -11 -11 -11 -11 -11 -11 -11 -11 -11 -10 -11 -11 -11 -10 -10 -10 -10 -10 -10 -10 -10 -10 -11 -11
-16 -15 -16 -15 -15 -15 -15 -15 -14 -14 -13 -12 -12 -11 -11 -12 -11 -11 -11 -11 -11 -11 -11 -11 -11 -11 -11 -11 -11 -11 -11 -11 -11 -11 -10 -10 -9 -9 -10 -10 -10 -10 -11 -11 -11
-16 -16 -16 -16 -15 -15 -15 -15 -15 -15 -14 -12 -13 -12 -12 -11 -11 -11 -11 -12 -12 -12 -12 -11 -11 -11 -12 -11 -12 -11 -12 -11 -11 -11 -11 -11 -9 -9 -10 -10 -10 -11 -11 -11 -11
-18 -16 -16 -16 -16 -15 -16 -15 -15 -15 -15 -13 -12 -12 -12 -12 -11 -12 -12 -12 -12 -12 -12 -11 -12 -12 -12 -12 -12 -11 -12 -12 -11 -11 -11 -11 -11 -9 -10 -10 -11 -11 -11 -11 -11
-18 -19 -19 -17 -17 -17 -16 -16 -16 -16 -14 -13 -12 -12 -12 -13 -12 -12 -13 -13 -12 -12 -12 -12 -12 -12 -12 -12 -12 -12 -12 -12 -12 -12 -11 -10 -11 -8 -9 -10 -11 -11 -11 -11 -11
-17 -18 -19 -19 -17 -17 -17 -16 -16 -16 -13 -13 -13 -12 -13 -13 -13 -13 -13 -13 -13 -13 -12 -12 -12 -12 -12 -12 -12 -12 -13 -13 -13 -12 -11 -11 -11 -9 -9 -10 -11 -11 -11 -11 -11
-18 -18 -17 -18 -18 -18 -18 -17 -16 -16 -15 -13 -13 -13 -13 -13 -13 -13 -13 -13 -13 -13 -13 -13 -12 -12 -12 -12 -13 -13 -13 -13 -13 -12 -11 -11 -9 -9 -10 -11 -11 -11 -11 -11 -11
-19 -18 -18 -17 -17 -18 -18 -19 -17 -16 -16 -15 -15 -14 -14 -13 -13 -13 -13 -13 -13 -13 -14 -13 -13 -13 -13 -13 -13 -13 -13 -13 -14 -13 -11 -10 -9 -9 -10 -10 -10 -11 -11 -11 -11
-19 -19 -18 -19 -18 -18 -19 -19 -17 -17 -17 -17 -16 -16 -15 -15 -15 -14 -14 -13 -13 -13 -14 -14 -13 -13 -13 -13 -13 -13 -13 -14 -14 -13 -12 -10 -9 -9 -10 -10 -11 -11 -11 -11 -11
-20 -19 -19 -19 -19 -20 -19 -18 -16 -16 -17 -17 -16 -16 -16 -16 -16 -15 -14 -14 -14 -14 -15 -15 -15 -13 -13 -13 -13 -14 -13 -14 -14 -14 -13 -11 -9 -10 -10 -11 -11 -11 -11 -12 -11
-21 -20 -19 -20 -20 -20 -19 -18 -18 -17 -18 -18 -17 -17 -16 -16 -16 -16 -15 -15 -15 -15 -15 -15 -15 -14 -13 -13 -13 -13 -13 -14 -14 -14 -13 -12 -8 -10 -11 -12 -12 -12 -12 -12 -12
-21 -21 -20 -21 -21 -20 -19 -18 -18 -18 -18 -18 -17 -17 -17 -17 -17 -16 -16 -16 -16 -16 -15 -15 -15 -14 -13 -13 -12 -12 -12 -13 -14 -15 -12 -13 -8 -10 -11 -12 -12 -13 -13 -12 -12
-22 -21 -21 -21 -21 -20 -20 -19 -19 -18 -18 -18 -17 -18 -18 -18 -17 -16 -15 -16 -16 -16 -16 -16 -16 -14 -13 -14 -14 -14 -15 -15 -16 -14 -13 -11 -10 -11 -11 -13 -13 -14 -13 -12 -12
-23 -21 -21 -21 -21 -21 -20 -20 -19 -18 -18 -19 -18 -18 -18 -17 -17 -16 -16 -16 -16 -16 -17 -17 -16 -16 -14 -15 -16 -15 -14 -15 -15 -12 -15 -10 -13 -10 -12 -13 -14 -14 -13 -13 -13
-24 -22 -22 -22 -22 -22 -21 -21 -20 -19 -19 -19 -19 -18 -18 -18 -18 -16 -17 -17 -17 -17 -17 -17 -16 -17 -16 -16 -15 -16 -15 -13 -13 -13 -14 -11 -11 -12 -14 -14 -14 -14 -14 -13 -13
-26 -24 -23 -22 -22 -23 -22 -21 -21 -21 -20 -19 -19 -19 -19 -19 -18 -17 -17 -17 -17 -17 -17 -17 -17 -17 -16 -16 -16 -16 -12 -14 -14 -14 -14 -14 -10 -14 -13 -14 -14 -14 -14 -14 -13

GFSSW_500_temp_057.txt.gz
Temp
-11 -11 -11 -11 -11 -10 -10 -10 -10 -10 -10 -10 -10 -10 -10 -10 -10 -10 -10 -10 -10 -10 -10 -10 -10 -10 -10 -10 -10 -10 -10 -10 -10 -10 -10 -10 -10 -10 -10 -10 -10 -10 -10 -10 -11
-11 -11 -11 -11 -11 -10 -10 -10 -10 -10 -10 -10 -10 -10 -10 -10 -10 -10 -10 -10 -10 -10 -10 -10 -10 -10 -10 -10 -10 -10 -10 -10 -10 -10 -10 -10 -10 -10 -10 -10 -10 -10 -10 -10 -11
-12 -11 -11 -11 -11 -11 -11 -10 -10 -10 -10 -10 -10 -10 -10 -10 -10 -10 -10 -10 -10 -10 -10 -10 -10 -10 -10 -10 -10 -10 -10 -10 -10 -10 -10 -10 -10 -10 -10 -10 -10 -10 -10 -10 -11
-12 -12 -11 -11 -11 -11 -11 -10 -10 -10 -10 -10 -10 -10 -10 -10 -10 -10 -10 -10 -10 -10 -10 -10 -10 -10 -10 -10 -10 -10 -10 -10 -10 -10 -10 -10 -10 -10 -10 -10 -10 -10 -10 -11 -11
-14 -13 -12 -12 -11 -11 -11 -11 -11 -10 -10 -11 -11 -10 -10 -10 -10 -10 -10 -10 -10 -10 -10 -10 -10 -10 -10 -10 -10 -10 -10 -10 -10 -10 -10 -10 -10 -10 -10 -10 -10 -10 -10 -11 -11
-14 -14 -13 -12 -12 -12 -11 -11 -11 -11 -11 -11 -11 -11 -10 -10 -11 -11 -10 -10 -10 -10 -10 -10 -10 -10 -10 -10 -10 -10 -10 -10 -10 -10 -10 -10 -10 -10 -10 -10 -10 -10 -10 -10 -10
-14 -14 -14 -13 -12 -12 -12 -11 -11 -11 -11 -11 -11 -11 -11 -11 -11 -11 -11 -11 -11 -10 -10 -10 -10 -10 -10 -10 -10 -10 -10 -10 -10 -10 -10 -10 -10 -10 -10 -10 -10 -10 -10 -10 -10
-14 -14 -14 -14 -14 -13 -12 -12 -12 -12 -11 -11 -11 -11 -11 -11 -11 -11 -11 -11 -11 -11 -10 -10 -10 -10 -10 -10 -10 -10 -10 -10 -10 -10 -10 -10 -10 -10 -10 -10 -10 -10 -10 -10 -10
-15 -15 -15 -14 -14 -14 -13 -13 -13 -12 -12 -11 -11 -11 -11 -11 -11 -11 -11 -11 -11 -11 -11 -11 -11 -11 -11 -10 -10 -10 -10 -10 -10 -10 -10 -10 -10 -10 -10 -10 -10 -10 -10 -10 -11
-15 -15 -15 -15 -15 -15 -14 -14 -14 -13 -13 -12 -12 -11 -11 -11 -11 -11 -11 -11 -11 -11 -11 -11 -11 -11 -11 -11 -11 -10 -10 -10 -10 -10 -10 -10 -10 -10 -10 -10 -10 -10 -10 -11 -11
-16 -15 -15 -15 -15 -15 -15 -15 -14 -14 -13 -13 -12 -12 -12 -12 -11 -11 -11 -11 -11 -11 -11 -11 -11 -11 -11 -11 -11 -10 -10 -10 -11 -10 -10 -10 -10 -10 -10 -10 -10 -10 -10 -10 -11
-16 -16 -16 -16 -15 -15 -15 -15 -15 -14 -14 -13 -13 -12 -12 -12 -12 -11 -11 -11 -11 -11 -11 -11 -11 -11 -11 -11 -11 -11 -11 -11 -11 -11 -10 -10 -10 -10 -10 -10 -10 -10 -10 -11 -11
-16 -16 -16 -16 -16 -15 -15 -15 -15 -15 -14 -14 -13 -12 -13 -12 -12 -12 -12 -11 -11 -11 -11 -11 -11 -11 -11 -11 -11 -11 -11 -11 -11 -11 -10 -10 -10 -10 -10 -10 -10 -11 -11 -11 -11
-16 -16 -16 -16 -15 -16 -16 -16 -15 -15 -15 -13 -14 -13 -13 -13 -12 -12 -12 -12 -12 -11 -12 -11 -11 -11 -12 -11 -12 -11 -12 -11 -11 -11 -11 -11 -9 -9 -10 -10 -11 -11 -11 -11 -11
-17 -17 -16 -16 -16 -16 -16 -16 -16 -15 -15 -13 -13 -13 -13 -13 -12 -13 -12 -12 -12 -12 -12 -11 -11 -12 -12 -12 -12 -11 -12 -12 -12 -11 -11 -10 -10 -8 -9 -10 -11 -12 -11 -11 -11
-17 -17 -18 -17 -16 -16 -17 -16 -16 -16 -16 -14 -13 -13 -13 -13 -12 -12 -13 -13 -13 -13 -12 -12 -12 -12 -12 -12 -12 -12 -12 -12 -12 -12 -11 -10 -11 -9 -9 -10 -11 -12 -12 -12 -11
-17 -17 -17 -17 -17 -17 -17 -17 -16 -16 -15 -14 -13 -13 -13 -13 -13 -13 -13 -13 -13 -13 -12 -12 -12 -12 -13 -12 -12 -12 -12 -13 -12 -12 -11 -10 -10 -9 -9 -9 -10 -11 -11 -11 -11
-18 -18 -18 -17 -18 -19 -19 -18 -18 -16 -16 -15 -13 -14 -14 -14 -14 -14 -14 -14 -13 -13 -13 -13 -12 -12 -12 -13 -13 -13 -13 -13 -12 -12 -11 -11 -9 -8 -9 -10 -11 -10 -11 -11 -11
-19 -19 -18 -18 -19 -19 -20 -20 -18 -16 -16 -16 -16 -15 -15 -14 -14 -14 -14 -14 -14 -13 -14 -13 -13 -13 -13 -13 -14 -13 -13 -13 -13 -13 -12 -10 -9 -9 -9 -10 -10 -11 -11 -12 -11
-20 -20 -19 -20 -19 -19 -20 -20 -18 -17 -17 -17 -17 -16 -16 -16 -15 -14 -14 -13 -13 -14 -14 -14 -14 -13 -13 -13 -13 -13 -13 -13 -13 -13 -12 -10 -9 -9 -9 -10 -10 -11 -12 -12 -11
-21 -20 -20 -21 -20 -20 -20 -19 -19 -17 -18 -18 -18 -17 -16 -17 -17 -16 -15 -13 -14 -14 -15 -15 -14 -13 -13 -13 -13 -14 -13 -13 -13 -13 -13 -11 -9 -9 -9 -10 -10 -11 -11 -12 -12
-21 -21 -21 -21 -21 -20 -19 -18 -18 -18 -18 -19 -18 -18 -17 -17 -17 -17 -16 -15 -16 -16 -16 -16 -16 -14 -13 -13 -14 -14 -13 -14 -13 -13 -13 -12 -9 -10 -10 -10 -11 -11 -12 -12 -12
-22 -21 -21 -22 -22 -21 -20 -19 -19 -19 -18 -18 -18 -17 -17 -18 -18 -17 -17 -17 -17 -16 -16 -16 -16 -15 -15 -14 -13 -13 -13 -13 -13 -13 -12 -12 -9 -10 -11 -11 -11 -12 -13 -13 -12
-22 -22 -21 -21 -22 -21 -21 -20 -20 -19 -19 -19 -19 -18 -18 -19 -18 -17 -17 -17 -17 -17 -17 -17 -16 -15 -14 -14 -15 -14 -14 -15 -15 -14 -12 -12 -10 -10 -10 -11 -12 -13 -13 -12 -12
-23 -22 -21 -21 -21 -21 -21 -21 -20 -20 -19 -19 -19 -19 -19 -18 -18 -17 -17 -17 -17 -18 -18 -17 -17 -17 -16 -16 -15 -15 -15 -15 -14 -13 -14 -10 -13 -10 -12 -12 -12 -13 -13 -13 -12
-23 -22 -22 -21 -21 -22 -22 -22 -21 -21 -20 -20 -20 -19 -19 -19 -18 -17 -18 -18 -18 -18 -18 -18 -17 -17 -16 -15 -16 -16 -16 -14 -13 -13 -14 -11 -12 -11 -12 -14 -13 -14 -13 -13 -13
-24 -23 -22 -22 -21 -23 -22 -22 -22 -22 -21 -20 -20 -20 -19 -19 -19 -19 -19 -18 -18 -18 -18 -18 -18 -18 -16 -16 -18 -18 -13 -13 -15 -14 -14 -13 -11 -14 -13 -14 -14 -14 -13 -13 -13

GFSSW_500_temp_060.txt.gz
Temp
-12 -11 -11 -11 -11 -11 -11 -10 -10 -10 -10 -10 -10 -10 -10 -10 -10 -10 -10 -10 -10 -10 -10 -10 -10 -10 -10 -10 -10 -10 -10 -10 -10 -10 -10 -10 -10 -10 -10 -10 -10 -10 -10 -10 -10
-12 -12 -11 -11 -11 -11 -11 -11 -11 -10 -10 -10 -10 -10 -10 -10 -10 -10 -10 -10 -10 -10 -10 -10 -10 -10 -10 -10 -10 -10 -10 -10 -10 -10 -10 -10 -10 -10 -10 -10 -10 -10 -10 -10 -11
-13 -12 -12 -11 -11 -11 -11 -11 -10 -10 -10 -10 -10 -10 -10 -10 -10 -10 -10 -10 -10 -11 -11 -11 -11 -11 -11 -11 -10 -10 -10 -10 -10 -10 -10 -10 -10 -10 -10 -10 -10 -10 -10 -10 -10
-13 -13 -13 -12 -12 -11 -11 -11 -11 -11 -11 -10 -10 -10 -10 -10 -10 -10 -10 -10 -11 -11 -11 -11 -11 -11 -11 -11 -11 -10 -10 -10 -10 -10 -10 -10 -10 -10 -10 -10 -10 -10 -10 -10 -11
-13 -13 -13 -13 -12 -12 -11 -11 -11 -11 -11 -10 -10 -10 -11 -10 -10 -10 -10 -11 -11 -11 -11 -11 -11 -11 -11 -11 -11 -10 -10 -10 -10 -10 -10 -10 -10 -10 -10 -10 -10 -10 -10 -10 -10
-14 -13 -13 -13 -13 -12 -12 -11 -11 -11 -11 -11 -10 -11 -11 -10 -11 -10 -11 -11 -11 -11 -11 -11 -11 -11 -11 -11 -11 -11 -10 -10 -10 -10 -10 -10 -10 -10 -10 -10 -10 -10 -10 -10 -10
-15 -15 -14 -13 -13 -13 -13 -12 -11 -11 -11 -11 -11 -11 -11 -11 -11 -11 -11 -11 -11 -11 -11 -11 -11 -11 -11 -11 -11 -11 -11 -10 -10 -10 -10 -10 -10 -10 -10 -10 -10 -10 -10 -10 -10
-16 -15 -15 -14 -14 -13 -13 -13 -12 -12 -11 -11 -11 -11 -11 -11 -11 -11 -11 -11 -11 -11 -11 -11 -11 -11 -11 -11 -11 -11 -11 -11 -11 -10 -10 -10 -10 -10 -10 -10 -10 -10 -10 -10 -10
-16 -15 -15 -15 -15 -14 -14 -13 -13 -12 -12 -11 -11 -11 -11 -11 -11 -11 -11 -11 -11 -11 -11 -11 -11 -11 -11 -11 -11 -11 -11 -11 -11 -11 -10 -10 -10 -10 -10 -10 -10 -10 -10 -10 -10
-16 -16 -16 -16 -15 -15 -14 -14 -14 -13 -12 -12 -12 -11 -11 -12 -11 -11 -11 -11 -11 -11 -11 -11 -11 -11 -11 -11 -11 -11 -11 -11 -11 -11 -10 -10 -10 -10 -10 -10 -10 -10 -10 -10 -10
-16 -16 -15 -16 -16 -16 -15 -15 -15 -14 -13 -13 -12 -12 -12 -12 -12 -12 -12 -11 -11 -11 -11 -11 -11 -11 -11 -11 -11 -11 -11 -11 -11 -11 -10 -10 -10 -10 -10 -10 -10 -10 -10 -10 -10
-16 -16 -15 -16 -16 -15 -15 -16 -15 -14 -14 -14 -13 -12 -12 -13 -12 -12 -12 -12 -11 -11 -11 -11 -11 -12 -11 -11 -11 -11 -11 -11 -11 -11 -10 -10 -10 -10 -10 -10 -10 -10 -11 -11 -11
-17 -16 -16 -16 -16 -16 -16 -15 -16 -15 -14 -14 -14 -13 -13 -13 -13 -12 -12 -12 -12 -11 -11 -11 -11 -12 -11 -11 -11 -11 -11 -11 -11 -11 -11 -10 -10 -10 -10 -10 -10 -11 -11 -11 -11
-17 -17 -17 -17 -16 -16 -16 -16 -15 -15 -15 -13 -14 -13 -13 -13 -13 -13 -13 -12 -12 -12 -12 -11 -11 -11 -12 -11 -12 -11 -12 -11 -11 -11 -11 -10 -10 -10 -10 -10 -10 -11 -11 -11 -11
-17 -17 -17 -17 -16 -17 -16 -16 -16 -16 -16 -15 -14 -13 -13 -13 -12 -13 -13 -14 -12 -13 -13 -11 -12 -12 -12 -12 -13 -12 -12 -12 -12 -12 -11 -10 -11 -9 -10 -9 -10 -11 -11 -12 -12
-18 -17 -17 -17 -17 -17 -17 -16 -16 -16 -16 -14 -14 -13 -14 -13 -13 -13 -14 -14 -13 -14 -13 -12 -12 -12 -12 -12 -13 -12 -12 -12 -12 -12 -11 -10 -11 -9 -9 -10 -10 -11 -12 -11 -11
-19 -18 -18 -17 -17 -17 -18 -17 -17 -17 -16 -15 -14 -14 -14 -14 -14 -14 -14 -14 -14 -14 -13 -13 -12 -12 -12 -12 -13 -13 -13 -13 -13 -12 -11 -11 -11 -9 -9 -10 -10 -11 -11 -11 -11
-20 -19 -18 -18 -18 -18 -18 -18 -17 -16 -16 -16 -15 -15 -14 -15 -14 -14 -14 -14 -14 -14 -13 -13 -13 -13 -12 -13 -13 -13 -13 -13 -12 -12 -11 -11 -10 -9 -9 -10 -10 -11 -11 -11 -11
-20 -20 -19 -19 -19 -19 -19 -19 -17 -16 -17 -16 -16 -16 -15 -15 -14 -15 -15 -14 -14 -14 -14 -14 -14 -13 -13 -14 -14 -13 -13 -13 -13 -13 -12 -10 -10 -10 -10 -10 -10 -10 -11 -12 -11
-22 -21 -20 -20 -20 -20 -20 -19 -18 -17 -16 -17 -17 -17 -16 -16 -16 -15 -15 -14 -14 -15 -15 -15 -14 -14 -14 -14 -14 -13 -13 -13 -13 -13 -12 -11 -10 -10 -10 -10 -10 -10 -11 -12 -12
-22 -22 -22 -22 -21 -20 -20 -19 -18 -18 -18 -18 -17 -18 -17 -17 -17 -17 -16 -15 -15 -15 -16 -15 -15 -14 -14 -13 -13 -14 -13 -14 -14 -14 -13 -12 -10 -10 -10 -11 -10 -11 -11 -11 -12
-22 -22 -22 -22 -22 -21 -20 -19 -19 -18 -18 -18 -18 -17 -17 -17 -18 -18 -17 -16 -17 -17 -17 -16 -16 -14 -14 -14 -14 -14 -13 -14 -14 -13 -14 -13 -10 -10 -10 -11 -11 -11 -11 -12 -12
-22 -22 -22 -22 -23 -22 -21 -20 -20 -19 -19 -19 -19 -18 -18 -17 -18 -18 -17 -17 -17 -18 -17 -17 -17 -16 -15 -14 -13 -13 -13 -14 -14 -14 -13 -13 -10 -10 -11 -11 -11 -11 -12 -13 -13
-23 -23 -22 -22 -22 -22 -22 -21 -21 -20 -20 -20 -19 -20 -19 -18 -17 -17 -17 -17 -18 -18 -18 -17 -17 -17 -15 -15 -15 -15 -15 -15 -16 -16 -12 -14 -10 -11 -11 -12 -12 -13 -13 -13 -13
-23 -23 -23 -22 -22 -22 -22 -22 -21 -21 -21 -20 -20 -20 -19 -19 -18 -18 -17 -17 -18 -18 -18 -17 -17 -17 -17 -17 -16 -16 -15 -15 -15 -13 -15 -11 -14 -10 -12 -12 -12 -13 -13 -13 -13
-25 -24 -23 -23 -23 -23 -23 -22 -22 -21 -21 -21 -21 -20 -20 -20 -20 -19 -18 -18 -18 -18 -18 -18 -18 -18 -17 -17 -18 -17 -17 -15 -14 -14 -15 -12 -12 -11 -12 -13 -13 -14 -14 -14 -13
-26 -26 -25 -23 -24 -24 -22 -22 -22 -22 -22 -21 -21 -21 -21 -20 -20 -20 -20 -19 -19 -18 -18 -19 -18 -19 -18 -17 -18 -18 -15 -15 -16 -15 -15 -14 -12 -13 -13 -13 -14 -14 -13 -13 -13

GFSSW_500_temp_063.txt.gz
Temp
-12 -12 -12 -11 -11 -11 -11 -11 -11 -11 -11 -11 -11 -10 -11 -10 -11 -11 -10 -10 -10 -10 -10 -10 -10 -10 -10 -10 -10 -10 -10 -10 -10 -10 -10 -10 -10 -10 -10 -10 -10 -10 -10 -10 -10
-12 -12 -12 -12 -12 -11 -11 -11 -11 -11 -11 -11 -11 -11 -11 -11 -11 -11 -10 -10 -10 -10 -11 -10 -10 -10 -10 -10 -11 -10 -11 -11 -11 -10 -10 -10 -10 -10 -10 -10 -10 -10 -10 -10 -11
-12 -12 -12 -12 -12 -12 -11 -11 -11 -11 -11 -11 -11 -11 -11 -11 -11 -11 -11 -11 -11 -11 -11 -10 -10 -10 -10 -11 -11 -11 -11 -11 -11 -10 -10 -10 -10 -10 -10 -10 -10 -10 -10 -10 -10
-13 -13 -12 -12 -12 -12 -12 -11 -11 -11 -11 -11 -11 -11 -11 -11 -11 -11 -11 -11 -11 -11 -11 -11 -11 -10 -11 -11 -11 -11 -11 -10 -10 -10 -10 -10 -10 -10 -10 -10 -10 -10 -10 -10 -10
-14 -13 -13 -12 -12 -12 -12 -12 -11 -11 -11 -11 -11 -11 -11 -11 -11 -10 -11 -11 -11 -11 -11 -11 -11 -11 -11 -11 -11 -11 -11 -11 -11 -10 -10 -10 -10 -10 -10 -10 -10 -10 -10 -10 -10
-14 -14 -13 -13 -12 -12 -12 -12 -12 -11 -11 -11 -11 -11 -11 -11 -11 -11 -11 -11 -11 -11 -11 -11 -11 -11 -11 -11 -11 -11 -11 -11 -11 -11 -10 -10 -10 -11 -10 -10 -10 -10 -10 -10 -10
-15 -14 -14 -13 -13 -13 -12 -12 -12 -12 -11 -11 -11 -11 -11 -11 -11 -11 -11 -11 -11 -11 -11 -11 -11 -11 -11 -11 -11 -11 -11 -11 -11 -11 -10 -10 -10 -11 -10 -10 -10 -10 -10 -10 -10
-15 -15 -15 -15 -14 -14 -13 -12 -12 -12 -12 -12 -11 -11 -11 -11 -11 -11 -11 -11 -11 -11 -11 -11 -11 -11 -11 -11 -11 -11 -11 -11 -11 -11 -10 -10 -10 -10 -10 -10 -10 -10 -10 -10 -10
-16 -15 -15 -15 -15 -15 -14 -13 -13 -12 -12 -12 -12 -12 -11 -11 -11 -11 -11 -11 -11 -11 -11 -11 -11 -11 -11 -11 -11 -11 -11 -11 -11 -11 -10 -10 -10 -10 -10 -10 -10 -10 -10 -10 -10
-16 -16 -15 -16 -15 -15 -15 -14 -14 -13 -13 -13 -12 -12 -12 -12 -12 -11 -11 -11 -11 -11 -11 -11 -11 -11 -11 -11 -11 -11 -11 -11 -11 -11 -10 -10 -10 -10 -10 -10 -10 -10 -10 -10 -10
-16 -16 -16 -16 -16 -16 -15 -15 -15 -14 -14 -13 -13 -12 -12 -12 -12 -12 -12 -11 -11 -11 -11 -11 -11 -11 -12 -11 -11 -11 -11 -11 -11 -11 -10 -10 -10 -10 -10 -10 -10 -10 -10 -10 -10
-16 -16 -16 -16 -16 -16 -16 -15 -15 -15 -15 -14 -13 -13 -13 -13 -13 -12 -12 -12 -12 -11 -11 -11 -11 -12 -12 -11 -11 -11 -11 -11 -11 -11 -10 -10 -10 -10 -10 -10 -10 -10 -11 -10 -10
-16 -16 -16 -16 -15 -16 -16 -16 -16 -15 -15 -15 -14 -13 -13 -13 -13 -13 -12 -12 -12 -12 -12 -11 -11 -12 -12 -11 -11 -11 -11 -11 -11 -11 -11 -10 -10 -10 -10 -10 -10 -11 -11 -11 -11
-16 -16 -16 -16 -16 -16 -16 -15 -15 -15 -16 -15 -15 -14 -14 -14 -13 -13 -13 -12 -12 -12 -12 -12 -12 -12 -12 -12 -12 -12 -12 -12 -11 -11 -11 -11 -10 -10 -10 -10 -10 -11 -11 -11 -11
-16 -16 -17 -17 -16 -18 -17 -16 -16 -16 -16 -15 -14 -14 -14 -14 -13 -14 -14 -14 -13 -13 -13 -12 -12 -13 -12 -12 -13 -12 -12 -12 -12 -12 -11 -11 -11 -9 -10 -10 -10 -11 -11 -11 -11
-17 -17 -18 -18 -17 -17 -17 -17 -17 -16 -16 -15 -14 -14 -14 -14 -14 -14 -14 -14 -14 -14 -13 -12 -12 -13 -13 -13 -13 -12 -12 -12 -12 -12 -11 -11 -11 -8 -10 -10 -10 -10 -11 -11 -11
-19 -19 -19 -18 -18 -18 -17 -17 -18 -17 -15 -15 -15 -14 -14 -14 -14 -14 -15 -15 -14 -14 -13 -13 -13 -13 -13 -13 -13 -13 -13 -13 -13 -12 -11 -11 -11 -9 -10 -10 -10 -11 -11 -11 -11
-20 -20 -19 -19 -19 -19 -18 -19 -19 -18 -16 -16 -16 -17 -15 -15 -15 -15 -15 -15 -14 -14 -14 -14 -13 -13 -13 -13 -14 -14 -14 -14 -13 -13 -12 -11 -10 -10 -10 -10 -10 -11 -11 -11 -11
-21 -20 -21 -20 -20 -20 -20 -20 -18 -17 -16 -16 -17 -16 -16 -16 -16 -16 -15 -15 -14 -15 -15 -15 -14 -14 -14 -14 -14 -14 -13 -13 -14 -13 -13 -11 -10 -10 -10 -10 -11 -11 -11 -11 -11
-22 -22 -21 -21 -21 -20 -20 -20 -18 -18 -17 -17 -17 -17 -17 -17 -17 -16 -15 -15 -15 -15 -15 -15 -15 -15 -14 -14 -14 -14 -14 -14 -14 -14 -13 -11 -11 -10 -10 -10 -11 -11 -11 -11 -12
-23 -23 -22 -22 -22 -21 -20 -19 -19 -19 -19 -18 -18 -17 -17 -17 -18 -17 -16 -15 -16 -16 -17 -16 -16 -14 -14 -14 -14 -15 -14 -14 -14 -14 -14 -12 -11 -10 -11 -11 -11 -11 -11 -11 -12
-23 -23 -23 -23 -23 -22 -21 -20 -20 -20 -20 -19 -19 -19 -18 -17 -17 -18 -18 -17 -17 -17 -17 -17 -17 -15 -15 -15 -15 -15 -14 -15 -15 -14 -15 -14 -11 -10 -11 -11 -11 -11 -12 -12 -12
-23 -23 -23 -23 -23 -23 -22 -22 -21 -20 -21 -21 -20 -19 -19 -19 -18 -18 -17 -17 -18 -18 -18 -17 -17 -17 -16 -15 -14 -15 -15 -15 -15 -15 -15 -14 -11 -11 -11 -12 -12 -12 -12 -13 -13
-24 -23 -23 -23 -23 -23 -23 -22 -22 -22 -21 -21 -20 -20 -20 -20 -19 -18 -18 -18 -18 -18 -19 -18 -19 -17 -16 -16 -16 -16 -15 -15 -16 -16 -13 -14 -11 -12 -12 -12 -13 -13 -14 -14 -14
-24 -24 -24 -23 -23 -23 -23 -23 -22 -22 -22 -22 -21 -21 -20 -21 -20 -20 -19 -18 -18 -17 -18 -19 -19 -18 -17 -17 -17 -16 -16 -17 -17 -14 -17 -12 -14 -10 -13 -13 -13 -14 -14 -14 -14
-25 -24 -24 -24 -24 -24 -23 -22 -22 -22 -22 -22 -22 -22 -21 -21 -21 -21 -20 -19 -19 -18 -18 -19 -19 -19 -18 -17 -17 -18 -17 -17 -16 -15 -16 -13 -14 -11 -13 -14 -14 -15 -15 -15 -14
-26 -25 -25 -24 -24 -24 -23 -23 -23 -23 -22 -22 -22 -22 -22 -22 -22 -21 -21 -19 -20 -20 -19 -19 -19 -19 -18 -17 -18 -19 -16 -16 -17 -17 -16 -16 -13 -15 -14 -14 -16 -16 -15 -14 -14

GFSSW_500_temp_069.txt.gz
Temp
-13 -13 -13 -13 -12 -12 -12 -12 -12 -12 -12 -11 -11 -11 -11 -11 -11 -11 -10 -10 -10 -10 -10 -10 -10 -9 -9 -10 -10 -10 -10 -10 -10 -10 -10 -10 -10 -10 -10 -10 -10 -10 -10 -10 -10
-13 -13 -13 -12 -12 -12 -12 -12 -12 -12 -12 -12 -11 -11 -11 -11 -11 -11 -11 -10 -10 -10 -10 -10 -10 -10 -10 -10 -10 -10 -10 -10 -10 -10 -10 -10 -10 -10 -10 -10 -10 -10 -10 -10 -10
-13 -13 -13 -13 -12 -12 -12 -12 -12 -12 -12 -12 -12 -11 -11 -11 -11 -11 -11 -11 -11 -10 -10 -10 -10 -10 -10 -10 -10 -10 -10 -10 -10 -10 -10 -10 -10 -10 -10 -10 -10 -10 -10 -10 -10
-14 -13 -13 -13 -13 -12 -12 -12 -12 -12 -12 -12 -12 -12 -11 -11 -11 -11 -11 -11 -11 -11 -11 -10 -10 -10 -10 -10 -10 -10 -11 -10 -10 -10 -10 -10 -10 -10 -10 -10 -10 -10 -10 -10 -10
-14 -14 -13 -13 -13 -13 -12 -12 -12 -12 -12 -12 -12 -12 -11 -11 -11 -11 -11 -11 -11 -11 -11 -11 -11 -11 -11 -10 -10 -10 -11 -11 -11 -10 -10 -10 -10 -11 -10 -10 -10 -10 -10 -10 -10
-15 -14 -14 -13 -13 -13 -13 -12 -12 -12 -12 -12 -12 -12 -11 -11 -11 -11 -11 -11 -11 -11 -11 -11 -11 -11 -11 -11 -10 -10 -11 -11 -11 -11 -10 -10 -10 -11 -11 -10 -10 -10 -10 -10 -10
-16 -15 -14 -14 -13 -13 -13 -13 -12 -12 -12 -12 -12 -12 -12 -11 -11 -11 -11 -11 -11 -11 -11 -11 -11 -11 -11 -11 -11 -11 -11 -11 -11 -11 -10 -10 -10 -11 -10 -10 -10 -10 -10 -10 -10
-16 -16 -15 -14 -14 -13 -13 -13 -13 -12 -12 -12 -12 -12 -12 -12 -11 -11 -11 -11 -11 -11 -11 -11 -11 -11 -11 -11 -11 -11 -11 -11 -11 -11 -10 -10 -10 -11 -11 -10 -10 -10 -10 -10 -10
-16 -17 -16 -15 -14 -14 -14 -13 -13 -13 -12 -12 -12 -12 -12 -12 -12 -12 -12 -11 -11 -11 -11 -11 -11 -11 -11 -11 -11 -11 -11 -11 -11 -11 -11 -10 -10 -11 -11 -10 -10 -10 -10 -10 -10
-16 -15 -15 -15 -15 -15 -14 -14 -13 -13 -13 -13 -12 -12 -12 -12 -12 -12 -12 -12 -12 -11 -11 -11 -11 -11 -11 -11 -11 -11 -11 -11 -11 -11 -11 -10 -10 -11 -11 -10 -10 -10 -10 -10 -10
-16 -16 -16 -16 -15 -15 -15 -15 -14 -14 -13 -13 -13 -12 -13 -12 -12 -12 -12 -12 -12 -11 -11 -11 -11 -11 -12 -12 -11 -11 -11 -11 -11 -11 -11 -11 -10 -10 -11 -10 -10 -10 -10 -10 -10
-16 -16 -16 -16 -16 -16 -16 -15 -15 -15 -15 -14 -13 -13 -13 -12 -12 -12 -12 -12 -12 -12 -12 -12 -11 -12 -12 -11 -12 -11 -11 -11 -11 -11 -11 -11 -10 -10 -11 -11 -10 -10 -11 -10 -10
-16 -16 -16 -17 -16 -16 -16 -16 -16 -15 -15 -15 -14 -14 -14 -13 -13 -12 -12 -12 -12 -12 -12 -12 -12 -12 -12 -12 -12 -12 -12 -12 -12 -11 -11 -11 -10 -10 -11 -10 -10 -10 -10 -11 -11
-17 -17 -16 -16 -16 -16 -16 -16 -16 -16 -16 -15 -15 -14 -14 -14 -13 -13 -12 -12 -12 -12 -12 -12 -12 -12 -12 -12 -12 -12 -12 -12 -12 -11 -11 -11 -10 -10 -10 -10 -11 -11 -11 -11 -11
-17 -17 -17 -16 -16 -16 -16 -16 -16 -16 -16 -15 -15 -14 -14 -14 -13 -14 -13 -13 -13 -13 -13 -12 -12 -13 -12 -13 -13 -12 -13 -13 -12 -12 -11 -11 -11 -9 -10 -10 -11 -11 -11 -11 -11
-16 -16 -16 -16 -17 -17 -16 -16 -16 -16 -16 -15 -15 -14 -14 -14 -14 -14 -14 -14 -14 -14 -14 -13 -12 -12 -13 -13 -13 -12 -13 -13 -13 -13 -11 -11 -11 -9 -10 -10 -10 -11 -11 -11 -11
-17 -17 -17 -17 -17 -16 -17 -17 -17 -16 -16 -15 -15 -15 -15 -14 -14 -14 -14 -15 -14 -14 -14 -14 -13 -13 -13 -13 -14 -13 -13 -14 -14 -13 -11 -12 -11 -9 -10 -10 -10 -10 -11 -11 -11
-18 -17 -17 -17 -17 -17 -19 -18 -18 -16 -16 -15 -15 -15 -15 -15 -15 -14 -14 -14 -14 -14 -14 -14 -14 -13 -14 -14 -15 -15 -15 -15 -14 -14 -12 -12 -10 -9 -10 -10 -10 -10 -11 -11 -11
-19 -18 -18 -17 -18 -18 -19 -18 -18 -16 -15 -15 -15 -16 -16 -16 -16 -16 -15 -15 -15 -15 -15 -16 -15 -14 -14 -15 -15 -14 -15 -14 -16 -15 -14 -12 -10 -10 -10 -10 -10 -10 -11 -11 -11
-20 -20 -19 -19 -19 -20 -20 -18 -18 -17 -15 -16 -16 -15 -16 -16 -16 -16 -16 -15 -15 -15 -16 -16 -16 -15 -14 -15 -15 -15 -15 -15 -15 -15 -15 -11 -11 -10 -10 -10 -11 -11 -11 -11 -12
-22 -21 -21 -21 -21 -21 -19 -16 -17 -17 -17 -17 -17 -16 -17 -16 -17 -16 -16 -16 -16 -16 -16 -16 -16 -15 -15 -14 -15 -15 -15 -15 -16 -15 -15 -14 -12 -11 -11 -11 -11 -11 -11 -12 -12
-23 -22 -22 -22 -22 -20 -19 -18 -18 -19 -19 -19 -19 -19 -18 -18 -18 -18 -17 -17 -16 -17 -17 -17 -16 -16 -15 -16 -16 -16 -15 -16 -16 -15 -16 -16 -12 -11 -11 -11 -12 -12 -12 -12 -12
-23 -23 -23 -23 -22 -21 -21 -21 -20 -20 -20 -20 -20 -20 -20 -19 -20 -19 -18 -18 -17 -18 -18 -18 -17 -16 -16 -16 -16 -16 -15 -16 -16 -17 -16 -16 -13 -13 -13 -13 -13 -13 -13 -13 -13
-24 -24 -24 -23 -23 -23 -22 -22 -22 -21 -21 -21 -21 -21 -20 -20 -20 -19 -19 -19 -19 -19 -19 -19 -18 -17 -16 -17 -17 -16 -17 -17 -18 -17 -16 -16 -14 -12 -13 -14 -14 -14 -13 -14 -14
-24 -24 -24 -23 -23 -23 -23 -23 -23 -23 -22 -22 -22 -21 -21 -21 -21 -20 -20 -20 -20 -20 -20 -19 -19 -18 -17 -17 -18 -18 -17 -17 -18 -16 -17 -15 -17 -13 -13 -15 -15 -15 -15 -15 -15
-24 -24 -24 -24 -24 -24 -24 -23 -23 -23 -23 -23 -23 -23 -22 -22 -22 -21 -21 -20 -20 -20 -20 -21 -19 -19 -18 -18 -19 -19 -18 -17 -17 -17 -18 -17 -16 -15 -15 -16 -16 -15 -16 -15 -15
-24 -24 -24 -24 -24 -24 -24 -23 -23 -24 -23 -23 -23 -23 -23 -23 -23 -22 -22 -22 -21 -21 -21 -22 -21 -21 -20 -19 -20 -20 -17 -18 -18 -18 -18 -18 -17 -17 -16 -16 -16 -16 -16 -16 -15

GFSSW_500_temp_072.txt.gz
Temp
-13 -13 -13 -13 -13 -14 -13 -13 -13 -12 -12 -12 -12 -12 -11 -11 -11 -11 -10 -10 -10 -10 -10 -9 -9 -10 -10 -10 -10 -10 -10 -10 -10 -10 -10 -10 -10 -10 -10 -10 -10 -10 -10 -10 -10
-13 -13 -13 -13 -13 -14 -14 -13 -12 -12 -12 -12 -12 -12 -11 -11 -11 -11 -10 -10 -10 -10 -10 -10 -10 -9 -10 -10 -10 -10 -10 -10 -10 -10 -10 -10 -10 -10 -10 -10 -10 -10 -10 -10 -10
-14 -13 -13 -13 -14 -14 -13 -13 -12 -12 -12 -12 -12 -12 -12 -11 -11 -11 -11 -10 -10 -10 -10 -10 -10 -10 -10 -10 -10 -10 -10 -10 -10 -10 -10 -10 -10 -10 -10 -10 -10 -10 -10 -10 -10
-15 -14 -13 -13 -13 -13 -13 -13 -13 -12 -12 -12 -12 -12 -12 -12 -11 -11 -11 -11 -11 -10 -10 -10 -10 -10 -10 -10 -10 -10 -10 -10 -10 -10 -10 -10 -10 -10 -10 -10 -10 -10 -10 -10 -10
-15 -14 -14 -13 -13 -13 -13 -13 -13 -13 -12 -12 -12 -12 -12 -12 -11 -11 -11 -11 -11 -11 -10 -10 -10 -10 -10 -10 -10 -10 -10 -10 -10 -10 -10 -10 -10 -10 -10 -10 -10 -10 -10 -10 -10
-16 -15 -14 -14 -13 -13 -13 -13 -13 -13 -13 -12 -12 -12 -12 -12 -12 -11 -11 -11 -11 -11 -11 -10 -10 -10 -10 -10 -10 -10 -10 -11 -11 -10 -10 -10 -10 -10 -11 -10 -10 -10 -10 -10 -10
-17 -15 -15 -14 -14 -14 -13 -13 -13 -13 -12 -12 -12 -12 -12 -12 -12 -12 -11 -11 -11 -11 -11 -11 -11 -10 -10 -11 -10 -10 -10 -10 -10 -10 -10 -10 -10 -10 -11 -10 -10 -10 -10 -10 -10
-16 -17 -15 -15 -14 -14 -13 -13 -13 -13 -13 -12 -12 -12 -12 -12 -12 -12 -12 -11 -11 -11 -11 -11 -11 -11 -11 -11 -11 -11 -10 -10 -11 -11 -11 -11 -10 -10 -11 -10 -10 -10 -10 -10 -10
-16 -16 -16 -15 -15 -14 -14 -13 -13 -13 -13 -13 -12 -12 -12 -12 -12 -12 -12 -12 -11 -11 -11 -11 -11 -11 -11 -11 -11 -11 -11 -11 -10 -11 -11 -11 -10 -10 -11 -10 -10 -10 -10 -10 -10
-16 -16 -16 -16 -15 -15 -14 -14 -13 -13 -13 -13 -13 -12 -12 -12 -12 -12 -12 -12 -11 -11 -11 -11 -11 -11 -11 -11 -11 -11 -11 -11 -11 -11 -11 -11 -10 -10 -11 -10 -10 -10 -10 -10 -10
-16 -16 -16 -16 -15 -15 -15 -15 -14 -14 -13 -13 -13 -12 -12 -12 -12 -12 -12 -12 -11 -11 -11 -11 -11 -11 -12 -12 -11 -11 -11 -11 -11 -11 -10 -11 -10 -10 -11 -10 -10 -10 -11 -10 -10
-16 -16 -16 -17 -16 -16 -15 -15 -15 -14 -14 -13 -13 -13 -13 -12 -12 -12 -12 -12 -11 -12 -11 -11 -11 -12 -12 -12 -11 -11 -11 -11 -12 -10 -10 -11 -10 -10 -10 -11 -11 -10 -11 -11 -11
-16 -16 -16 -16 -16 -16 -15 -15 -15 -15 -15 -14 -13 -13 -13 -13 -12 -12 -12 -12 -12 -12 -11 -11 -11 -12 -12 -12 -12 -12 -12 -12 -11 -11 -10 -10 -10 -10 -11 -10 -11 -11 -11 -11 -11
-16 -16 -16 -16 -16 -16 -16 -16 -16 -16 -15 -15 -14 -14 -13 -13 -13 -13 -12 -12 -12 -12 -12 -12 -11 -11 -11 -12 -12 -12 -12 -12 -12 -11 -11 -11 -9 -10 -10 -10 -11 -11 -11 -11 -11
-18 -16 -16 -16 -16 -16 -16 -16 -16 -16 -16 -16 -15 -14 -14 -14 -13 -14 -13 -13 -13 -13 -12 -12 -12 -12 -12 -12 -12 -12 -12 -12 -12 -12 -11 -11 -10 -9 -10 -10 -11 -11 -11 -11 -11
-18 -18 -17 -17 -16 -17 -17 -17 -17 -17 -17 -16 -15 -15 -15 -15 -14 -14 -14 -14 -13 -13 -13 -13 -12 -13 -12 -12 -13 -12 -13 -13 -13 -12 -11 -11 -11 -9 -10 -10 -10 -11 -11 -11 -11
-19 -18 -18 -17 -17 -17 -17 -17 -17 -16 -16 -15 -15 -15 -15 -15 -15 -15 -15 -14 -14 -14 -13 -14 -13 -13 -13 -13 -13 -13 -13 -13 -13 -13 -11 -11 -11 -9 -10 -10 -10 -10 -11 -11 -11
-18 -17 -17 -19 -18 -19 -18 -18 -17 -16 -16 -15 -16 -16 -16 -16 -15 -15 -15 -15 -15 -15 -14 -14 -13 -13 -13 -14 -14 -14 -14 -14 -13 -13 -11 -12 -10 -9 -10 -10 -10 -11 -11 -11 -11
-19 -18 -18 -17 -18 -18 -18 -18 -17 -16 -16 -16 -16 -16 -16 -16 -16 -16 -15 -15 -15 -16 -16 -15 -14 -14 -14 -14 -14 -14 -14 -14 -15 -14 -13 -11 -10 -10 -10 -10 -11 -11 -11 -11 -11
-19 -18 -18 -18 -18 -18 -19 -17 -17 -16 -16 -16 -17 -17 -16 -16 -16 -16 -16 -16 -16 -16 -16 -16 -15 -14 -14 -14 -14 -15 -14 -15 -15 -14 -14 -11 -11 -10 -10 -11 -11 -11 -11 -12 -12
-20 -20 -19 -19 -19 -19 -17 -17 -17 -18 -16 -16 -17 -17 -17 -16 -16 -17 -16 -16 -16 -16 -16 -16 -16 -15 -14 -14 -14 -15 -15 -15 -16 -15 -15 -14 -12 -11 -11 -11 -11 -11 -12 -12 -12
-21 -21 -21 -20 -20 -18 -18 -18 -18 -18 -18 -18 -17 -17 -17 -17 -17 -16 -17 -17 -17 -17 -17 -16 -16 -15 -15 -15 -15 -15 -15 -16 -16 -15 -16 -16 -12 -12 -12 -12 -12 -13 -12 -12 -13
-23 -22 -22 -22 -20 -19 -19 -19 -19 -19 -18 -18 -18 -18 -19 -18 -18 -18 -17 -17 -17 -17 -17 -17 -17 -16 -16 -16 -15 -15 -16 -16 -17 -17 -16 -16 -13 -13 -14 -14 -14 -14 -14 -14 -14
-24 -24 -23 -23 -22 -21 -21 -20 -20 -20 -19 -19 -19 -19 -19 -19 -19 -19 -19 -18 -19 -18 -19 -19 -18 -17 -16 -17 -16 -16 -16 -17 -17 -17 -15 -16 -14 -13 -14 -15 -15 -14 -14 -14 -14
-23 -23 -23 -23 -23 -23 -23 -22 -22 -21 -21 -21 -20 -20 -20 -21 -21 -20 -20 -20 -21 -20 -19 -19 -19 -19 -18 -18 -18 -18 -17 -17 -17 -17 -18 -15 -17 -13 -14 -15 -15 -15 -15 -15 -15
-23 -23 -23 -23 -23 -23 -23 -23 -23 -23 -22 -22 -22 -22 -22 -22 -21 -22 -22 -21 -21 -20 -20 -20 -20 -20 -19 -19 -19 -19 -18 -18 -18 -18 -19 -18 -17 -15 -15 -16 -15 -15 -16 -15 -15
-24 -23 -23 -23 -23 -24 -23 -23 -23 -23 -23 -23 -23 -23 -23 -23 -23 -22 -22 -22 -22 -22 -21 -21 -21 -21 -20 -20 -20 -20 -18 -19 -19 -19 -20 -20 -18 -17 -17 -16 -16 -17 -16 -16 -15

GFSSW_500_temp_075.txt.gz
Temp
-14 -14 -13 -14 -14 -14 -15 -14 -13 -13 -13 -12 -12 -12 -12 -11 -11 -11 -10 -10 -10 -10 -10 -9 -9 -9 -9 -10 -9 -9 -9 -9 -9 -9 -9 -10 -10 -10 -10 -10 -10 -10 -10 -10 -10
-14 -14 -14 -14 -15 -15 -14 -13 -13 -13 -13 -13 -12 -12 -12 -11 -11 -11 -10 -10 -10 -10 -10 -10 -10 -10 -9 -9 -9 -9 -10 -9 -9 -10 -10 -10 -10 -10 -10 -10 -10 -10 -10 -10 -10
-14 -14 -14 -14 -14 -14 -14 -13 -13 -13 -13 -12 -12 -12 -12 -12 -11 -11 -11 -10 -10 -10 -10 -10 -10 -10 -10 -10 -10 -9 -10 -10 -10 -10 -10 -10 -10 -10 -10 -10 -10 -10 -10 -10 -10
-14 -14 -14 -14 -13 -13 -14 -13 -14 -13 -13 -13 -13 -12 -12 -12 -11 -11 -11 -11 -11 -10 -10 -10 -10 -10 -10 -10 -10 -10 -10 -10 -10 -10 -10 -10 -10 -10 -10 -10 -10 -10 -10 -10 -10
-15 -15 -15 -14 -14 -13 -14 -13 -13 -13 -13 -13 -12 -12 -12 -12 -12 -11 -11 -11 -11 -11 -10 -10 -10 -10 -10 -9 -10 -10 -10 -10 -10 -10 -10 -10 -10 -10 -10 -10 -10 -10 -10 -10 -10
-15 -15 -15 -15 -14 -14 -14 -13 -13 -13 -13 -13 -13 -12 -12 -12 -12 -12 -11 -11 -11 -11 -11 -10 -10 -10 -10 -10 -10 -10 -10 -10 -10 -10 -10 -10 -10 -10 -11 -10 -10 -10 -10 -10 -10
-15 -15 -16 -15 -15 -14 -14 -14 -14 -13 -13 -13 -13 -13 -12 -12 -12 -12 -12 -12 -11 -11 -11 -11 -11 -11 -11 -10 -10 -10 -10 -10 -10 -10 -10 -10 -10 -10 -11 -10 -10 -10 -10 -10 -10
-15 -15 -15 -15 -15 -15 -14 -14 -14 -13 -13 -13 -13 -12 -12 -12 -12 -12 -12 -12 -12 -11 -11 -11 -11 -11 -11 -11 -11 -10 -10 -10 -11 -10 -10 -10 -10 -10 -11 -10 -10 -10 -10 -10 -10
-16 -15 -15 -16 -16 -15 -15 -14 -14 -14 -13 -13 -13 -13 -12 -12 -12 -12 -12 -12 -12 -12 -11 -11 -11 -11 -11 -11 -11 -11 -10 -10 -10 -10 -10 -10 -10 -11 -10 -10 -10 -10 -10 -10 -10
-16 -16 -15 -16 -16 -16 -15 -15 -14 -14 -13 -13 -13 -13 -12 -12 -12 -12 -12 -12 -12 -12 -11 -11 -11 -11 -11 -11 -11 -11 -11 -10 -10 -10 -10 -10 -10 -10 -11 -10 -10 -10 -10 -10 -10
-16 -16 -16 -15 -16 -15 -15 -15 -14 -14 -13 -13 -13 -13 -13 -13 -12 -12 -12 -12 -12 -12 -11 -11 -11 -11 -12 -11 -11 -11 -10 -10 -10 -10 -11 -11 -10 -10 -10 -11 -11 -10 -10 -11 -11
-16 -16 -16 -16 -16 -16 -15 -15 -15 -15 -14 -13 -13 -13 -13 -13 -13 -12 -12 -12 -12 -12 -12 -11 -11 -11 -11 -11 -11 -11 -11 -11 -11 -11 -10 -10 -10 -10 -10 -10 -11 -10 -10 -11 -11
-16 -16 -16 -16 -16 -16 -17 -16 -15 -15 -15 -14 -14 -13 -13 -13 -13 -13 -13 -12 -12 -12 -12 -11 -11 -11 -11 -11 -11 -11 -11 -11 -11 -11 -10 -10 -10 -10 -10 -10 -11 -11 -11 -11 -11
-17 -16 -16 -16 -16 -16 -17 -16 -16 -16 -15 -14 -14 -14 -13 -13 -13 -13 -13 -12 -12 -12 -12 -12 -12 -11 -11 -11 -11 -11 -11 -11 -11 -11 -10 -10 -9 -10 -10 -10 -11 -11 -11 -11 -11
-18 -17 -16 -16 -16 -16 -17 -17 -16 -17 -16 -16 -15 -14 -14 -14 -13 -13 -13 -13 -12 -13 -12 -12 -12 -12 -12 -12 -12 -11 -11 -11 -11 -11 -10 -10 -10 -9 -10 -10 -11 -11 -11 -11 -11
-18 -18 -17 -16 -16 -16 -16 -17 -17 -17 -16 -16 -15 -14 -14 -14 -14 -14 -13 -13 -13 -13 -12 -12 -12 -12 -12 -12 -12 -12 -12 -12 -12 -11 -10 -10 -10 -9 -10 -10 -11 -11 -11 -11 -11
-18 -18 -18 -17 -17 -16 -16 -16 -16 -16 -16 -16 -15 -15 -15 -15 -15 -15 -14 -14 -14 -14 -13 -13 -13 -13 -13 -13 -12 -12 -12 -13 -12 -12 -11 -11 -11 -10 -10 -10 -10 -11 -11 -11 -11
-18 -18 -18 -18 -17 -17 -17 -17 -17 -17 -16 -16 -16 -16 -16 -15 -15 -15 -15 -15 -15 -14 -14 -14 -14 -13 -13 -13 -14 -14 -14 -13 -12 -12 -11 -11 -10 -10 -10 -11 -11 -11 -11 -11 -11
-19 -19 -18 -18 -18 -18 -17 -17 -17 -17 -17 -16 -16 -16 -16 -16 -16 -16 -16 -15 -15 -15 -15 -15 -14 -14 -14 -14 -14 -14 -13 -14 -14 -13 -12 -11 -10 -10 -11 -11 -11 -12 -11 -11 -11
-19 -19 -18 -19 -19 -19 -18 -18 -18 -17 -17 -17 -17 -17 -16 -16 -16 -16 -16 -16 -16 -16 -16 -15 -15 -14 -15 -15 -15 -14 -15 -15 -15 -14 -14 -12 -11 -10 -11 -12 -12 -13 -12 -12 -13
-20 -20 -19 -19 -19 -19 -18 -18 -18 -18 -18 -17 -17 -17 -16 -17 -17 -16 -16 -16 -16 -16 -16 -16 -16 -15 -15 -15 -15 -15 -15 -15 -15 -15 -15 -13 -12 -11 -12 -12 -12 -12 -13 -13 -13
-21 -21 -20 -20 -20 -19 -18 -18 -18 -18 -18 -18 -17 -17 -17 -17 -17 -17 -17 -17 -17 -17 -16 -17 -17 -16 -16 -16 -15 -15 -15 -16 -16 -15 -16 -15 -12 -12 -13 -14 -13 -13 -14 -14 -14
-22 -21 -21 -20 -20 -19 -18 -19 -19 -19 -19 -19 -18 -18 -18 -18 -18 -17 -17 -17 -17 -17 -17 -17 -17 -16 -16 -16 -16 -16 -16 -16 -16 -16 -15 -16 -12 -14 -14 -14 -14 -15 -15 -15 -15
-23 -22 -22 -21 -20 -20 -20 -19 -19 -19 -19 -19 -19 -19 -19 -19 -19 -19 -18 -18 -18 -17 -17 -17 -17 -17 -17 -17 -17 -17 -17 -17 -17 -16 -15 -15 -14 -13 -14 -14 -15 -15 -15 -15 -15
-24 -23 -23 -22 -22 -22 -21 -21 -20 -20 -20 -20 -19 -20 -20 -19 -19 -19 -19 -19 -20 -19 -18 -18 -17 -17 -17 -18 -17 -17 -17 -17 -17 -17 -17 -15 -17 -13 -15 -15 -15 -15 -15 -15 -15
-24 -24 -24 -23 -23 -23 -22 -21 -22 -22 -21 -21 -21 -21 -21 -19 -20 -19 -19 -19 -19 -20 -20 -20 -20 -20 -20 -20 -20 -19 -18 -18 -19 -18 -19 -18 -17 -16 -16 -16 -16 -15 -15 -15 -16
-24 -24 -24 -24 -24 -23 -23 -23 -23 -23 -22 -22 -22 -22 -21 -21 -21 -20 -21 -20 -20 -20 -20 -21 -21 -21 -21 -20 -19 -19 -18 -20 -20 -20 -19 -19 -19 -19 -18 -17 -17 -17 -16 -16 -16

GFSSW_500_temp_078.txt.gz
Temp
-14 -14 -14 -14 -14 -14 -14 -14 -14 -14 -13 -13 -12 -12 -11 -11 -11 -11 -10 -10 -10 -10 -10 -10 -10 -10 -10 -10 -10 -9 -9 -9 -9 -10 -10 -9 -10 -10 -10 -10 -10 -10 -10 -10 -10
-15 -14 -14 -14 -14 -15 -14 -13 -14 -13 -13 -13 -12 -12 -12 -12 -11 -11 -11 -10 -10 -10 -10 -10 -10 -10 -10 -10 -10 -10 -10 -9 -9 -10 -10 -10 -10 -10 -10 -10 -10 -10 -10 -10 -10
-15 -15 -14 -14 -14 -15 -14 -14 -14 -13 -14 -13 -13 -13 -12 -12 -11 -11 -11 -10 -10 -10 -10 -10 -10 -10 -10 -10 -10 -10 -10 -9 -10 -10 -10 -10 -10 -10 -10 -10 -10 -10 -10 -10 -10
-15 -15 -15 -14 -14 -14 -15 -14 -14 -14 -14 -13 -13 -12 -12 -12 -12 -12 -11 -11 -10 -10 -10 -10 -10 -10 -10 -10 -10 -10 -10 -9 -10 -10 -10 -10 -10 -10 -10 -10 -10 -10 -10 -10 -10
-16 -15 -15 -14 -14 -14 -15 -15 -14 -14 -14 -14 -13 -13 -12 -12 -12 -12 -11 -11 -11 -11 -10 -10 -10 -10 -10 -10 -10 -10 -10 -10 -10 -10 -10 -10 -10 -10 -10 -10 -10 -10 -10 -10 -10
-16 -15 -15 -15 -15 -14 -15 -16 -14 -14 -14 -14 -14 -13 -13 -12 -12 -12 -12 -11 -11 -11 -11 -10 -10 -10 -10 -10 -10 -10 -10 -10 -10 -10 -10 -10 -10 -10 -10 -10 -10 -10 -10 -10 -10
-15 -15 -15 -15 -15 -14 -15 -14 -15 -14 -14 -13 -13 -13 -13 -12 -12 -12 -12 -11 -11 -11 -11 -11 -10 -10 -10 -10 -10 -10 -10 -10 -10 -10 -10 -10 -10 -10 -10 -10 -10 -10 -10 -10 -10
-17 -16 -16 -15 -15 -15 -14 -14 -14 -14 -14 -14 -13 -13 -13 -13 -12 -12 -12 -12 -12 -12 -11 -11 -11 -11 -10 -10 -10 -10 -10 -10 -10 -10 -10 -10 -10 -10 -10 -10 -10 -10 -10 -10 -10
-16 -16 -16 -16 -16 -15 -15 -15 -14 -14 -14 -14 -13 -13 -13 -13 -13 -12 -12 -12 -12 -12 -11 -11 -11 -11 -11 -10 -11 -10 -10 -10 -10 -11 -10 -10 -10 -10 -10 -10 -10 -10 -10 -10 -10
-16 -16 -15 -15 -16 -16 -15 -15 -15 -14 -14 -14 -14 -14 -13 -13 -13 -13 -12 -12 -12 -12 -12 -11 -11 -11 -11 -11 -11 -11 -11 -11 -10 -10 -10 -10 -10 -10 -10 -10 -10 -10 -10 -10 -11
-16 -16 -16 -16 -16 -16 -16 -16 -15 -14 -14 -14 -14 -14 -13 -13 -13 -13 -12 -13 -12 -12 -12 -11 -11 -11 -12 -11 -11 -11 -11 -10 -10 -10 -11 -10 -10 -10 -10 -11 -11 -10 -11 -11 -11
-16 -16 -16 -16 -16 -16 -16 -15 -15 -15 -15 -14 -14 -13 -13 -13 -13 -13 -12 -12 -12 -12 -12 -12 -11 -12 -11 -11 -11 -11 -11 -11 -11 -10 -10 -10 -10 -11 -10 -11 -11 -11 -11 -11 -11
-17 -16 -16 -16 -16 -16 -15 -16 -16 -16 -15 -14 -14 -14 -14 -13 -13 -13 -13 -12 -12 -12 -12 -12 -12 -12 -12 -11 -11 -11 -11 -11 -11 -10 -10 -10 -10 -11 -11 -11 -11 -11 -11 -11 -11
-17 -17 -17 -17 -16 -16 -16 -17 -16 -16 -15 -15 -14 -14 -14 -13 -13 -13 -13 -13 -13 -12 -12 -12 -12 -12 -12 -11 -11 -11 -11 -11 -11 -11 -10 -10 -9 -10 -11 -11 -11 -11 -11 -11 -11
-18 -17 -17 -17 -17 -16 -16 -16 -17 -16 -16 -16 -15 -14 -14 -14 -13 -13 -13 -13 -13 -13 -13 -12 -12 -12 -12 -12 -12 -11 -11 -11 -11 -11 -10 -10 -10 -9 -10 -11 -11 -11 -11 -11 -11
-18 -18 -18 -17 -17 -17 -16 -16 -17 -17 -16 -16 -15 -14 -14 -14 -14 -14 -14 -13 -13 -13 -13 -12 -12 -12 -12 -12 -12 -12 -12 -12 -11 -11 -10 -10 -10 -10 -10 -10 -11 -11 -11 -11 -11
-18 -18 -18 -18 -17 -17 -17 -17 -17 -16 -16 -16 -15 -15 -15 -15 -14 -15 -14 -14 -13 -13 -12 -12 -12 -12 -12 -12 -12 -12 -12 -12 -12 -11 -10 -10 -10 -10 -11 -11 -10 -11 -11 -11 -11
-18 -18 -19 -18 -18 -17 -17 -17 -17 -16 -16 -16 -16 -16 -16 -15 -15 -15 -15 -15 -14 -14 -14 -13 -13 -13 -13 -13 -13 -13 -13 -13 -12 -12 -11 -11 -10 -10 -11 -11 -11 -11 -11 -11 -11
-19 -19 -19 -19 -18 -18 -17 -17 -17 -17 -16 -16 -16 -16 -16 -16 -15 -15 -15 -15 -15 -15 -15 -14 -14 -14 -13 -14 -14 -13 -13 -14 -14 -13 -12 -11 -11 -11 -11 -12 -12 -12 -11 -11 -11
-20 -19 -19 -18 -18 -18 -18 -17 -17 -17 -17 -17 -17 -17 -16 -17 -16 -16 -16 -15 -15 -15 -15 -15 -15 -14 -15 -15 -14 -14 -14 -15 -14 -14 -13 -11 -11 -11 -13 -13 -13 -13 -13 -12 -11
-21 -20 -20 -19 -18 -19 -18 -18 -18 -17 -18 -17 -17 -17 -16 -16 -16 -16 -16 -16 -16 -16 -16 -16 -16 -15 -15 -15 -15 -15 -15 -15 -15 -15 -14 -13 -12 -12 -13 -13 -13 -13 -13 -14 -14
-22 -20 -20 -20 -19 -19 -18 -18 -17 -18 -18 -18 -18 -17 -17 -17 -17 -17 -16 -16 -16 -17 -17 -16 -16 -16 -15 -16 -16 -16 -16 -16 -16 -15 -15 -14 -12 -13 -13 -14 -14 -13 -13 -14 -14
-22 -21 -21 -21 -20 -19 -18 -18 -18 -18 -18 -19 -18 -18 -17 -18 -17 -17 -17 -17 -17 -17 -16 -16 -16 -16 -16 -16 -16 -16 -16 -16 -16 -16 -15 -15 -12 -14 -15 -15 -15 -15 -15 -15 -15
-23 -22 -22 -21 -20 -19 -19 -19 -19 -19 -19 -19 -19 -18 -18 -18 -18 -17 -18 -18 -18 -17 -17 -17 -17 -17 -17 -17 -17 -17 -17 -17 -17 -16 -15 -15 -14 -14 -14 -15 -15 -16 -15 -15 -15
-24 -23 -22 -21 -21 -20 -20 -20 -20 -19 -21 -21 -20 -19 -19 -19 -19 -18 -18 -18 -18 -18 -18 -17 -17 -17 -17 -17 -17 -17 -17 -17 -17 -17 -16 -15 -15 -15 -15 -16 -16 -15 -15 -16 -16
-24 -24 -23 -23 -22 -22 -21 -21 -20 -21 -21 -21 -21 -20 -19 -20 -19 -19 -19 -19 -19 -18 -18 -18 -18 -18 -18 -18 -18 -17 -17 -17 -17 -16 -16 -17 -15 -16 -17 -16 -15 -15 -15 -15 -16
-25 -24 -24 -23 -23 -23 -22 -22 -22 -22 -21 -22 -21 -21 -21 -19 -19 -19 -20 -20 -20 -20 -20 -19 -19 -19 -20 -19 -19 -17 -16 -17 -18 -18 -19 -18 -17 -16 -16 -16 -16 -16 -16 -15 -15

GFSSW_500_temp_081.txt.gz
Temp
-15 -15 -14 -14 -14 -14 -15 -15 -14 -14 -14 -13 -12 -12 -11 -11 -11 -11 -11 -10 -10 -10 -10 -10 -10 -9 -10 -9 -9 -9 -10 -9 -9 -10 -10 -9 -9 -10 -10 -10 -10 -10 -10 -10 -10
-15 -15 -15 -15 -14 -14 -15 -15 -15 -14 -14 -13 -13 -12 -12 -11 -11 -11 -11 -11 -10 -10 -10 -10 -10 -10 -10 -10 -9 -9 -10 -10 -10 -10 -10 -10 -10 -10 -10 -10 -10 -9 -10 -10 -10
-16 -15 -15 -15 -15 -15 -15 -15 -14 -14 -15 -14 -13 -12 -12 -12 -11 -11 -11 -11 -11 -10 -10 -10 -10 -10 -10 -10 -10 -10 -10 -10 -10 -10 -10 -10 -10 -10 -10 -10 -10 -10 -10 -10 -10
-16 -15 -15 -15 -15 -14 -15 -16 -15 -15 -14 -15 -13 -13 -13 -12 -12 -11 -11 -11 -11 -10 -10 -10 -10 -10 -10 -10 -10 -10 -9 -10 -10 -10 -10 -10 -10 -10 -10 -10 -10 -10 -10 -10 -10
-17 -16 -15 -15 -15 -15 -15 -15 -14 -15 -15 -14 -14 -13 -13 -13 -12 -12 -11 -11 -11 -11 -11 -10 -10 -10 -10 -10 -10 -10 -10 -10 -10 -10 -10 -10 -10 -10 -9 -10 -10 -10 -10 -10 -10
-18 -16 -16 -15 -15 -15 -15 -17 -15 -15 -15 -14 -14 -13 -13 -13 -13 -12 -12 -11 -11 -11 -11 -11 -10 -10 -10 -10 -10 -10 -10 -10 -10 -10 -10 -10 -10 -10 -10 -10 -10 -10 -10 -10 -10
-18 -17 -16 -15 -15 -15 -15 -16 -16 -15 -15 -15 -14 -13 -13 -13 -13 -13 -12 -12 -12 -11 -11 -11 -11 -10 -10 -10 -10 -10 -10 -10 -10 -10 -10 -10 -10 -10 -10 -10 -10 -10 -10 -10 -10
-18 -18 -17 -16 -16 -15 -15 -15 -16 -15 -16 -15 -15 -14 -13 -13 -13 -13 -12 -12 -12 -12 -11 -11 -11 -11 -10 -10 -10 -10 -10 -10 -10 -10 -10 -10 -10 -10 -10 -10 -10 -10 -10 -10 -10
-19 -18 -17 -16 -16 -15 -15 -16 -15 -15 -16 -16 -16 -15 -14 -13 -13 -13 -13 -12 -12 -12 -11 -11 -11 -11 -11 -10 -11 -10 -10 -10 -10 -10 -10 -10 -10 -10 -10 -10 -10 -10 -10 -10 -11
-18 -17 -17 -16 -16 -16 -16 -15 -16 -15 -16 -15 -15 -15 -15 -14 -13 -13 -13 -13 -12 -12 -12 -11 -11 -11 -11 -10 -11 -11 -11 -11 -11 -10 -10 -10 -10 -11 -10 -10 -11 -10 -10 -10 -11
-18 -17 -17 -16 -16 -16 -16 -15 -15 -15 -15 -15 -15 -15 -14 -14 -13 -13 -13 -13 -13 -12 -12 -12 -11 -11 -11 -11 -11 -11 -11 -11 -10 -10 -10 -10 -10 -11 -10 -10 -11 -11 -11 -11 -11
-17 -17 -17 -16 -16 -17 -16 -16 -16 -15 -15 -15 -15 -15 -14 -14 -14 -13 -13 -13 -13 -12 -12 -12 -11 -12 -12 -11 -11 -11 -11 -11 -11 -11 -10 -10 -10 -11 -11 -11 -11 -11 -11 -11 -11
-18 -17 -17 -16 -16 -16 -16 -17 -16 -16 -15 -15 -15 -14 -15 -15 -14 -14 -13 -13 -13 -13 -13 -12 -12 -12 -12 -11 -11 -11 -11 -11 -11 -11 -11 -10 -10 -11 -11 -11 -11 -11 -11 -11 -11
-17 -17 -17 -16 -16 -16 -16 -17 -17 -17 -16 -15 -14 -15 -14 -14 -14 -14 -14 -13 -13 -13 -13 -12 -12 -12 -12 -12 -11 -11 -11 -11 -11 -11 -11 -10 -10 -10 -11 -11 -11 -11 -11 -11 -11
-18 -18 -17 -17 -16 -16 -16 -17 -17 -17 -16 -15 -15 -14 -15 -14 -14 -14 -14 -13 -13 -13 -13 -12 -12 -12 -12 -12 -12 -12 -12 -11 -11 -11 -11 -10 -10 -10 -11 -11 -11 -11 -11 -11 -11
-18 -18 -18 -17 -17 -16 -16 -16 -16 -17 -16 -16 -15 -14 -14 -14 -14 -14 -14 -14 -14 -13 -13 -13 -12 -12 -12 -12 -12 -12 -12 -12 -11 -11 -11 -10 -10 -10 -10 -11 -11 -11 -11 -11 -11
-18 -18 -18 -18 -17 -17 -17 -17 -17 -16 -16 -16 -15 -15 -14 -14 -14 -14 -14 -14 -13 -13 -13 -13 -12 -12 -12 -12 -12 -12 -12 -12 -12 -11 -11 -10 -10 -10 -11 -10 -11 -11 -11 -12 -12
-19 -18 -18 -18 -18 -17 -18 -18 -18 -16 -16 -16 -16 -15 -15 -15 -15 -15 -15 -14 -14 -14 -13 -13 -13 -13 -13 -13 -13 -13 -13 -13 -12 -12 -12 -11 -11 -10 -11 -11 -11 -11 -11 -11 -11
-19 -18 -18 -18 -18 -18 -18 -17 -17 -15 -16 -16 -16 -16 -15 -15 -15 -15 -15 -14 -14 -14 -14 -14 -14 -13 -13 -14 -14 -13 -13 -13 -13 -12 -12 -11 -11 -11 -11 -11 -11 -11 -11 -11 -11
-19 -19 -18 -19 -19 -19 -18 -18 -17 -16 -16 -16 -16 -16 -16 -16 -16 -15 -15 -14 -15 -14 -14 -14 -14 -14 -14 -14 -14 -14 -14 -14 -13 -13 -12 -11 -11 -11 -12 -12 -12 -12 -12 -12 -12
-19 -19 -19 -19 -19 -19 -19 -18 -18 -17 -16 -16 -16 -16 -16 -16 -17 -17 -16 -15 -15 -15 -15 -15 -15 -14 -15 -14 -14 -14 -14 -14 -14 -14 -13 -12 -12 -12 -13 -12 -13 -13 -13 -13 -13
-20 -19 -19 -19 -19 -19 -18 -18 -18 -18 -18 -17 -17 -17 -17 -17 -17 -17 -17 -16 -16 -16 -16 -16 -16 -16 -15 -15 -16 -16 -15 -15 -15 -14 -14 -14 -13 -13 -13 -13 -13 -14 -14 -14 -14
-20 -20 -20 -20 -19 -19 -19 -19 -19 -18 -18 -18 -18 -18 -17 -17 -17 -17 -17 -17 -16 -17 -17 -16 -16 -16 -16 -15 -15 -15 -15 -15 -15 -16 -15 -15 -13 -14 -14 -14 -14 -14 -14 -14 -14
-23 -22 -21 -20 -19 -19 -19 -19 -19 -19 -19 -19 -18 -18 -18 -18 -17 -17 -17 -17 -17 -17 -17 -17 -17 -16 -16 -16 -16 -16 -16 -16 -16 -16 -15 -15 -15 -15 -15 -15 -16 -16 -16 -15 -15
-23 -22 -22 -21 -19 -20 -19 -19 -19 -19 -19 -19 -18 -18 -19 -19 -18 -18 -18 -18 -18 -18 -17 -17 -17 -17 -17 -17 -17 -17 -17 -17 -17 -16 -16 -15 -16 -16 -16 -16 -16 -16 -16 -16 -16
-24 -23 -23 -22 -22 -21 -21 -20 -20 -20 -20 -19 -19 -19 -19 -19 -19 -19 -18 -18 -18 -17 -17 -18 -18 -18 -17 -17 -17 -17 -17 -17 -17 -17 -16 -16 -16 -17 -17 -17 -17 -17 -16 -16 -16
-25 -24 -24 -23 -23 -22 -22 -21 -21 -22 -21 -20 -20 -20 -18 -19 -19 -20 -19 -19 -18 -18 -18 -18 -18 -18 -18 -18 -18 -17 -17 -17 -17 -17 -18 -17 -16 -17 -17 -17 -17 -17 -17 -16 -16

GFSSW_500_temp_084.txt.gz
Temp
-15 -15 -15 -14 -15 -15 -15 -15 -16 -14 -14 -14 -13 -12 -12 -12 -11 -11 -11 -11 -10 -10 -10 -10 -10 -9 -9 -9 -9 -9 -10 -10 -10 -10 -10 -10 -10 -10 -10 -9 -10 -10 -10 -10 -10
-16 -15 -15 -15 -15 -15 -15 -15 -15 -15 -14 -14 -13 -13 -12 -12 -12 -11 -11 -11 -11 -10 -10 -10 -10 -10 -9 -9 -9 -10 -10 -10 -10 -10 -10 -10 -10 -10 -10 -10 -10 -10 -10 -10 -10
-16 -16 -15 -15 -15 -15 -15 -15 -15 -15 -14 -13 -13 -12 -12 -12 -12 -11 -11 -11 -11 -11 -11 -10 -10 -10 -10 -9 -10 -10 -10 -10 -10 -10 -10 -10 -10 -10 -10 -10 -10 -10 -10 -10 -10
-17 -16 -16 -15 -15 -15 -16 -16 -16 -15 -14 -14 -13 -13 -13 -12 -12 -11 -11 -11 -11 -11 -11 -11 -10 -10 -10 -10 -10 -10 -10 -10 -10 -10 -10 -10 -10 -10 -10 -10 -10 -10 -10 -10 -10
-17 -17 -16 -16 -15 -15 -16 -16 -15 -16 -15 -15 -14 -13 -13 -12 -12 -12 -12 -11 -11 -11 -11 -11 -11 -10 -10 -10 -10 -10 -10 -10 -10 -10 -10 -10 -10 -10 -10 -10 -10 -10 -10 -10 -10
-17 -17 -16 -16 -16 -15 -16 -17 -15 -16 -15 -15 -14 -14 -13 -13 -13 -12 -12 -12 -12 -11 -11 -11 -11 -11 -10 -10 -10 -10 -10 -10 -10 -10 -10 -10 -10 -10 -10 -10 -10 -10 -10 -10 -10
-18 -18 -17 -16 -16 -16 -16 -17 -16 -16 -16 -16 -15 -14 -14 -13 -13 -13 -13 -12 -12 -12 -11 -11 -11 -11 -11 -11 -10 -10 -10 -10 -10 -10 -10 -10 -10 -10 -10 -10 -10 -10 -10 -10 -10
-19 -18 -17 -17 -16 -17 -17 -16 -18 -16 -17 -16 -16 -15 -14 -13 -13 -13 -13 -13 -12 -12 -12 -11 -11 -11 -11 -11 -10 -10 -10 -10 -10 -10 -10 -10 -10 -10 -10 -10 -10 -10 -10 -11 -10
-19 -18 -18 -17 -17 -17 -17 -17 -17 -16 -17 -17 -15 -16 -14 -14 -13 -13 -13 -13 -13 -13 -12 -12 -11 -11 -11 -11 -10 -10 -10 -10 -10 -10 -10 -10 -10 -10 -10 -10 -10 -10 -10 -11 -11
-19 -18 -18 -17 -17 -17 -17 -18 -17 -17 -17 -16 -16 -15 -15 -14 -14 -14 -13 -13 -13 -13 -12 -12 -12 -11 -11 -11 -11 -10 -11 -11 -11 -10 -10 -10 -10 -10 -10 -10 -10 -10 -10 -10 -11
-18 -18 -17 -18 -17 -17 -16 -16 -17 -16 -16 -16 -16 -16 -15 -14 -14 -14 -13 -13 -13 -13 -12 -12 -12 -11 -11 -11 -11 -11 -11 -11 -10 -10 -10 -10 -10 -10 -10 -11 -11 -11 -10 -10 -11
-18 -19 -18 -17 -18 -17 -16 -16 -16 -16 -17 -16 -16 -16 -16 -15 -15 -14 -14 -14 -13 -13 -13 -12 -12 -12 -12 -11 -11 -11 -11 -10 -11 -10 -10 -10 -11 -11 -11 -11 -11 -11 -11 -11 -11
-18 -18 -18 -17 -18 -18 -17 -16 -16 -16 -17 -17 -16 -16 -16 -16 -15 -15 -14 -14 -14 -13 -13 -13 -12 -12 -12 -12 -11 -11 -11 -11 -11 -11 -11 -11 -11 -11 -11 -11 -11 -11 -11 -11 -11
-18 -18 -18 -18 -18 -18 -17 -17 -17 -16 -17 -17 -16 -16 -18 -17 -17 -15 -15 -14 -14 -13 -13 -13 -13 -13 -12 -12 -12 -12 -12 -11 -11 -11 -11 -11 -10 -11 -11 -11 -11 -11 -11 -11 -11
-18 -18 -19 -18 -18 -18 -18 -17 -17 -17 -17 -17 -16 -16 -16 -16 -16 -16 -15 -14 -14 -14 -13 -13 -13 -13 -12 -12 -12 -12 -12 -12 -12 -11 -11 -11 -11 -10 -11 -11 -11 -11 -11 -11 -11
-18 -18 -18 -18 -18 -18 -18 -17 -18 -18 -17 -16 -16 -16 -16 -16 -16 -16 -15 -15 -14 -14 -14 -13 -13 -13 -13 -13 -12 -12 -12 -12 -12 -12 -11 -11 -11 -11 -11 -11 -11 -11 -11 -11 -11
-19 -18 -18 -18 -18 -17 -17 -17 -17 -17 -16 -16 -15 -15 -15 -15 -15 -15 -15 -15 -14 -14 -14 -14 -13 -13 -13 -13 -13 -12 -12 -12 -12 -12 -11 -11 -11 -11 -11 -11 -11 -11 -11 -11 -11
-19 -19 -18 -18 -18 -18 -17 -17 -17 -16 -16 -15 -16 -16 -15 -15 -15 -15 -15 -15 -15 -14 -14 -14 -14 -13 -13 -13 -13 -13 -13 -13 -12 -12 -12 -12 -11 -11 -11 -11 -11 -11 -11 -11 -11
-19 -19 -18 -18 -18 -18 -18 -18 -17 -16 -16 -16 -16 -16 -16 -16 -15 -15 -15 -14 -15 -15 -14 -14 -14 -13 -13 -14 -14 -13 -13 -13 -13 -13 -12 -12 -11 -11 -11 -11 -11 -11 -11 -11 -11
-20 -19 -19 -19 -19 -18 -18 -18 -17 -17 -17 -16 -17 -17 -17 -17 -16 -15 -15 -14 -14 -14 -14 -14 -15 -14 -14 -14 -14 -13 -14 -14 -14 -13 -12 -12 -11 -11 -12 -12 -12 -12 -12 -12 -12
-20 -19 -19 -19 -19 -19 -18 -18 -18 -17 -17 -16 -17 -17 -17 -17 -17 -17 -16 -15 -15 -15 -15 -15 -15 -14 -15 -14 -14 -14 -14 -14 -14 -13 -13 -12 -12 -12 -12 -12 -12 -12 -12 -13 -13
-20 -19 -19 -19 -19 -19 -18 -18 -18 -18 -17 -17 -17 -17 -17 -17 -17 -17 -17 -16 -16 -16 -15 -15 -15 -15 -14 -15 -15 -14 -14 -14 -14 -13 -14 -14 -13 -13 -13 -13 -13 -13 -13 -13 -14
-20 -20 -19 -19 -19 -19 -19 -19 -18 -18 -18 -17 -17 -17 -17 -17 -17 -17 -17 -17 -16 -16 -16 -16 -16 -16 -16 -15 -15 -14 -14 -14 -14 -14 -14 -14 -13 -14 -14 -13 -13 -14 -14 -14 -14
-20 -20 -19 -19 -19 -19 -19 -19 -19 -18 -19 -18 -18 -18 -17 -17 -17 -17 -17 -17 -17 -17 -17 -17 -17 -16 -15 -15 -15 -15 -15 -15 -16 -16 -14 -14 -14 -14 -15 -15 -15 -16 -16 -16 -15
-20 -20 -19 -20 -20 -19 -19 -19 -19 -19 -19 -19 -19 -19 -19 -18 -18 -17 -17 -17 -17 -17 -18 -18 -17 -17 -16 -16 -16 -16 -16 -16 -16 -16 -16 -14 -16 -16 -16 -16 -16 -16 -16 -16 -16
-23 -21 -20 -20 -20 -20 -20 -20 -19 -19 -19 -19 -19 -19 -19 -19 -19 -19 -18 -18 -18 -17 -17 -17 -17 -17 -17 -17 -17 -17 -16 -16 -16 -16 -16 -15 -15 -16 -17 -17 -17 -17 -17 -17 -17
-25 -24 -23 -21 -20 -21 -20 -20 -20 -20 -20 -19 -19 -19 -19 -19 -19 -19 -18 -18 -18 -18 -18 -18 -18 -17 -17 -17 -17 -17 -16 -16 -16 -16 -17 -16 -16 -17 -17 -17 -17 -17 -17 -17 -17

GFSSW_500_temp_087.txt.gz
Temp
-17 -16 -15 -15 -14 -14 -14 -14 -13 -13 -14 -13 -12 -14 -12 -13 -12 -12 -11 -10 -10 -10 -10 -9 -9 -9 -9 -9 -9 -10 -10 -10 -10 -10 -10 -10 -10 -10 -10 -10 -10 -10 -10 -10 -10
-17 -17 -16 -15 -15 -14 -15 -15 -15 -14 -15 -15 -15 -14 -14 -13 -12 -12 -11 -10 -10 -10 -10 -10 -10 -9 -9 -9 -10 -10 -10 -10 -10 -10 -10 -10 -10 -10 -10 -10 -10 -10 -10 -10 -10
-17 -17 -16 -15 -15 -15 -15 -15 -15 -15 -15 -15 -14 -14 -14 -13 -12 -12 -11 -10 -10 -10 -10 -10 -10 -10 -9 -10 -10 -10 -10 -10 -10 -10 -10 -10 -10 -10 -10 -10 -10 -10 -10 -10 -10
-18 -17 -16 -16 -15 -15 -15 -15 -16 -16 -15 -16 -15 -14 -14 -13 -12 -12 -11 -11 -10 -11 -10 -10 -10 -10 -10 -10 -10 -10 -10 -10 -10 -10 -10 -10 -10 -10 -10 -10 -10 -10 -10 -10 -10
-18 -18 -17 -16 -16 -16 -15 -15 -15 -16 -16 -15 -15 -14 -14 -13 -13 -12 -12 -11 -11 -11 -11 -11 -11 -11 -10 -10 -10 -10 -10 -10 -10 -10 -10 -10 -10 -10 -10 -10 -10 -10 -10 -10 -10
-18 -18 -17 -16 -16 -16 -16 -15 -15 -16 -16 -15 -16 -15 -14 -14 -13 -13 -12 -11 -11 -11 -11 -11 -11 -11 -11 -10 -10 -10 -10 -10 -10 -10 -10 -10 -10 -10 -10 -10 -11 -10 -10 -10 -10
-17 -19 -18 -17 -16 -16 -16 -15 -16 -17 -17 -16 -16 -14 -14 -14 -13 -13 -13 -12 -12 -12 -12 -11 -12 -11 -11 -10 -10 -10 -10 -10 -10 -10 -10 -10 -10 -10 -10 -11 -11 -10 -11 -10 -11
-18 -19 -18 -17 -17 -17 -16 -16 -16 -16 -16 -17 -15 -15 -14 -14 -14 -13 -13 -13 -12 -12 -12 -12 -12 -11 -11 -10 -10 -10 -10 -10 -10 -10 -10 -10 -11 -10 -10 -10 -10 -11 -11 -11 -11
-18 -19 -18 -18 -17 -17 -17 -17 -17 -16 -16 -17 -16 -16 -15 -15 -14 -14 -13 -13 -13 -12 -12 -12 -12 -11 -11 -11 -11 -11 -10 -10 -10 -10 -10 -10 -11 -10 -10 -10 -10 -10 -11 -11 -11
-18 -19 -19 -18 -17 -18 -17 -17 -18 -16 -16 -17 -16 -15 -15 -15 -15 -14 -13 -13 -13 -13 -12 -12 -12 -11 -11 -11 -11 -11 -11 -11 -10 -11 -10 -10 -10 -10 -10 -10 -10 -11 -11 -11 -11
-18 -18 -19 -18 -18 -18 -18 -18 -17 -16 -17 -16 -15 -15 -15 -15 -15 -14 -14 -14 -13 -13 -13 -12 -12 -11 -12 -12 -11 -11 -11 -11 -11 -11 -10 -10 -10 -10 -10 -10 -10 -10 -10 -10 -11
-18 -18 -18 -19 -19 -18 -18 -18 -18 -17 -18 -17 -16 -17 -16 -16 -15 -15 -14 -14 -14 -13 -13 -13 -12 -13 -13 -12 -12 -11 -11 -11 -11 -11 -10 -10 -10 -11 -10 -11 -11 -10 -10 -10 -10
-18 -18 -18 -19 -19 -18 -18 -18 -18 -18 -19 -19 -18 -18 -18 -16 -15 -15 -15 -14 -14 -14 -13 -13 -13 -13 -12 -12 -12 -12 -11 -11 -11 -11 -11 -11 -11 -11 -11 -11 -11 -11 -10 -10 -10
-19 -19 -19 -19 -19 -18 -18 -18 -18 -18 -18 -17 -17 -18 -18 -17 -17 -16 -15 -15 -14 -14 -14 -14 -13 -13 -13 -13 -12 -12 -12 -12 -11 -11 -11 -11 -11 -11 -11 -11 -11 -11 -11 -11 -11
-19 -18 -17 -19 -19 -18 -19 -18 -19 -18 -18 -18 -17 -16 -17 -16 -16 -16 -16 -15 -15 -14 -14 -13 -13 -13 -13 -13 -13 -12 -12 -12 -12 -12 -11 -11 -11 -11 -11 -11 -11 -11 -11 -10 -11
-19 -18 -18 -18 -18 -19 -19 -19 -19 -19 -18 -17 -17 -16 -16 -16 -16 -16 -15 -15 -15 -15 -14 -14 -14 -13 -13 -13 -13 -13 -13 -12 -12 -12 -11 -11 -11 -11 -11 -11 -11 -11 -11 -11 -11
-19 -19 -19 -19 -18 -18 -18 -19 -19 -18 -18 -17 -16 -16 -16 -16 -16 -16 -15 -15 -15 -15 -14 -14 -14 -14 -13 -13 -13 -13 -13 -13 -12 -12 -11 -11 -11 -11 -11 -11 -11 -11 -11 -11 -11
-19 -19 -19 -19 -19 -18 -18 -19 -19 -17 -17 -17 -16 -17 -16 -16 -16 -16 -16 -16 -16 -15 -15 -15 -14 -14 -14 -14 -13 -13 -13 -13 -13 -12 -12 -12 -11 -11 -11 -11 -11 -11 -11 -11 -12
-19 -19 -19 -19 -18 -19 -19 -19 -17 -17 -18 -17 -17 -17 -16 -16 -16 -16 -16 -16 -16 -15 -15 -15 -14 -14 -14 -14 -14 -14 -13 -13 -13 -13 -12 -12 -12 -12 -11 -11 -11 -11 -11 -11 -12
-19 -19 -20 -19 -19 -19 -19 -18 -17 -17 -17 -17 -18 -18 -16 -16 -17 -16 -16 -16 -16 -16 -16 -15 -15 -15 -15 -15 -14 -14 -14 -14 -14 -13 -13 -12 -12 -12 -12 -12 -12 -12 -12 -12 -12
-19 -19 -19 -19 -19 -19 -18 -18 -17 -17 -17 -17 -17 -17 -17 -17 -17 -17 -17 -16 -16 -16 -16 -16 -16 -16 -16 -15 -14 -14 -14 -14 -14 -13 -13 -13 -12 -12 -12 -12 -12 -12 -12 -12 -13
-20 -20 -19 -19 -19 -19 -18 -18 -18 -17 -17 -17 -17 -17 -17 -17 -17 -17 -17 -17 -16 -16 -16 -16 -16 -15 -16 -16 -15 -15 -14 -14 -14 -13 -14 -14 -13 -12 -12 -12 -12 -13 -13 -13 -13
-19 -20 -20 -19 -19 -19 -19 -19 -19 -19 -18 -18 -18 -18 -18 -18 -17 -17 -17 -17 -17 -17 -16 -16 -16 -16 -16 -15 -15 -15 -15 -14 -14 -14 -14 -14 -12 -13 -13 -12 -13 -13 -14 -14 -14
-20 -20 -20 -20 -20 -20 -19 -19 -19 -19 -19 -18 -19 -19 -18 -18 -18 -17 -17 -17 -17 -17 -17 -17 -17 -16 -16 -15 -15 -15 -15 -14 -15 -15 -14 -14 -14 -14 -14 -14 -15 -15 -15 -15 -15
-22 -20 -20 -20 -20 -19 -19 -19 -19 -19 -19 -19 -19 -18 -18 -18 -18 -18 -17 -17 -17 -17 -17 -18 -17 -16 -16 -15 -15 -15 -15 -16 -16 -15 -16 -14 -15 -15 -15 -16 -16 -16 -16 -16 -16
-23 -22 -21 -20 -20 -20 -19 -19 -19 -19 -19 -19 -19 -19 -19 -18 -18 -18 -17 -17 -17 -17 -18 -17 -17 -17 -16 -16 -17 -16 -16 -16 -16 -16 -15 -14 -15 -15 -16 -16 -16 -16 -16 -16 -16
-24 -23 -22 -21 -20 -20 -20 -19 -19 -19 -19 -19 -20 -19 -19 -19 -19 -19 -18 -18 -17 -17 -18 -18 -17 -17 -17 -17 -17 -17 -16 -16 -16 -16 -16 -16 -16 -16 -17 -17 -17 -17 -17 -17 -17

GFSSW_500_temp_093.txt.gz
Temp
-17 -16 -16 -16 -15 -15 -14 -14 -13 -13 -13 -12 -11 -11 -11 -11 -11 -11 -12 -11 -10 -12 -11 -11 -10 -10 -9 -10 -10 -10 -9 -9 -10 -10 -10 -10 -10 -10 -10 -10 -10 -10 -10 -10 -10
-17 -17 -16 -16 -16 -15 -14 -14 -14 -13 -13 -13 -12 -12 -12 -12 -12 -11 -12 -12 -11 -12 -12 -12 -10 -10 -10 -10 -10 -10 -9 -9 -10 -10 -10 -10 -10 -10 -10 -10 -10 -10 -10 -10 -10
-17 -17 -17 -16 -16 -16 -15 -14 -14 -13 -13 -13 -13 -12 -12 -12 -12 -12 -12 -12 -12 -12 -12 -11 -10 -9 -10 -10 -10 -10 -10 -10 -10 -10 -10 -10 -10 -10 -10 -10 -10 -10 -10 -10 -10
-18 -17 -17 -17 -16 -17 -16 -14 -14 -14 -13 -13 -13 -12 -12 -12 -12 -12 -12 -12 -12 -12 -12 -11 -10 -10 -10 -10 -10 -10 -10 -10 -10 -10 -10 -10 -10 -10 -10 -10 -10 -10 -10 -10 -10
-17 -17 -17 -17 -16 -18 -16 -15 -14 -14 -14 -14 -13 -12 -12 -11 -12 -12 -12 -12 -13 -13 -12 -11 -11 -10 -10 -10 -10 -10 -10 -10 -10 -10 -10 -10 -10 -10 -10 -10 -10 -10 -10 -10 -10
-17 -18 -18 -17 -18 -18 -17 -16 -14 -15 -15 -15 -14 -14 -13 -13 -13 -12 -12 -13 -14 -12 -12 -11 -11 -10 -11 -11 -10 -11 -10 -10 -10 -10 -10 -10 -10 -10 -10 -10 -10 -10 -10 -10 -10
-18 -17 -19 -18 -18 -18 -18 -16 -16 -15 -15 -15 -15 -15 -15 -15 -13 -13 -15 -15 -13 -12 -12 -11 -11 -10 -10 -11 -11 -11 -11 -10 -10 -11 -10 -10 -10 -10 -10 -10 -10 -10 -10 -10 -10
-18 -18 -19 -19 -19 -18 -18 -17 -16 -16 -16 -15 -16 -16 -16 -16 -14 -14 -15 -15 -13 -12 -12 -12 -11 -11 -11 -11 -11 -11 -11 -11 -10 -11 -11 -11 -11 -10 -10 -10 -10 -10 -10 -10 -10
-18 -18 -18 -19 -19 -19 -19 -17 -17 -16 -16 -16 -16 -16 -16 -15 -16 -15 -16 -15 -14 -13 -13 -12 -11 -11 -11 -11 -11 -11 -11 -11 -11 -11 -11 -10 -11 -10 -11 -10 -11 -10 -10 -10 -10
-18 -18 -18 -18 -19 -19 -19 -18 -17 -17 -16 -16 -16 -16 -15 -15 -16 -16 -16 -15 -14 -14 -13 -12 -12 -11 -11 -11 -11 -11 -11 -11 -11 -11 -11 -11 -11 -11 -11 -11 -11 -11 -10 -10 -10
-18 -18 -18 -18 -19 -20 -19 -18 -17 -16 -16 -16 -15 -15 -15 -16 -16 -16 -17 -15 -15 -14 -13 -13 -12 -11 -11 -11 -12 -11 -11 -11 -11 -11 -11 -11 -11 -11 -10 -10 -11 -10 -10 -10 -10
-18 -18 -18 -18 -19 -19 -19 -19 -18 -16 -16 -16 -16 -16 -16 -16 -16 -17 -16 -15 -15 -14 -13 -13 -12 -12 -12 -12 -12 -12 -12 -12 -11 -11 -11 -11 -11 -11 -10 -10 -10 -10 -10 -10 -10
-18 -18 -18 -18 -19 -19 -19 -18 -17 -18 -18 -17 -17 -17 -17 -17 -17 -17 -16 -15 -15 -14 -14 -13 -13 -13 -13 -13 -12 -12 -12 -11 -11 -11 -11 -11 -11 -11 -10 -10 -10 -10 -10 -10 -10
-18 -18 -18 -18 -18 -19 -19 -19 -19 -19 -18 -18 -17 -17 -18 -17 -17 -18 -16 -16 -15 -15 -15 -14 -14 -14 -13 -13 -13 -13 -13 -12 -12 -12 -12 -11 -11 -11 -10 -10 -10 -10 -10 -10 -10
-18 -18 -18 -18 -19 -18 -20 -19 -19 -19 -19 -19 -18 -18 -18 -17 -17 -18 -16 -16 -15 -15 -15 -14 -14 -14 -13 -13 -13 -13 -13 -13 -12 -12 -12 -11 -11 -11 -11 -10 -10 -10 -10 -10 -10
-19 -18 -18 -18 -19 -20 -20 -21 -20 -20 -19 -18 -17 -17 -18 -18 -18 -18 -17 -16 -16 -16 -16 -15 -15 -14 -14 -14 -14 -13 -13 -13 -13 -13 -12 -11 -12 -11 -10 -11 -11 -11 -10 -11 -10
-19 -18 -18 -18 -19 -20 -20 -21 -21 -20 -18 -18 -17 -17 -17 -16 -17 -17 -17 -16 -16 -16 -15 -15 -15 -15 -14 -14 -14 -13 -13 -13 -13 -13 -12 -12 -12 -11 -10 -11 -11 -11 -11 -11 -11
-19 -19 -18 -19 -20 -20 -20 -21 -21 -18 -18 -17 -17 -17 -17 -17 -17 -17 -17 -16 -16 -16 -16 -15 -15 -14 -14 -14 -14 -13 -14 -13 -13 -13 -12 -12 -12 -11 -11 -11 -11 -11 -11 -11 -11
-19 -19 -19 -19 -20 -20 -20 -20 -17 -17 -18 -17 -18 -18 -17 -17 -17 -17 -17 -16 -16 -16 -16 -15 -15 -15 -15 -14 -15 -14 -14 -14 -14 -13 -13 -13 -12 -11 -11 -11 -11 -11 -12 -12 -11
-19 -19 -19 -20 -20 -20 -20 -18 -18 -18 -17 -19 -19 -18 -17 -17 -17 -16 -17 -16 -17 -17 -16 -16 -16 -16 -15 -15 -15 -14 -15 -15 -14 -14 -13 -13 -12 -12 -12 -12 -12 -12 -12 -12 -12
-19 -20 -20 -20 -20 -20 -18 -17 -18 -18 -18 -19 -19 -18 -18 -17 -17 -17 -17 -17 -17 -17 -17 -17 -17 -16 -16 -15 -15 -15 -15 -15 -15 -15 -14 -13 -13 -12 -12 -12 -12 -12 -12 -12 -12
-20 -20 -20 -20 -20 -20 -19 -18 -19 -18 -18 -19 -19 -19 -18 -18 -18 -18 -17 -17 -17 -17 -17 -17 -17 -16 -16 -16 -16 -16 -16 -16 -16 -14 -14 -14 -13 -13 -13 -13 -13 -13 -13 -13 -13
-20 -20 -20 -21 -20 -20 -19 -19 -19 -19 -19 -19 -19 -19 -19 -18 -18 -19 -19 -19 -18 -17 -17 -17 -17 -17 -17 -17 -16 -16 -16 -16 -16 -16 -15 -15 -13 -14 -13 -13 -13 -13 -13 -13 -13
-21 -21 -20 -20 -20 -20 -20 -20 -20 -19 -20 -20 -19 -20 -20 -19 -19 -19 -19 -19 -19 -19 -19 -18 -18 -17 -17 -16 -16 -16 -16 -16 -16 -16 -15 -15 -14 -14 -14 -14 -14 -14 -14 -14 -14
-21 -21 -21 -21 -21 -20 -21 -20 -20 -20 -19 -19 -19 -19 -19 -19 -19 -19 -19 -19 -18 -18 -18 -19 -18 -17 -16 -17 -17 -16 -16 -17 -17 -16 -16 -15 -15 -15 -15 -15 -15 -15 -14 -14 -14
-21 -21 -21 -21 -21 -20 -20 -20 -20 -19 -20 -19 -19 -19 -19 -19 -18 -18 -18 -18 -18 -18 -18 -18 -17 -17 -17 -18 -17 -17 -17 -17 -16 -16 -16 -15 -15 -14 -14 -15 -14 -14 -15 -15 -15
-22 -22 -21 -20 -21 -20 -20 -20 -20 -20 -20 -19 -19 -19 -19 -19 -19 -19 -19 -19 -19 -18 -18 -18 -18 -17 -17 -18 -18 -18 -15 -15 -15 -15 -15 -15 -14 -15 -15 -15 -15 -15 -15 -15 -16

GFSSW_500_temp_096.txt.gz
Temp
-16 -16 -16 -16 -16 -16 -15 -14 -13 -12 -12 -12 -11 -11 -10 -10 -10 -11 -11 -11 -11 -10 -10 -9 -9 -10 -9 -9 -9 -10 -10 -9 -9 -9 -10 -10 -10 -10 -10 -10 -10 -10 -10 -10 -10
-16 -16 -16 -17 -16 -16 -15 -15 -14 -13 -13 -12 -12 -12 -11 -10 -11 -11 -11 -11 -11 -11 -10 -10 -10 -12 -9 -10 -10 -9 -10 -9 -9 -10 -10 -10 -10 -10 -10 -10 -10 -10 -10 -10 -10
-16 -16 -17 -17 -16 -16 -15 -15 -14 -13 -13 -13 -12 -12 -11 -11 -10 -11 -11 -12 -12 -12 -10 -10 -10 -11 -9 -10 -10 -10 -10 -10 -9 -9 -10 -10 -10 -10 -10 -10 -10 -10 -10 -10 -10
-17 -17 -17 -17 -17 -16 -17 -15 -14 -14 -14 -13 -13 -12 -12 -11 -11 -11 -11 -12 -12 -12 -11 -10 -11 -11 -10 -10 -10 -10 -11 -9 -10 -10 -10 -10 -10 -10 -10 -10 -10 -10 -10 -10 -10
-17 -18 -18 -18 -17 -16 -16 -16 -15 -14 -14 -14 -13 -12 -12 -12 -12 -12 -12 -12 -12 -13 -12 -11 -12 -11 -10 -11 -10 -10 -10 -10 -10 -10 -10 -10 -10 -10 -10 -10 -10 -10 -10 -10 -10
-17 -18 -18 -18 -17 -17 -16 -17 -16 -15 -14 -14 -14 -13 -12 -12 -13 -12 -12 -12 -12 -12 -12 -11 -13 -11 -11 -11 -11 -10 -10 -10 -10 -10 -10 -10 -10 -10 -10 -10 -10 -10 -10 -10 -10
-18 -18 -18 -17 -17 -17 -16 -17 -18 -17 -16 -15 -14 -14 -13 -13 -13 -12 -12 -12 -12 -12 -13 -13 -13 -12 -12 -11 -11 -10 -11 -10 -10 -10 -10 -10 -10 -10 -10 -10 -10 -10 -10 -10 -10
-18 -18 -18 -18 -17 -17 -17 -17 -18 -17 -17 -16 -15 -14 -13 -13 -13 -12 -12 -12 -12 -11 -12 -14 -13 -12 -12 -11 -11 -11 -11 -10 -10 -10 -11 -10 -10 -10 -10 -10 -10 -10 -10 -10 -10
-19 -18 -17 -18 -18 -19 -18 -17 -19 -18 -17 -16 -15 -15 -14 -14 -13 -12 -13 -13 -13 -13 -13 -14 -13 -12 -12 -11 -11 -11 -11 -10 -11 -11 -11 -10 -11 -10 -11 -10 -10 -10 -10 -10 -10
-18 -18 -18 -18 -19 -19 -19 -18 -19 -18 -17 -17 -16 -15 -15 -14 -14 -14 -14 -14 -15 -14 -15 -15 -13 -12 -12 -11 -11 -11 -11 -11 -11 -11 -11 -10 -11 -10 -11 -10 -10 -10 -10 -10 -10
-18 -18 -18 -18 -19 -19 -19 -18 -18 -17 -17 -17 -15 -15 -15 -15 -16 -15 -15 -15 -16 -15 -16 -14 -13 -12 -11 -11 -12 -12 -12 -11 -11 -11 -11 -11 -11 -10 -10 -10 -10 -10 -10 -10 -10
-18 -18 -18 -18 -18 -20 -19 -18 -19 -17 -17 -16 -16 -15 -16 -16 -16 -16 -16 -16 -16 -16 -15 -14 -13 -13 -12 -12 -12 -12 -12 -12 -11 -11 -11 -11 -11 -11 -11 -10 -10 -10 -10 -10 -10
-18 -18 -18 -18 -18 -18 -19 -20 -20 -19 -18 -18 -17 -16 -16 -17 -16 -16 -16 -16 -17 -17 -15 -14 -13 -13 -13 -12 -12 -12 -12 -11 -11 -12 -12 -11 -11 -11 -10 -10 -11 -11 -10 -11 -10
-19 -18 -18 -18 -18 -18 -19 -19 -19 -19 -19 -18 -17 -17 -17 -17 -17 -17 -17 -16 -16 -17 -16 -15 -14 -14 -13 -13 -14 -13 -12 -12 -11 -12 -12 -11 -11 -11 -11 -10 -11 -11 -10 -10 -10
-19 -18 -18 -17 -18 -18 -19 -19 -20 -21 -20 -19 -18 -18 -18 -17 -17 -17 -16 -17 -17 -17 -17 -15 -14 -14 -14 -14 -14 -13 -13 -12 -12 -12 -12 -11 -11 -11 -11 -10 -10 -11 -11 -11 -11
-19 -18 -18 -18 -18 -19 -20 -20 -20 -21 -21 -19 -18 -18 -18 -17 -17 -17 -17 -17 -17 -17 -16 -15 -15 -15 -15 -15 -15 -14 -14 -13 -13 -12 -12 -11 -11 -11 -11 -11 -11 -11 -11 -11 -11
-19 -19 -18 -18 -18 -19 -20 -20 -21 -21 -19 -17 -17 -17 -17 -17 -17 -17 -17 -16 -16 -17 -17 -16 -15 -15 -15 -15 -15 -14 -14 -14 -14 -12 -11 -12 -11 -10 -11 -11 -11 -11 -11 -11 -11
-19 -19 -18 -18 -18 -19 -20 -21 -21 -18 -18 -17 -17 -18 -18 -17 -18 -18 -17 -17 -17 -17 -17 -16 -15 -15 -15 -15 -14 -14 -14 -14 -13 -13 -12 -12 -11 -10 -11 -11 -11 -11 -11 -11 -11
-19 -19 -19 -18 -19 -20 -20 -20 -16 -17 -18 -17 -18 -18 -18 -18 -18 -17 -17 -17 -17 -17 -17 -16 -15 -15 -15 -15 -15 -15 -15 -15 -14 -14 -13 -12 -11 -11 -11 -11 -11 -11 -11 -11 -11
-20 -19 -19 -19 -19 -20 -20 -18 -18 -18 -20 -18 -18 -18 -18 -17 -17 -17 -17 -16 -17 -17 -17 -16 -16 -16 -16 -15 -15 -15 -15 -15 -15 -14 -13 -12 -12 -12 -11 -12 -12 -11 -12 -12 -12
-20 -20 -19 -19 -19 -21 -18 -17 -18 -19 -19 -19 -19 -19 -18 -17 -17 -17 -17 -17 -17 -18 -17 -17 -17 -16 -16 -16 -15 -15 -15 -15 -15 -15 -14 -13 -12 -12 -12 -12 -12 -12 -12 -12 -12
-21 -21 -20 -20 -20 -20 -19 -18 -19 -20 -19 -19 -19 -19 -19 -18 -18 -18 -17 -17 -18 -18 -18 -17 -17 -17 -16 -16 -16 -16 -16 -16 -16 -14 -14 -14 -13 -12 -12 -13 -13 -13 -13 -13 -13
-21 -20 -20 -20 -20 -20 -19 -20 -20 -20 -20 -19 -19 -18 -18 -18 -18 -18 -18 -18 -18 -18 -18 -18 -18 -18 -17 -17 -16 -16 -16 -16 -16 -15 -15 -15 -13 -13 -13 -13 -13 -13 -13 -13 -13
-21 -21 -21 -21 -21 -20 -20 -20 -20 -20 -20 -19 -19 -19 -19 -19 -19 -19 -19 -19 -19 -18 -18 -19 -19 -19 -18 -17 -17 -17 -17 -16 -16 -16 -15 -15 -13 -14 -13 -14 -14 -14 -14 -14 -13
-21 -22 -21 -21 -21 -21 -21 -21 -21 -20 -20 -19 -19 -19 -19 -19 -19 -19 -19 -19 -19 -18 -19 -19 -19 -19 -17 -18 -18 -17 -17 -17 -17 -17 -16 -15 -14 -14 -15 -14 -15 -14 -14 -14 -14
-22 -22 -22 -21 -21 -21 -21 -21 -21 -20 -20 -20 -19 -19 -19 -20 -20 -19 -19 -19 -19 -18 -19 -19 -17 -18 -18 -18 -18 -17 -17 -17 -17 -17 -16 -15 -15 -14 -14 -14 -14 -14 -14 -14 -15
-23 -22 -22 -21 -21 -21 -21 -21 -21 -21 -21 -20 -20 -20 -20 -20 -20 -19 -19 -20 -20 -20 -20 -19 -19 -18 -18 -17 -17 -18 -16 -16 -16 -16 -16 -16 -14 -15 -15 -15 -15 -15 -15 -15 -15

GFSSW_500_temp_102.txt.gz
Temp
-16 -15 -15 -15 -15 -15 -15 -14 -15 -15 -14 -12 -11 -10 -10 -10 -9 -10 -10 -10 -10 -9 -10 -11 -10 -10 -9 -10 -10 -9 -9 -9 -9 -9 -9 -9 -9 -9 -9 -10 -10 -10 -10 -10 -10
-16 -16 -16 -15 -16 -16 -15 -15 -14 -16 -15 -14 -12 -11 -10 -10 -10 -9 -10 -10 -10 -10 -10 -11 -10 -10 -9 -9 -9 -9 -9 -9 -9 -10 -10 -9 -9 -9 -10 -10 -10 -10 -10 -10 -10
-16 -15 -16 -15 -16 -16 -16 -16 -16 -15 -16 -15 -13 -12 -11 -11 -10 -9 -10 -11 -10 -10 -10 -10 -11 -10 -10 -10 -10 -9 -9 -9 -9 -10 -10 -9 -9 -10 -9 -10 -10 -10 -10 -10 -10
-16 -16 -16 -16 -16 -16 -16 -16 -16 -16 -15 -15 -14 -13 -12 -11 -11 -11 -10 -11 -11 -11 -10 -10 -11 -11 -10 -10 -9 -10 -10 -10 -9 -10 -10 -9 -10 -10 -10 -10 -10 -10 -10 -10 -10
-17 -17 -17 -17 -16 -16 -16 -16 -16 -16 -15 -15 -15 -14 -13 -11 -11 -11 -10 -10 -11 -11 -11 -11 -12 -12 -10 -11 -11 -9 -10 -9 -9 -10 -10 -10 -10 -10 -10 -10 -10 -10 -10 -10 -10
-18 -17 -17 -18 -18 -17 -17 -16 -16 -16 -16 -15 -15 -14 -13 -12 -12 -12 -11 -11 -11 -11 -11 -12 -11 -12 -11 -11 -11 -11 -11 -9 -10 -10 -10 -10 -10 -10 -10 -10 -10 -10 -10 -10 -10
-18 -18 -18 -19 -18 -18 -17 -17 -16 -16 -16 -15 -15 -14 -14 -13 -13 -12 -12 -11 -12 -12 -12 -11 -12 -12 -12 -11 -11 -11 -11 -10 -10 -10 -10 -10 -10 -10 -10 -10 -10 -10 -10 -10 -10
-18 -18 -18 -19 -18 -18 -18 -17 -17 -17 -16 -16 -15 -15 -14 -13 -13 -12 -12 -12 -11 -12 -12 -12 -11 -12 -12 -12 -12 -12 -12 -10 -10 -10 -10 -10 -10 -10 -10 -10 -10 -10 -10 -10 -10
-19 -18 -18 -19 -18 -18 -18 -18 -17 -17 -16 -16 -15 -15 -14 -13 -13 -13 -12 -12 -12 -12 -12 -12 -12 -12 -12 -12 -12 -12 -12 -11 -10 -10 -11 -10 -10 -10 -10 -10 -10 -10 -10 -10 -10
-18 -18 -18 -18 -18 -18 -18 -18 -17 -17 -17 -16 -15 -15 -14 -13 -13 -13 -13 -12 -13 -13 -12 -12 -12 -12 -11 -12 -11 -11 -12 -11 -10 -10 -11 -10 -11 -10 -10 -10 -10 -10 -10 -10 -10
-19 -19 -18 -18 -19 -18 -18 -18 -18 -17 -17 -16 -15 -14 -14 -14 -14 -13 -13 -13 -13 -12 -12 -12 -12 -11 -12 -12 -13 -14 -13 -12 -11 -11 -11 -11 -11 -10 -10 -10 -10 -10 -10 -10 -10
-18 -19 -19 -18 -18 -18 -18 -17 -17 -16 -16 -16 -15 -16 -16 -14 -15 -13 -13 -13 -12 -12 -13 -13 -12 -12 -12 -13 -13 -14 -13 -12 -12 -12 -11 -11 -11 -11 -10 -10 -10 -10 -10 -10 -10
-19 -19 -19 -19 -18 -17 -17 -17 -19 -19 -18 -18 -17 -16 -16 -15 -15 -15 -14 -13 -13 -14 -14 -12 -12 -12 -13 -13 -13 -14 -13 -13 -12 -12 -12 -12 -11 -11 -11 -10 -10 -10 -10 -10 -10
-19 -19 -19 -19 -18 -18 -18 -18 -19 -19 -19 -18 -18 -17 -18 -17 -16 -16 -15 -15 -14 -13 -13 -14 -14 -14 -14 -13 -13 -14 -14 -13 -13 -13 -12 -12 -11 -11 -11 -10 -10 -10 -10 -10 -10
-20 -19 -19 -19 -18 -18 -19 -19 -18 -20 -19 -18 -19 -18 -18 -18 -17 -15 -16 -15 -14 -14 -14 -13 -14 -14 -13 -12 -14 -15 -14 -14 -14 -13 -13 -12 -11 -11 -11 -10 -10 -10 -10 -10 -10
-19 -19 -19 -19 -19 -19 -19 -19 -18 -20 -19 -18 -18 -18 -19 -18 -17 -17 -17 -17 -16 -16 -16 -16 -16 -15 -14 -16 -15 -17 -15 -14 -15 -14 -13 -12 -12 -10 -11 -10 -11 -11 -11 -11 -11
-19 -19 -18 -19 -19 -19 -19 -19 -19 -19 -18 -18 -17 -18 -18 -18 -17 -17 -17 -16 -16 -15 -15 -15 -16 -15 -16 -15 -16 -16 -17 -15 -15 -14 -12 -12 -12 -10 -11 -11 -11 -11 -11 -11 -11
-19 -19 -19 -19 -19 -18 -19 -19 -18 -17 -17 -17 -18 -18 -18 -18 -19 -18 -17 -17 -17 -15 -15 -14 -15 -14 -15 -15 -14 -15 -16 -15 -14 -13 -12 -13 -12 -11 -12 -12 -12 -12 -11 -11 -11
-19 -19 -19 -19 -19 -18 -19 -18 -17 -17 -17 -18 -19 -19 -18 -19 -18 -18 -17 -16 -16 -16 -15 -15 -15 -16 -16 -16 -17 -15 -16 -16 -15 -14 -13 -13 -12 -12 -12 -12 -12 -12 -12 -12 -11
-21 -19 -19 -19 -19 -19 -18 -17 -17 -17 -18 -19 -19 -18 -17 -18 -18 -18 -17 -17 -16 -16 -17 -16 -17 -17 -17 -17 -18 -17 -17 -18 -16 -15 -14 -13 -12 -12 -12 -12 -12 -12 -12 -12 -12
-20 -20 -20 -19 -19 -19 -18 -18 -18 -18 -18 -19 -19 -19 -18 -18 -18 -17 -17 -17 -17 -17 -17 -17 -17 -17 -17 -17 -18 -18 -17 -18 -17 -16 -15 -14 -12 -12 -12 -12 -13 -13 -12 -12 -12
-20 -20 -20 -19 -20 -19 -18 -18 -19 -19 -19 -20 -20 -20 -19 -18 -19 -18 -17 -17 -18 -18 -17 -18 -18 -18 -17 -18 -18 -18 -18 -18 -17 -16 -15 -15 -13 -13 -13 -13 -13 -13 -13 -13 -13
-21 -21 -20 -20 -19 -19 -19 -19 -19 -19 -19 -20 -20 -20 -20 -19 -20 -19 -19 -19 -19 -19 -18 -18 -18 -18 -18 -18 -19 -18 -18 -18 -17 -16 -16 -16 -13 -13 -13 -13 -13 -13 -13 -14 -13
-22 -20 -20 -20 -20 -19 -19 -19 -19 -19 -19 -19 -20 -20 -20 -20 -19 -20 -20 -19 -19 -19 -20 -19 -19 -19 -18 -16 -17 -17 -18 -18 -18 -17 -16 -15 -14 -14 -14 -14 -15 -15 -14 -14 -13
-22 -22 -21 -21 -20 -20 -19 -20 -19 -20 -20 -19 -19 -20 -20 -20 -20 -19 -20 -19 -19 -19 -20 -19 -18 -18 -18 -18 -19 -19 -19 -19 -19 -18 -17 -15 -15 -15 -15 -15 -15 -15 -14 -14 -14
-22 -22 -22 -21 -20 -20 -20 -20 -20 -20 -20 -19 -19 -20 -20 -20 -19 -19 -19 -19 -19 -19 -20 -19 -18 -18 -19 -19 -19 -19 -20 -19 -18 -17 -17 -15 -15 -15 -15 -15 -15 -15 -15 -15 -14
-22 -23 -23 -22 -21 -21 -20 -20 -20 -20 -20 -20 -20 -20 -20 -20 -20 -20 -20 -21 -20 -20 -20 -20 -19 -20 -19 -19 -19 -19 -17 -18 -17 -17 -16 -16 -13 -16 -16 -15 -15 -16 -16 -16 -16

GFSSW_500_temp_105.txt.gz
Temp
-16 -15 -15 -15 -15 -15 -14 -13 -12 -13 -13 -13 -12 -11 -11 -10 -10 -9 -10 -10 -9 -9 -9 -9 -10 -10 -9 -9 -10 -9 -9 -8 -8 -8 -9 -9 -9 -9 -9 -10 -10 -10 -10 -10 -10
-17 -17 -16 -15 -16 -15 -15 -14 -13 -14 -14 -14 -13 -12 -11 -11 -11 -10 -11 -11 -10 -10 -11 -10 -11 -10 -10 -10 -10 -10 -9 -8 -8 -8 -9 -9 -9 -9 -10 -10 -10 -10 -11 -11 -10
-17 -17 -17 -16 -15 -16 -16 -15 -15 -14 -14 -14 -14 -13 -12 -12 -11 -10 -10 -11 -11 -11 -11 -10 -11 -10 -10 -10 -10 -10 -10 -9 -8 -9 -9 -9 -9 -9 -10 -9 -10 -10 -11 -11 -11
-17 -17 -17 -16 -16 -15 -16 -16 -16 -16 -15 -14 -14 -13 -13 -13 -12 -11 -10 -11 -11 -10 -11 -11 -11 -11 -11 -10 -10 -10 -10 -9 -9 -9 -9 -9 -10 -9 -10 -10 -10 -10 -10 -10 -11
-17 -17 -17 -17 -16 -16 -16 -16 -16 -16 -15 -15 -14 -13 -14 -14 -13 -12 -11 -11 -11 -11 -11 -11 -10 -12 -12 -10 -10 -10 -10 -11 -9 -9 -9 -9 -10 -10 -10 -10 -10 -10 -10 -10 -10
-17 -17 -17 -17 -17 -16 -16 -16 -16 -16 -16 -15 -15 -14 -13 -13 -13 -13 -12 -11 -11 -11 -10 -11 -11 -12 -12 -11 -10 -10 -10 -10 -10 -9 -10 -9 -10 -10 -10 -10 -10 -10 -10 -10 -10
-17 -17 -17 -17 -17 -18 -16 -17 -16 -16 -16 -16 -15 -15 -14 -14 -14 -13 -12 -12 -12 -12 -11 -11 -11 -11 -11 -12 -12 -11 -10 -10 -10 -9 -10 -10 -9 -10 -10 -10 -10 -10 -10 -10 -10
-17 -18 -18 -17 -17 -18 -18 -17 -16 -16 -16 -16 -16 -15 -15 -14 -13 -13 -13 -13 -12 -11 -12 -11 -11 -11 -11 -12 -12 -11 -11 -11 -11 -10 -10 -10 -10 -11 -10 -10 -10 -10 -10 -10 -10
-18 -18 -18 -18 -18 -18 -18 -17 -17 -17 -17 -16 -16 -15 -15 -14 -13 -13 -13 -13 -13 -12 -12 -12 -11 -12 -12 -11 -12 -12 -11 -11 -12 -12 -10 -10 -10 -11 -10 -10 -10 -10 -10 -10 -10
-18 -18 -18 -18 -18 -18 -18 -18 -17 -17 -17 -16 -16 -16 -15 -14 -14 -13 -13 -14 -13 -12 -12 -12 -12 -12 -11 -11 -11 -11 -12 -12 -12 -11 -10 -10 -11 -10 -11 -10 -10 -10 -10 -10 -10
-18 -18 -19 -18 -18 -18 -18 -18 -18 -18 -16 -16 -14 -15 -14 -14 -14 -14 -13 -13 -13 -13 -12 -12 -12 -11 -11 -12 -12 -12 -12 -12 -12 -12 -11 -11 -11 -11 -11 -11 -10 -10 -10 -10 -10
-18 -18 -18 -19 -19 -19 -18 -17 -17 -16 -15 -15 -15 -15 -15 -14 -14 -13 -13 -13 -13 -13 -12 -12 -11 -12 -13 -12 -13 -13 -12 -12 -13 -13 -12 -12 -11 -11 -11 -11 -11 -11 -11 -10 -10
-18 -18 -19 -19 -18 -18 -18 -18 -18 -18 -18 -17 -17 -16 -16 -15 -14 -14 -13 -13 -13 -13 -13 -12 -12 -13 -12 -12 -13 -12 -12 -12 -13 -15 -13 -12 -12 -11 -11 -11 -11 -11 -11 -10 -10
-18 -19 -19 -19 -18 -19 -18 -18 -18 -19 -19 -18 -18 -18 -17 -16 -16 -15 -14 -14 -13 -13 -13 -13 -13 -13 -12 -12 -13 -13 -12 -13 -15 -16 -14 -13 -11 -11 -11 -11 -10 -11 -11 -11 -11
-19 -19 -19 -18 -18 -18 -18 -18 -18 -19 -20 -19 -19 -19 -18 -18 -17 -16 -15 -14 -13 -14 -13 -12 -13 -12 -12 -12 -13 -13 -14 -14 -15 -16 -14 -13 -12 -11 -11 -10 -11 -11 -11 -11 -11
-19 -19 -18 -19 -19 -19 -18 -18 -18 -20 -19 -18 -18 -18 -18 -18 -17 -18 -17 -16 -15 -14 -14 -14 -14 -14 -13 -14 -13 -14 -14 -15 -15 -15 -16 -13 -12 -10 -11 -10 -11 -11 -11 -11 -11
-19 -19 -19 -19 -18 -19 -19 -18 -19 -18 -19 -17 -17 -17 -17 -17 -17 -17 -16 -15 -15 -14 -14 -14 -13 -13 -15 -15 -15 -14 -14 -15 -15 -15 -12 -13 -12 -10 -11 -11 -11 -12 -11 -11 -11
-19 -19 -18 -19 -20 -19 -19 -19 -18 -17 -17 -17 -17 -18 -18 -18 -19 -18 -18 -17 -16 -15 -15 -14 -14 -13 -14 -14 -14 -14 -15 -14 -13 -13 -12 -13 -12 -11 -11 -11 -12 -12 -12 -12 -11
-19 -20 -19 -19 -19 -19 -19 -19 -17 -17 -17 -16 -17 -18 -18 -18 -19 -18 -18 -16 -16 -16 -15 -14 -14 -14 -14 -15 -16 -15 -15 -15 -15 -15 -15 -14 -12 -12 -11 -11 -12 -12 -12 -12 -12
-20 -20 -19 -19 -20 -19 -19 -18 -18 -18 -18 -17 -17 -17 -17 -17 -18 -18 -17 -16 -16 -16 -17 -16 -16 -15 -15 -16 -16 -15 -16 -16 -16 -16 -15 -14 -13 -12 -12 -12 -12 -12 -12 -12 -12
-20 -19 -19 -19 -19 -19 -18 -18 -18 -18 -18 -17 -17 -18 -17 -17 -17 -17 -17 -16 -17 -17 -17 -17 -16 -16 -17 -17 -16 -16 -16 -16 -16 -16 -15 -14 -13 -13 -13 -13 -13 -13 -13 -13 -13
-21 -20 -20 -19 -19 -19 -18 -18 -18 -18 -18 -18 -18 -19 -19 -19 -19 -18 -17 -17 -18 -18 -17 -17 -16 -16 -17 -17 -18 -17 -17 -18 -18 -15 -15 -15 -13 -13 -14 -14 -13 -13 -13 -13 -13
-22 -20 -20 -19 -20 -19 -19 -19 -19 -19 -18 -18 -18 -19 -19 -20 -20 -19 -18 -19 -19 -19 -18 -17 -18 -17 -18 -18 -18 -17 -17 -17 -18 -18 -17 -17 -12 -15 -15 -15 -14 -14 -14 -14 -13
-22 -21 -20 -20 -19 -19 -18 -19 -19 -19 -19 -19 -19 -19 -20 -19 -19 -19 -19 -20 -20 -19 -19 -19 -20 -19 -18 -16 -17 -17 -17 -18 -19 -19 -17 -15 -14 -16 -16 -16 -16 -15 -15 -14 -14
-22 -23 -21 -20 -20 -19 -19 -19 -19 -19 -19 -19 -19 -19 -19 -19 -20 -19 -20 -20 -20 -20 -19 -20 -19 -19 -19 -18 -19 -19 -19 -19 -19 -18 -18 -13 -16 -17 -16 -16 -16 -16 -16 -15 -15
-23 -22 -22 -21 -20 -20 -20 -20 -19 -19 -19 -18 -19 -19 -19 -19 -18 -18 -19 -19 -19 -19 -20 -19 -18 -18 -19 -19 -19 -19 -19 -19 -18 -18 -15 -16 -14 -16 -16 -16 -16 -16 -16 -15 -15
-24 -24 -24 -22 -22 -21 -20 -19 -19 -20 -20 -19 -20 -20 -20 -19 -19 -20 -20 -20 -20 -20 -20 -20 -19 -19 -18 -19 -20 -20 -17 -18 -18 -17 -15 -15 -14 -17 -17 -16 -16 -17 -16 -16 -16

GFSSW_500_temp_108.txt.gz
Temp
-15 -16 -16 -15 -15 -14 -13 -13 -12 -12 -11 -11 -11 -11 -10 -10 -10 -10 -10 -10 -10 -10 -10 -9 -8 -10 -10 -10 -10 -10 -10 -9 -9 -9 -9 -9 -9 -9 -9 -9 -9 -9 -10 -10 -10
-15 -16 -16 -16 -15 -15 -15 -14 -13 -13 -13 -12 -12 -12 -11 -11 -10 -10 -10 -10 -10 -10 -10 -10 -11 -9 -9 -9 -9 -9 -10 -10 -9 -9 -9 -9 -9 -10 -9 -9 -10 -9 -10 -10 -10
-16 -16 -17 -16 -16 -16 -16 -16 -15 -14 -14 -14 -13 -12 -12 -11 -11 -11 -11 -10 -10 -11 -11 -11 -10 -9 -8 -10 -10 -9 -10 -10 -10 -9 -9 -9 -9 -10 -9 -9 -10 -10 -10 -11 -11
-17 -16 -16 -17 -16 -16 -16 -16 -16 -15 -15 -15 -14 -13 -12 -12 -11 -11 -11 -11 -11 -11 -11 -11 -11 -10 -10 -11 -10 -10 -10 -10 -9 -9 -9 -10 -9 -10 -10 -10 -9 -10 -10 -10 -11
-16 -17 -16 -17 -16 -16 -16 -16 -16 -16 -16 -15 -15 -14 -13 -12 -12 -12 -12 -12 -11 -11 -11 -10 -11 -11 -11 -10 -10 -10 -10 -10 -9 -9 -9 -10 -10 -10 -10 -10 -10 -10 -10 -11 -11
-16 -16 -16 -17 -17 -16 -16 -16 -16 -16 -16 -16 -15 -15 -14 -13 -12 -13 -12 -12 -12 -12 -11 -11 -11 -11 -11 -11 -10 -11 -10 -10 -10 -10 -9 -9 -10 -9 -10 -10 -10 -10 -11 -10 -11
-16 -16 -17 -17 -16 -17 -16 -16 -16 -16 -16 -16 -16 -15 -14 -14 -13 -12 -13 -13 -13 -13 -11 -11 -11 -11 -11 -11 -10 -11 -10 -10 -10 -10 -10 -9 -9 -10 -10 -10 -10 -10 -11 -10 -10
-17 -17 -17 -16 -17 -17 -17 -17 -16 -16 -16 -16 -16 -16 -15 -14 -13 -12 -12 -13 -13 -12 -12 -11 -11 -11 -11 -11 -11 -10 -11 -10 -10 -10 -9 -10 -10 -10 -10 -10 -10 -10 -10 -11 -10
-18 -17 -17 -17 -17 -17 -17 -17 -16 -16 -16 -16 -16 -16 -16 -15 -14 -13 -12 -13 -13 -13 -12 -12 -11 -11 -11 -11 -11 -11 -9 -11 -12 -10 -10 -10 -10 -10 -10 -10 -11 -10 -10 -11 -10
-18 -18 -17 -17 -17 -17 -17 -17 -16 -16 -17 -16 -17 -16 -16 -15 -14 -14 -13 -13 -13 -13 -13 -13 -12 -12 -12 -11 -11 -11 -10 -11 -12 -11 -10 -10 -11 -11 -10 -10 -11 -10 -10 -10 -11
-18 -18 -17 -18 -17 -18 -17 -17 -17 -17 -15 -16 -15 -15 -15 -15 -14 -14 -14 -13 -13 -13 -13 -13 -13 -12 -12 -12 -12 -12 -11 -11 -12 -12 -12 -11 -11 -11 -11 -10 -10 -11 -10 -10 -11
-18 -18 -18 -18 -18 -17 -18 -17 -17 -15 -16 -16 -16 -15 -15 -15 -15 -14 -14 -13 -13 -13 -13 -12 -12 -12 -12 -12 -12 -12 -12 -11 -12 -12 -12 -11 -11 -12 -11 -11 -11 -11 -11 -11 -11
-18 -18 -18 -18 -18 -18 -17 -17 -17 -17 -17 -17 -16 -16 -16 -15 -15 -15 -14 -13 -13 -13 -13 -13 -12 -13 -12 -12 -12 -12 -12 -12 -12 -12 -12 -12 -11 -12 -12 -11 -11 -11 -11 -11 -11
-18 -18 -18 -18 -18 -18 -18 -18 -18 -18 -17 -17 -17 -17 -16 -16 -15 -15 -15 -14 -13 -13 -13 -13 -13 -13 -12 -12 -13 -13 -13 -12 -12 -13 -12 -12 -10 -12 -12 -11 -10 -11 -11 -11 -11
-18 -18 -18 -18 -19 -18 -18 -18 -18 -18 -18 -18 -18 -18 -18 -17 -16 -15 -15 -14 -14 -14 -13 -12 -12 -12 -12 -12 -13 -13 -13 -12 -12 -13 -12 -11 -11 -10 -12 -11 -11 -11 -11 -11 -11
-18 -19 -18 -19 -19 -18 -18 -18 -18 -19 -20 -18 -18 -18 -18 -18 -17 -17 -15 -15 -15 -15 -14 -14 -14 -13 -13 -14 -14 -13 -13 -13 -12 -13 -12 -11 -11 -9 -10 -11 -11 -12 -11 -11 -11
-18 -19 -19 -19 -19 -19 -19 -19 -19 -19 -18 -17 -17 -17 -17 -17 -17 -17 -16 -15 -15 -14 -13 -13 -13 -12 -13 -13 -13 -13 -13 -14 -13 -13 -11 -11 -12 -9 -10 -12 -12 -12 -12 -12 -12
-18 -19 -19 -19 -19 -19 -19 -19 -19 -17 -17 -17 -17 -18 -18 -18 -19 -18 -17 -16 -15 -15 -15 -14 -13 -13 -12 -12 -12 -12 -13 -14 -13 -12 -12 -12 -11 -9 -11 -12 -12 -12 -12 -12 -11
-19 -19 -19 -19 -19 -19 -19 -19 -17 -17 -17 -17 -17 -18 -18 -19 -19 -18 -17 -15 -16 -15 -15 -14 -14 -14 -14 -13 -13 -13 -13 -14 -14 -14 -14 -12 -11 -12 -12 -12 -12 -12 -12 -12 -12
-21 -20 -19 -18 -20 -19 -19 -18 -17 -18 -18 -18 -18 -17 -17 -17 -17 -17 -17 -16 -16 -16 -16 -15 -16 -16 -15 -15 -15 -14 -15 -15 -14 -13 -13 -12 -12 -11 -12 -12 -13 -12 -12 -13 -12
-21 -20 -19 -19 -19 -20 -18 -18 -18 -18 -18 -17 -17 -17 -17 -17 -17 -17 -16 -16 -17 -16 -16 -16 -17 -16 -17 -16 -15 -15 -14 -14 -14 -14 -13 -12 -11 -12 -12 -13 -13 -14 -13 -13 -13
-23 -21 -19 -20 -20 -20 -19 -18 -19 -18 -18 -17 -17 -17 -17 -17 -17 -17 -17 -17 -17 -17 -17 -17 -17 -17 -17 -17 -17 -17 -17 -16 -16 -14 -13 -13 -11 -13 -12 -13 -14 -15 -14 -14 -13
-23 -21 -21 -20 -20 -20 -19 -19 -18 -18 -18 -18 -18 -18 -18 -18 -19 -18 -18 -18 -18 -18 -17 -17 -17 -18 -18 -18 -17 -17 -17 -16 -16 -16 -15 -15 -9 -14 -14 -14 -15 -15 -16 -15 -14
-23 -22 -21 -20 -20 -19 -19 -18 -18 -18 -18 -18 -18 -18 -18 -19 -19 -19 -18 -18 -18 -18 -18 -19 -20 -19 -18 -17 -17 -17 -17 -17 -17 -18 -15 -14 -12 -14 -14 -15 -16 -17 -16 -15 -15
-23 -23 -21 -21 -20 -20 -19 -19 -18 -18 -18 -18 -18 -18 -18 -18 -19 -17 -17 -17 -18 -19 -19 -20 -19 -19 -18 -18 -19 -18 -19 -19 -19 -18 -18 -12 -15 -14 -15 -16 -17 -18 -17 -16 -16
-23 -23 -22 -21 -21 -21 -20 -19 -19 -18 -18 -18 -18 -18 -19 -19 -18 -17 -18 -18 -18 -20 -20 -20 -18 -19 -18 -18 -19 -19 -20 -20 -18 -17 -15 -14 -12 -13 -17 -17 -17 -17 -17 -17 -17
-24 -23 -23 -22 -21 -21 -20 -19 -19 -19 -19 -19 -19 -19 -19 -18 -19 -20 -20 -20 -20 -20 -21 -21 -19 -19 -18 -19 -20 -20 -18 -18 -17 -16 -15 -14 -14 -16 -17 -17 -18 -18 -18 -17 -17

GFSSW_500_temp_111.txt.gz
Temp
-16 -16 -16 -16 -16 -15 -15 -13 -13 -13 -12 -12 -11 -11 -11 -10 -10 -10 -10 -10 -10 -10 -10 -9 -9 -9 -9 -10 -9 -9 -10 -9 -10 -10 -9 -9 -10 -9 -9 -9 -8 -9 -9 -9 -9
-18 -16 -16 -16 -16 -15 -15 -15 -14 -14 -13 -12 -12 -11 -11 -11 -11 -11 -10 -10 -10 -10 -10 -10 -10 -9 -10 -9 -9 -10 -10 -10 -10 -10 -10 -9 -10 -9 -9 -9 -9 -10 -10 -10 -9
-16 -17 -17 -16 -16 -16 -15 -15 -15 -15 -14 -13 -12 -12 -11 -11 -11 -11 -11 -10 -10 -11 -10 -11 -10 -10 -10 -9 -10 -10 -9 -10 -9 -9 -10 -9 -9 -9 -9 -10 -10 -9 -9 -10 -10
-17 -16 -16 -16 -16 -16 -16 -15 -16 -16 -15 -14 -13 -13 -12 -11 -11 -11 -11 -11 -11 -11 -11 -11 -10 -10 -10 -9 -10 -10 -10 -10 -10 -9 -10 -9 -9 -10 -10 -10 -10 -9 -10 -10 -10
-19 -18 -17 -17 -17 -16 -16 -16 -15 -16 -16 -15 -14 -14 -12 -12 -11 -12 -11 -12 -12 -11 -11 -11 -11 -10 -10 -10 -10 -10 -10 -10 -10 -9 -10 -10 -9 -10 -10 -10 -10 -10 -10 -10 -11
-19 -18 -18 -17 -16 -16 -16 -16 -16 -15 -16 -16 -15 -15 -14 -12 -13 -13 -12 -12 -12 -12 -12 -12 -11 -10 -10 -10 -10 -10 -10 -10 -9 -9 -10 -10 -10 -9 -10 -10 -10 -10 -10 -10 -10
-19 -18 -17 -17 -16 -17 -16 -16 -16 -16 -16 -16 -16 -15 -15 -14 -13 -13 -12 -12 -12 -12 -12 -11 -11 -11 -11 -10 -10 -11 -11 -9 -10 -10 -10 -10 -10 -9 -10 -10 -10 -10 -10 -10 -11
-18 -17 -17 -17 -16 -16 -17 -16 -16 -16 -16 -16 -16 -16 -15 -15 -13 -13 -13 -12 -12 -12 -12 -11 -12 -12 -12 -11 -10 -11 -11 -10 -10 -10 -10 -10 -10 -10 -10 -10 -10 -10 -10 -10 -11
-18 -18 -17 -16 -17 -17 -16 -16 -16 -16 -16 -16 -16 -16 -16 -15 -14 -14 -13 -13 -13 -12 -12 -12 -12 -12 -11 -11 -11 -11 -10 -11 -11 -10 -10 -10 -10 -10 -10 -10 -10 -10 -10 -10 -10
-18 -17 -17 -16 -17 -17 -17 -17 -16 -16 -16 -16 -16 -17 -16 -15 -15 -14 -13 -13 -13 -12 -12 -12 -12 -12 -12 -11 -10 -11 -11 -11 -11 -11 -11 -10 -10 -10 -11 -10 -10 -10 -10 -11 -10
-18 -19 -17 -17 -16 -17 -17 -17 -17 -15 -16 -16 -14 -15 -15 -15 -15 -15 -14 -13 -13 -13 -12 -12 -12 -12 -12 -12 -12 -12 -12 -11 -12 -11 -11 -10 -10 -10 -10 -10 -10 -10 -10 -10 -11
-19 -19 -17 -17 -17 -17 -17 -16 -16 -15 -15 -16 -15 -15 -16 -16 -15 -15 -14 -14 -13 -12 -12 -12 -12 -11 -12 -13 -12 -12 -12 -12 -12 -12 -10 -11 -11 -11 -10 -10 -10 -10 -11 -11 -11
-19 -19 -18 -17 -17 -17 -17 -17 -17 -15 -16 -15 -16 -16 -16 -16 -16 -15 -14 -14 -13 -13 -13 -12 -12 -12 -12 -12 -12 -13 -13 -12 -12 -12 -11 -11 -10 -11 -11 -10 -10 -10 -11 -11 -11
-18 -18 -18 -18 -18 -17 -17 -17 -16 -15 -16 -16 -16 -16 -16 -16 -16 -16 -15 -15 -14 -13 -13 -13 -13 -12 -12 -12 -12 -12 -12 -13 -12 -12 -12 -11 -9 -10 -11 -10 -10 -10 -11 -11 -11
-19 -18 -18 -18 -18 -17 -17 -17 -16 -16 -17 -16 -17 -16 -16 -16 -15 -16 -15 -15 -14 -13 -13 -12 -13 -13 -12 -12 -13 -12 -12 -12 -12 -13 -12 -11 -10 -9 -10 -10 -10 -10 -10 -11 -11
-18 -19 -19 -18 -17 -18 -17 -17 -17 -17 -17 -17 -17 -17 -17 -16 -16 -16 -15 -15 -14 -14 -14 -14 -13 -13 -13 -13 -12 -13 -13 -13 -13 -12 -12 -11 -11 -8 -9 -10 -10 -10 -11 -11 -12
-19 -19 -19 -18 -18 -18 -18 -18 -18 -17 -18 -17 -17 -17 -17 -16 -16 -17 -16 -15 -15 -14 -14 -13 -13 -13 -13 -13 -12 -12 -12 -13 -13 -12 -11 -12 -12 -9 -10 -10 -10 -11 -11 -12 -12
-19 -19 -19 -19 -19 -19 -18 -18 -18 -18 -18 -17 -17 -17 -17 -17 -17 -17 -16 -16 -15 -15 -14 -13 -13 -13 -12 -12 -12 -12 -12 -12 -12 -12 -12 -12 -11 -11 -11 -11 -11 -11 -12 -12 -12
-19 -19 -19 -19 -19 -18 -19 -18 -18 -17 -16 -16 -17 -18 -18 -17 -17 -17 -16 -15 -15 -15 -14 -14 -14 -14 -13 -14 -13 -12 -12 -13 -13 -12 -12 -11 -11 -12 -11 -11 -12 -12 -13 -13 -13
-19 -20 -19 -19 -18 -19 -19 -18 -18 -18 -17 -17 -17 -17 -16 -17 -16 -16 -16 -15 -15 -15 -15 -15 -16 -15 -16 -16 -15 -14 -14 -15 -15 -13 -12 -11 -11 -11 -11 -12 -12 -13 -14 -15 -14
-20 -20 -20 -20 -19 -19 -19 -18 -18 -18 -17 -17 -16 -17 -16 -16 -16 -16 -15 -15 -15 -16 -16 -16 -16 -16 -17 -15 -15 -15 -14 -14 -14 -14 -13 -12 -11 -11 -11 -11 -12 -13 -14 -14 -14
-22 -21 -20 -19 -19 -19 -19 -19 -19 -19 -18 -17 -17 -18 -17 -17 -17 -17 -16 -16 -17 -17 -18 -18 -18 -17 -17 -17 -17 -16 -16 -16 -16 -15 -14 -14 -12 -11 -12 -12 -13 -13 -14 -14 -14
-23 -22 -20 -21 -20 -19 -19 -19 -19 -18 -18 -18 -18 -18 -18 -17 -17 -17 -17 -17 -17 -18 -17 -18 -18 -18 -18 -18 -17 -16 -16 -16 -16 -16 -15 -15 -11 -13 -13 -13 -13 -15 -15 -15 -16
-25 -23 -21 -20 -21 -20 -20 -19 -19 -19 -19 -19 -19 -18 -18 -18 -18 -18 -18 -19 -19 -19 -19 -19 -19 -19 -18 -17 -17 -17 -17 -17 -17 -18 -15 -15 -12 -11 -13 -14 -16 -16 -16 -15 -16
-26 -24 -21 -20 -21 -20 -20 -19 -19 -19 -19 -19 -19 -19 -18 -18 -18 -18 -19 -19 -19 -19 -20 -20 -19 -18 -18 -18 -18 -17 -17 -18 -19 -17 -17 -13 -14 -13 -15 -15 -15 -16 -16 -15 -15
-26 -25 -23 -21 -21 -21 -20 -20 -19 -19 -19 -18 -18 -18 -18 -18 -17 -17 -17 -18 -18 -19 -19 -19 -18 -18 -18 -18 -18 -18 -19 -19 -18 -16 -16 -14 -13 -13 -14 -17 -17 -17 -17 -16 -16
-26 -26 -24 -22 -21 -21 -20 -20 -20 -20 -19 -19 -19 -19 -18 -18 -19 -20 -20 -20 -20 -20 -20 -20 -18 -18 -17 -18 -19 -20 -17 -18 -18 -18 -16 -15 -13 -16 -16 -17 -17 -17 -16 -16 -16

GFSSW_500_temp_114.txt.gz
Temp
-16 -16 -16 -16 -16 -16 -15 -14 -14 -14 -13 -12 -12 -11 -11 -11 -10 -10 -9 -10 -9 -10 -9 -9 -9 -9 -9 -9 -10 -10 -10 -9 -9 -9 -9 -9 -9 -9 -9 -9 -9 -9 -8 -8 -8
-19 -16 -16 -17 -16 -16 -16 -15 -15 -15 -14 -13 -12 -11 -11 -10 -10 -10 -11 -10 -9 -9 -10 -10 -9 -9 -10 -10 -10 -10 -10 -10 -9 -9 -9 -9 -9 -9 -9 -9 -9 -9 -8 -8 -9
-20 -16 -16 -16 -16 -16 -15 -15 -15 -15 -15 -14 -13 -12 -11 -11 -10 -11 -11 -10 -10 -10 -10 -10 -10 -9 -9 -10 -10 -10 -10 -10 -10 -10 -10 -9 -9 -9 -9 -9 -9 -9 -8 -9 -9
-21 -19 -17 -17 -16 -16 -15 -15 -15 -15 -15 -14 -14 -13 -12 -11 -11 -12 -11 -11 -11 -10 -10 -10 -10 -10 -9 -10 -10 -10 -9 -10 -10 -9 -10 -10 -10 -10 -10 -10 -9 -9 -9 -9 -9
-21 -20 -17 -17 -17 -17 -16 -16 -15 -15 -15 -15 -14 -14 -12 -11 -11 -11 -11 -11 -11 -10 -10 -10 -11 -11 -11 -10 -10 -10 -10 -10 -10 -9 -9 -10 -10 -10 -10 -10 -9 -9 -10 -10 -9
-22 -21 -19 -17 -16 -16 -16 -16 -15 -16 -15 -15 -15 -14 -13 -12 -12 -12 -12 -11 -11 -11 -10 -10 -11 -11 -10 -10 -11 -11 -10 -10 -9 -9 -10 -10 -10 -10 -10 -10 -10 -10 -10 -10 -9
-22 -21 -19 -18 -17 -16 -16 -16 -16 -16 -15 -15 -16 -15 -14 -14 -13 -12 -12 -12 -12 -11 -11 -11 -11 -11 -11 -10 -10 -10 -11 -10 -10 -10 -9 -10 -10 -10 -10 -10 -10 -10 -10 -10 -10
-22 -21 -19 -18 -16 -17 -16 -16 -16 -16 -16 -15 -15 -15 -15 -15 -14 -13 -12 -12 -12 -11 -11 -11 -12 -11 -11 -11 -11 -11 -10 -10 -10 -10 -9 -9 -10 -10 -10 -10 -10 -10 -10 -10 -10
-22 -20 -18 -18 -16 -16 -16 -16 -16 -16 -16 -16 -15 -16 -15 -15 -14 -14 -13 -12 -12 -12 -11 -12 -12 -12 -11 -11 -11 -11 -11 -11 -11 -10 -10 -9 -10 -9 -10 -10 -10 -10 -10 -10 -10
-22 -20 -20 -17 -17 -16 -17 -16 -16 -16 -16 -16 -15 -16 -15 -15 -15 -14 -13 -13 -12 -12 -12 -12 -12 -12 -11 -10 -11 -11 -11 -11 -11 -11 -10 -10 -10 -10 -10 -10 -10 -10 -10 -10 -10
-22 -21 -19 -19 -18 -17 -16 -16 -17 -17 -17 -15 -15 -14 -15 -15 -15 -15 -14 -13 -13 -13 -12 -11 -12 -11 -11 -12 -12 -12 -12 -11 -11 -11 -10 -10 -10 -10 -10 -10 -10 -10 -10 -10 -10
-21 -20 -19 -18 -18 -17 -17 -16 -16 -14 -15 -16 -15 -15 -15 -15 -15 -15 -14 -14 -13 -13 -12 -12 -12 -12 -12 -12 -12 -13 -11 -11 -11 -11 -11 -10 -10 -10 -10 -10 -10 -10 -10 -10 -10
-20 -19 -18 -18 -17 -17 -17 -16 -17 -16 -16 -15 -15 -16 -15 -15 -15 -15 -14 -14 -14 -13 -13 -12 -12 -12 -12 -12 -12 -12 -12 -12 -12 -12 -12 -11 -10 -10 -10 -10 -9 -9 -10 -10 -10
-19 -18 -18 -18 -17 -16 -17 -16 -17 -16 -15 -14 -15 -16 -16 -16 -16 -15 -15 -14 -14 -14 -14 -14 -13 -13 -12 -12 -12 -12 -12 -13 -12 -12 -12 -12 -10 -10 -10 -10 -10 -10 -10 -10 -10
-20 -19 -18 -18 -17 -17 -17 -16 -17 -16 -16 -16 -15 -15 -16 -16 -15 -15 -15 -15 -14 -14 -13 -13 -13 -13 -13 -12 -12 -12 -12 -12 -12 -11 -11 -11 -11 -10 -11 -10 -10 -10 -10 -10 -11
-21 -19 -19 -18 -17 -17 -17 -17 -17 -17 -16 -15 -15 -16 -16 -16 -17 -16 -16 -15 -15 -15 -15 -14 -14 -13 -13 -13 -13 -12 -12 -12 -12 -12 -11 -11 -11 -9 -10 -11 -10 -10 -10 -11 -11
-21 -19 -19 -18 -18 -18 -17 -17 -17 -17 -17 -16 -16 -16 -16 -16 -16 -16 -16 -15 -15 -15 -15 -14 -14 -14 -13 -13 -13 -12 -12 -12 -12 -12 -11 -11 -11 -9 -10 -10 -11 -11 -11 -11 -11
-21 -20 -19 -18 -18 -18 -18 -17 -17 -17 -18 -16 -16 -16 -16 -16 -16 -17 -16 -16 -15 -15 -14 -14 -14 -13 -13 -13 -13 -12 -12 -12 -12 -12 -12 -11 -11 -10 -11 -10 -11 -11 -12 -12 -12
-20 -20 -19 -19 -18 -18 -18 -18 -17 -17 -17 -16 -16 -16 -16 -16 -16 -16 -16 -15 -15 -14 -14 -14 -14 -14 -13 -13 -13 -13 -13 -12 -12 -12 -11 -11 -11 -11 -11 -10 -11 -11 -11 -11 -12
-21 -20 -19 -19 -19 -18 -18 -18 -17 -17 -17 -17 -16 -17 -16 -16 -16 -16 -15 -15 -15 -15 -15 -14 -14 -14 -14 -14 -13 -13 -14 -14 -14 -13 -12 -11 -11 -11 -11 -11 -11 -12 -11 -12 -12
-21 -20 -20 -19 -19 -19 -18 -18 -18 -17 -17 -17 -17 -17 -16 -16 -15 -15 -15 -15 -15 -15 -15 -15 -15 -15 -14 -14 -13 -14 -13 -13 -13 -13 -13 -12 -12 -11 -11 -11 -11 -11 -11 -11 -12
-23 -21 -20 -19 -19 -19 -18 -18 -18 -18 -18 -17 -17 -17 -17 -16 -16 -16 -15 -16 -16 -15 -16 -15 -15 -15 -15 -15 -15 -15 -15 -15 -15 -14 -14 -14 -12 -12 -12 -12 -11 -12 -12 -12 -12
-25 -21 -20 -20 -20 -19 -19 -18 -18 -18 -17 -16 -17 -17 -17 -16 -17 -17 -16 -17 -17 -17 -17 -16 -17 -17 -17 -17 -15 -14 -15 -15 -16 -16 -15 -15 -12 -14 -12 -13 -12 -13 -13 -12 -13
-25 -22 -20 -21 -21 -19 -19 -18 -18 -19 -18 -17 -17 -16 -17 -17 -17 -17 -17 -17 -17 -18 -18 -18 -18 -18 -17 -16 -17 -17 -17 -17 -17 -17 -16 -16 -13 -13 -14 -15 -15 -15 -15 -14 -14
-26 -23 -21 -21 -20 -20 -19 -19 -18 -18 -18 -17 -17 -17 -17 -17 -18 -18 -17 -18 -18 -18 -18 -18 -18 -17 -17 -18 -18 -18 -18 -18 -17 -16 -17 -14 -13 -14 -14 -15 -16 -16 -16 -16 -15
-27 -24 -22 -22 -22 -20 -20 -19 -19 -18 -18 -17 -17 -17 -17 -18 -17 -16 -17 -17 -17 -17 -19 -18 -18 -18 -18 -18 -18 -18 -18 -17 -17 -16 -16 -14 -14 -14 -14 -15 -16 -16 -17 -16 -16
-27 -25 -23 -22 -22 -21 -20 -20 -19 -19 -19 -18 -18 -18 -18 -18 -19 -19 -19 -19 -18 -19 -19 -19 -18 -19 -18 -19 -19 -19 -15 -16 -16 -16 -16 -15 -14 -16 -15 -15 -16 -17 -17 -16 -16

GFSSW_500_temp_117.txt.gz
Temp
-16 -16 -17 -17 -17 -15 -15 -14 -13 -13 -14 -14 -12 -12 -11 -11 -10 -10 -10 -11 -10 -10 -9 -10 -10 -11 -10 -10 -10 -10 -10 -9 -10 -10 -10 -10 -9 -9 -9 -8 -8 -8 -8 -8 -8
-17 -17 -17 -16 -16 -16 -16 -15 -14 -14 -14 -14 -13 -12 -12 -11 -10 -10 -11 -11 -10 -10 -10 -10 -10 -10 -10 -10 -10 -10 -10 -10 -10 -10 -10 -10 -9 -9 -9 -8 -9 -8 -8 -8 -8
-19 -18 -17 -17 -16 -16 -16 -16 -15 -15 -14 -14 -14 -13 -12 -11 -10 -10 -11 -11 -11 -11 -11 -10 -9 -10 -10 -10 -10 -10 -10 -10 -10 -10 -10 -10 -9 -9 -9 -9 -9 -9 -9 -9 -9
-20 -20 -18 -18 -16 -16 -17 -16 -15 -15 -15 -15 -14 -14 -13 -12 -10 -12 -12 -11 -11 -11 -10 -10 -10 -10 -10 -10 -10 -10 -10 -10 -10 -10 -10 -10 -10 -9 -9 -9 -9 -9 -9 -9 -9
-22 -22 -20 -18 -17 -17 -16 -17 -16 -16 -15 -15 -14 -14 -14 -12 -11 -12 -12 -11 -11 -11 -11 -11 -10 -10 -10 -10 -10 -10 -10 -10 -10 -10 -10 -10 -10 -10 -10 -9 -9 -9 -9 -9 -9
-23 -23 -21 -20 -18 -17 -16 -16 -16 -16 -16 -15 -14 -15 -14 -12 -12 -12 -12 -11 -11 -11 -11 -11 -11 -11 -10 -10 -10 -10 -10 -10 -10 -10 -10 -10 -10 -10 -10 -10 -9 -10 -10 -10 -9
-24 -24 -22 -20 -18 -16 -16 -15 -15 -15 -15 -15 -15 -14 -14 -13 -13 -13 -12 -12 -12 -12 -11 -11 -11 -11 -10 -11 -11 -10 -10 -10 -10 -10 -10 -9 -10 -10 -10 -10 -9 -9 -10 -10 -10
-24 -24 -23 -21 -17 -17 -16 -15 -15 -16 -15 -16 -15 -15 -15 -14 -14 -13 -13 -12 -12 -11 -11 -11 -12 -11 -11 -11 -11 -11 -11 -10 -10 -10 -10 -10 -9 -10 -10 -10 -9 -9 -10 -10 -10
-24 -24 -23 -21 -20 -17 -17 -17 -16 -16 -15 -15 -15 -15 -15 -14 -14 -14 -13 -13 -12 -12 -12 -12 -12 -11 -11 -11 -11 -11 -10 -10 -10 -10 -10 -9 -9 -9 -9 -10 -10 -9 -9 -10 -10
-24 -23 -22 -20 -20 -18 -17 -16 -16 -16 -16 -16 -16 -15 -15 -14 -14 -14 -14 -13 -13 -13 -13 -13 -12 -12 -11 -10 -10 -10 -11 -11 -10 -10 -10 -10 -10 -10 -10 -10 -10 -9 -9 -10 -10
-24 -22 -22 -21 -19 -17 -17 -17 -16 -16 -16 -16 -15 -15 -14 -15 -15 -14 -14 -14 -14 -13 -13 -12 -12 -11 -10 -10 -11 -11 -12 -12 -11 -10 -11 -11 -10 -10 -10 -10 -10 -9 -9 -9 -10
-23 -23 -22 -21 -20 -18 -18 -16 -16 -16 -16 -16 -15 -15 -15 -15 -15 -14 -14 -14 -14 -14 -13 -12 -12 -11 -11 -11 -11 -12 -12 -12 -11 -11 -11 -11 -10 -10 -10 -10 -10 -10 -9 -10 -9
-24 -23 -22 -22 -20 -19 -17 -16 -16 -17 -17 -16 -15 -15 -15 -14 -16 -15 -14 -14 -14 -14 -13 -12 -11 -11 -12 -12 -11 -12 -11 -12 -12 -11 -11 -11 -10 -10 -10 -10 -11 -10 -10 -10 -10
-24 -23 -22 -22 -20 -18 -16 -17 -16 -17 -17 -16 -16 -16 -16 -15 -16 -15 -15 -14 -15 -14 -14 -14 -12 -12 -13 -12 -12 -12 -12 -12 -12 -12 -11 -11 -10 -10 -10 -10 -10 -10 -10 -10 -10
-24 -23 -22 -22 -21 -19 -17 -17 -17 -17 -17 -17 -16 -15 -15 -16 -14 -15 -16 -15 -14 -14 -14 -13 -13 -13 -12 -13 -12 -12 -12 -12 -12 -11 -11 -11 -10 -10 -10 -10 -10 -11 -11 -11 -12
-24 -23 -22 -21 -20 -19 -18 -16 -17 -17 -18 -17 -16 -16 -16 -16 -16 -16 -15 -15 -15 -15 -15 -14 -13 -14 -13 -13 -13 -13 -13 -12 -12 -12 -11 -11 -10 -9 -10 -11 -11 -11 -11 -11 -11
-24 -23 -21 -20 -20 -19 -17 -18 -18 -17 -18 -17 -16 -15 -16 -16 -16 -15 -15 -15 -15 -15 -15 -14 -14 -13 -13 -13 -13 -13 -13 -12 -12 -11 -10 -11 -11 -9 -10 -11 -11 -11 -11 -11 -11
-25 -23 -20 -19 -19 -18 -17 -18 -18 -17 -17 -16 -16 -16 -16 -16 -15 -15 -16 -16 -14 -15 -15 -14 -14 -14 -13 -13 -13 -12 -13 -12 -12 -12 -11 -11 -10 -10 -11 -11 -11 -11 -11 -10 -10
-25 -23 -20 -19 -19 -18 -18 -18 -18 -18 -17 -16 -17 -17 -17 -16 -16 -16 -15 -14 -15 -14 -14 -14 -14 -14 -14 -14 -14 -13 -13 -13 -13 -12 -12 -11 -11 -11 -11 -11 -11 -11 -11 -11 -11
-26 -23 -21 -19 -19 -18 -18 -18 -18 -17 -16 -16 -16 -17 -17 -16 -16 -15 -15 -14 -15 -15 -15 -14 -14 -14 -14 -14 -14 -14 -13 -13 -13 -13 -12 -12 -11 -11 -11 -11 -11 -11 -11 -10 -10
-26 -24 -21 -19 -19 -19 -18 -18 -18 -17 -17 -17 -17 -16 -16 -15 -14 -14 -13 -14 -14 -15 -16 -15 -15 -15 -15 -14 -14 -14 -13 -13 -13 -13 -13 -12 -12 -11 -11 -11 -11 -11 -11 -11 -10
-26 -24 -21 -20 -20 -20 -19 -19 -19 -18 -17 -17 -17 -17 -16 -15 -14 -14 -15 -14 -15 -15 -16 -16 -15 -15 -15 -14 -14 -14 -14 -15 -15 -14 -14 -13 -12 -11 -11 -12 -12 -12 -12 -12 -12
-27 -24 -21 -21 -21 -21 -19 -19 -19 -18 -18 -17 -17 -17 -17 -16 -16 -16 -16 -16 -15 -15 -15 -15 -15 -15 -16 -16 -15 -14 -14 -15 -15 -15 -14 -14 -11 -12 -12 -12 -12 -12 -13 -13 -12
-26 -25 -22 -21 -21 -21 -19 -19 -18 -18 -18 -17 -17 -17 -17 -17 -16 -16 -16 -16 -16 -16 -17 -16 -16 -16 -15 -15 -15 -15 -15 -15 -16 -16 -14 -15 -12 -13 -13 -14 -13 -13 -13 -13 -13
-27 -26 -24 -22 -21 -21 -19 -19 -19 -18 -18 -18 -18 -17 -16 -16 -17 -16 -16 -16 -17 -17 -17 -17 -17 -16 -17 -16 -16 -17 -17 -18 -18 -15 -16 -13 -13 -14 -14 -15 -14 -14 -14 -14 -15
-27 -26 -24 -22 -22 -21 -20 -19 -19 -18 -18 -18 -17 -16 -17 -17 -16 -16 -16 -16 -16 -16 -17 -16 -16 -17 -17 -17 -17 -17 -18 -18 -16 -14 -15 -13 -13 -14 -14 -14 -15 -16 -16 -15 -16
-26 -25 -24 -22 -22 -22 -20 -20 -20 -19 -18 -18 -17 -18 -18 -17 -17 -18 -17 -18 -17 -17 -17 -17 -17 -17 -17 -17 -18 -18 -15 -16 -16 -16 -15 -15 -13 -17 -15 -14 -15 -16 -16 -16 -16

GFSSW_500_temp_123.txt.gz
Temp
-17 -17 -16 -16 -15 -14 -14 -13 -13 -13 -13 -13 -13 -12 -13 -13 -12 -11 -10 -11 -11 -11 -11 -11 -11 -11 -11 -10 -10 -10 -10 -10 -10 -10 -9 -9 -9 -9 -9 -9 -8 -8 -7 -7 -8
-18 -17 -17 -16 -15 -15 -14 -14 -13 -13 -13 -13 -13 -13 -12 -12 -12 -11 -12 -12 -11 -11 -11 -11 -10 -11 -11 -10 -10 -10 -10 -10 -9 -9 -9 -9 -9 -9 -9 -8 -8 -8 -7 -7 -8
-18 -17 -17 -17 -16 -15 -15 -14 -14 -13 -13 -13 -14 -14 -14 -12 -12 -11 -12 -12 -12 -11 -11 -11 -10 -10 -10 -10 -10 -10 -10 -10 -9 -10 -10 -10 -9 -9 -9 -9 -8 -8 -8 -8 -7
-19 -18 -17 -17 -16 -16 -15 -15 -14 -14 -13 -13 -13 -14 -14 -14 -12 -11 -12 -13 -13 -12 -11 -11 -11 -10 -10 -11 -11 -11 -10 -10 -10 -10 -10 -10 -9 -10 -9 -9 -8 -8 -8 -8 -8
-20 -19 -18 -17 -17 -16 -16 -15 -15 -14 -14 -13 -13 -14 -15 -15 -12 -11 -12 -13 -13 -12 -11 -11 -11 -11 -10 -11 -11 -11 -10 -10 -10 -10 -10 -10 -10 -9 -9 -9 -9 -8 -8 -8 -8
-20 -19 -18 -17 -17 -16 -16 -15 -15 -14 -14 -14 -14 -15 -16 -15 -12 -13 -12 -13 -13 -13 -12 -12 -11 -11 -11 -11 -11 -11 -10 -10 -10 -10 -10 -10 -10 -9 -10 -9 -9 -9 -8 -8 -8
-20 -20 -19 -18 -17 -16 -16 -16 -15 -15 -15 -14 -14 -15 -17 -14 -14 -14 -12 -13 -13 -13 -13 -13 -13 -12 -11 -11 -11 -11 -10 -10 -10 -10 -10 -10 -10 -10 -10 -9 -9 -9 -8 -8 -8
-20 -20 -19 -18 -17 -17 -16 -16 -16 -16 -15 -14 -14 -15 -16 -15 -15 -14 -13 -13 -13 -13 -14 -13 -13 -12 -11 -11 -11 -10 -10 -10 -10 -10 -10 -10 -10 -10 -10 -9 -10 -9 -9 -8 -8
-21 -20 -19 -19 -18 -17 -17 -17 -16 -16 -15 -15 -15 -15 -15 -16 -16 -15 -14 -14 -14 -13 -13 -13 -13 -12 -12 -11 -11 -11 -9 -9 -10 -11 -10 -10 -10 -10 -10 -10 -10 -10 -10 -9 -9
-21 -20 -20 -19 -19 -18 -18 -17 -17 -17 -16 -17 -16 -17 -15 -16 -15 -14 -15 -14 -14 -14 -14 -14 -13 -13 -12 -10 -9 -10 -10 -10 -10 -11 -10 -10 -10 -10 -10 -10 -10 -10 -10 -10 -9
-21 -21 -20 -20 -19 -19 -19 -18 -17 -16 -16 -15 -14 -13 -12 -15 -17 -16 -16 -15 -15 -15 -14 -13 -13 -11 -11 -11 -11 -11 -11 -11 -11 -10 -10 -11 -11 -11 -10 -10 -10 -10 -9 -9 -10
-21 -21 -21 -20 -20 -19 -19 -18 -18 -18 -17 -16 -15 -14 -15 -17 -17 -16 -16 -16 -15 -14 -13 -13 -12 -12 -12 -12 -11 -11 -11 -11 -10 -10 -10 -10 -10 -10 -10 -10 -10 -10 -9 -8 -9
-22 -21 -21 -21 -20 -20 -19 -19 -20 -20 -20 -19 -17 -16 -17 -17 -17 -16 -16 -15 -14 -14 -13 -13 -11 -13 -12 -12 -12 -11 -11 -10 -10 -11 -10 -10 -10 -10 -10 -10 -10 -10 -9 -9 -10
-23 -22 -22 -21 -20 -20 -20 -21 -20 -21 -21 -20 -19 -18 -18 -17 -16 -16 -16 -16 -15 -14 -14 -14 -13 -13 -13 -12 -12 -12 -12 -11 -11 -11 -10 -10 -9 -10 -10 -10 -10 -10 -10 -10 -10
-24 -24 -23 -22 -22 -21 -22 -22 -22 -21 -21 -21 -20 -17 -17 -16 -16 -16 -16 -16 -15 -14 -14 -13 -13 -12 -13 -12 -12 -12 -12 -12 -11 -12 -10 -10 -10 -10 -10 -10 -10 -10 -10 -10 -10
-25 -25 -25 -24 -23 -22 -23 -22 -22 -20 -21 -20 -19 -17 -17 -17 -16 -16 -16 -16 -15 -15 -14 -14 -14 -14 -13 -13 -13 -13 -13 -13 -12 -12 -11 -10 -10 -9 -9 -11 -11 -10 -10 -10 -10
-25 -25 -25 -24 -24 -23 -23 -23 -22 -21 -21 -20 -18 -17 -17 -17 -17 -16 -16 -16 -15 -15 -16 -16 -15 -14 -14 -14 -14 -13 -13 -13 -13 -12 -10 -10 -10 -9 -10 -10 -11 -11 -11 -11 -10
-25 -25 -25 -25 -25 -23 -23 -22 -23 -21 -21 -20 -18 -18 -17 -17 -17 -16 -16 -16 -16 -15 -14 -13 -15 -15 -14 -13 -13 -13 -12 -12 -12 -11 -11 -11 -10 -9 -10 -10 -11 -11 -11 -11 -11
-25 -25 -25 -25 -25 -24 -23 -23 -23 -22 -21 -20 -19 -18 -18 -17 -16 -16 -16 -16 -16 -15 -14 -14 -14 -13 -13 -13 -13 -13 -13 -12 -13 -12 -11 -11 -10 -10 -11 -11 -11 -11 -11 -11 -11
-25 -26 -25 -25 -25 -25 -25 -24 -22 -22 -21 -21 -20 -19 -17 -17 -17 -16 -16 -16 -15 -15 -14 -13 -13 -13 -14 -14 -14 -13 -13 -13 -13 -13 -12 -12 -11 -11 -11 -11 -11 -11 -11 -11 -11
-26 -26 -26 -26 -25 -26 -25 -23 -22 -21 -21 -20 -19 -19 -17 -16 -17 -16 -15 -15 -15 -15 -15 -14 -14 -13 -14 -14 -13 -12 -13 -13 -13 -13 -12 -12 -11 -11 -11 -11 -11 -11 -11 -11 -11
-26 -26 -26 -26 -26 -26 -24 -23 -23 -21 -20 -20 -19 -18 -18 -17 -17 -16 -15 -14 -14 -14 -15 -14 -14 -15 -14 -13 -13 -13 -12 -12 -12 -12 -12 -12 -11 -11 -11 -11 -11 -11 -11 -11 -11
-26 -26 -27 -27 -26 -26 -25 -23 -23 -21 -21 -20 -19 -19 -19 -17 -17 -16 -16 -14 -15 -15 -14 -14 -14 -13 -14 -14 -13 -13 -13 -13 -13 -13 -13 -12 -11 -12 -12 -12 -12 -12 -12 -12 -12
-27 -27 -27 -27 -26 -26 -25 -24 -23 -21 -20 -19 -19 -19 -18 -18 -17 -16 -16 -15 -15 -15 -15 -15 -15 -14 -12 -11 -12 -12 -13 -13 -13 -13 -12 -12 -11 -11 -11 -12 -13 -13 -13 -12 -12
-27 -27 -27 -26 -26 -25 -24 -24 -23 -21 -20 -19 -19 -18 -17 -17 -17 -17 -16 -16 -17 -17 -16 -15 -15 -15 -15 -14 -14 -14 -15 -15 -14 -13 -14 -12 -13 -13 -13 -13 -13 -13 -13 -13 -13
-27 -27 -27 -27 -26 -25 -25 -23 -23 -21 -20 -19 -19 -18 -18 -18 -15 -15 -16 -16 -15 -16 -16 -16 -16 -16 -16 -15 -15 -16 -16 -16 -16 -15 -14 -13 -13 -14 -14 -14 -13 -13 -13 -14 -13
-27 -27 -27 -27 -26 -25 -24 -23 -22 -21 -20 -19 -19 -19 -18 -17 -16 -17 -16 -15 -14 -15 -15 -15 -15 -15 -16 -16 -16 -17 -15 -14 -14 -15 -14 -14 -13 -15 -15 -15 -14 -14 -14 -14 -14

GFSSW_500_temp_129.txt.gz
Temp
-16 -16 -16 -16 -16 -16 -16 -15 -15 -14 -14 -13 -13 -14 -15 -13 -13 -12 -12 -13 -13 -13 -12 -12 -11 -11 -10 -10 -10 -10 -9 -9 -9 -9 -9 -8 -9 -9 -9 -8 -8 -8 -7 -7 -7
-18 -17 -18 -18 -17 -17 -16 -16 -15 -15 -14 -14 -14 -15 -14 -14 -13 -14 -13 -13 -13 -13 -12 -12 -12 -11 -11 -10 -10 -9 -9 -10 -9 -9 -9 -9 -9 -8 -9 -9 -9 -8 -8 -7 -7
-19 -19 -19 -19 -19 -18 -18 -17 -16 -15 -14 -14 -16 -15 -15 -17 -16 -13 -14 -14 -13 -13 -13 -13 -12 -11 -11 -10 -10 -10 -10 -11 -10 -10 -10 -9 -9 -9 -9 -9 -8 -8 -8 -7 -7
-20 -19 -19 -19 -19 -19 -18 -18 -17 -17 -15 -15 -15 -16 -16 -16 -15 -16 -14 -13 -14 -14 -13 -13 -12 -13 -12 -12 -12 -11 -12 -12 -10 -10 -10 -9 -9 -9 -9 -9 -9 -9 -8 -8 -7
-20 -20 -20 -19 -19 -19 -19 -18 -18 -17 -17 -16 -16 -16 -16 -16 -15 -15 -14 -14 -14 -13 -13 -13 -13 -13 -13 -13 -13 -13 -13 -12 -11 -10 -10 -9 -9 -8 -9 -9 -9 -9 -8 -8 -8
-20 -21 -20 -20 -20 -19 -19 -19 -18 -18 -18 -17 -17 -16 -16 -16 -15 -14 -14 -15 -14 -14 -14 -13 -13 -13 -13 -12 -12 -12 -12 -11 -11 -10 -10 -9 -9 -9 -9 -9 -9 -9 -9 -8 -8
-21 -21 -21 -20 -20 -20 -19 -19 -19 -19 -18 -18 -17 -17 -16 -14 -14 -14 -15 -14 -14 -14 -14 -14 -14 -14 -13 -13 -13 -12 -11 -10 -10 -10 -10 -10 -8 -8 -9 -9 -9 -9 -9 -9 -8
-21 -21 -21 -21 -20 -20 -20 -20 -20 -19 -19 -18 -18 -17 -16 -16 -16 -17 -16 -15 -14 -14 -14 -14 -14 -14 -13 -12 -13 -12 -11 -10 -10 -10 -10 -10 -8 -10 -10 -9 -9 -9 -9 -9 -8
-21 -21 -21 -21 -21 -21 -21 -21 -20 -20 -20 -19 -18 -17 -16 -16 -15 -15 -15 -15 -15 -15 -15 -15 -14 -14 -14 -13 -12 -11 -10 -10 -10 -10 -10 -10 -9 -10 -10 -10 -9 -9 -9 -9 -9
-21 -22 -21 -22 -22 -21 -21 -22 -21 -21 -21 -20 -19 -18 -16 -16 -15 -15 -16 -16 -15 -15 -16 -16 -15 -14 -14 -13 -11 -10 -10 -10 -11 -11 -10 -10 -10 -10 -10 -9 -9 -9 -9 -9 -9
-22 -22 -22 -22 -22 -22 -22 -22 -22 -21 -21 -19 -18 -17 -16 -16 -15 -15 -15 -16 -16 -16 -16 -16 -15 -14 -12 -12 -12 -11 -11 -12 -12 -11 -10 -10 -11 -10 -10 -9 -9 -9 -9 -9 -9
-22 -22 -22 -22 -22 -22 -22 -22 -21 -21 -20 -20 -19 -18 -16 -16 -16 -16 -16 -17 -17 -16 -15 -16 -16 -13 -14 -13 -13 -12 -12 -12 -12 -11 -10 -11 -10 -11 -9 -9 -9 -9 -9 -9 -9
-22 -22 -22 -22 -23 -22 -22 -22 -22 -21 -21 -21 -19 -18 -17 -16 -16 -16 -16 -15 -16 -16 -16 -16 -13 -14 -14 -14 -13 -12 -12 -12 -12 -12 -11 -11 -10 -10 -10 -9 -9 -9 -9 -9 -9
-22 -22 -22 -23 -23 -22 -22 -22 -22 -22 -22 -21 -20 -18 -17 -16 -16 -16 -16 -16 -16 -16 -17 -16 -15 -15 -14 -14 -14 -13 -12 -13 -13 -12 -11 -11 -9 -10 -10 -9 -9 -9 -9 -10 -9
-23 -23 -23 -22 -22 -22 -22 -22 -22 -22 -22 -22 -20 -19 -19 -18 -16 -16 -16 -16 -17 -16 -16 -15 -15 -14 -14 -12 -13 -13 -13 -14 -13 -13 -12 -11 -10 -10 -10 -9 -10 -10 -10 -10 -10
-22 -23 -23 -23 -23 -23 -23 -23 -23 -24 -22 -22 -20 -19 -19 -17 -16 -17 -18 -17 -18 -17 -16 -15 -15 -15 -15 -16 -15 -15 -14 -14 -13 -13 -12 -11 -11 -8 -10 -10 -10 -10 -10 -10 -9
-23 -23 -23 -23 -23 -23 -24 -24 -25 -24 -22 -21 -19 -19 -18 -17 -17 -17 -17 -17 -17 -18 -17 -16 -16 -16 -16 -16 -16 -16 -15 -15 -15 -14 -11 -11 -10 -7 -10 -11 -10 -10 -9 -10 -10
-23 -23 -23 -23 -24 -24 -24 -24 -24 -22 -21 -20 -19 -19 -18 -18 -17 -17 -18 -17 -18 -18 -17 -16 -17 -16 -16 -15 -14 -13 -14 -14 -14 -12 -11 -11 -9 -7 -9 -10 -10 -10 -10 -10 -10
-23 -23 -23 -23 -24 -25 -25 -24 -23 -22 -21 -20 -19 -19 -18 -18 -18 -18 -17 -16 -17 -16 -17 -16 -16 -15 -15 -15 -15 -15 -16 -15 -15 -13 -13 -12 -10 -9 -10 -10 -10 -10 -10 -10 -10
-23 -23 -23 -24 -24 -25 -25 -24 -23 -22 -21 -20 -20 -20 -18 -18 -18 -18 -17 -16 -17 -18 -17 -16 -16 -15 -16 -16 -16 -16 -15 -16 -16 -14 -13 -11 -10 -9 -10 -10 -10 -10 -10 -10 -10
-24 -24 -24 -24 -25 -25 -25 -23 -23 -22 -21 -21 -22 -22 -20 -19 -19 -19 -18 -16 -17 -17 -16 -17 -16 -16 -16 -16 -15 -15 -16 -16 -16 -14 -13 -12 -10 -10 -10 -11 -11 -10 -10 -10 -10
-24 -24 -24 -24 -25 -25 -24 -23 -23 -23 -23 -22 -21 -21 -21 -20 -20 -20 -18 -17 -17 -16 -17 -16 -16 -16 -15 -15 -15 -15 -16 -15 -15 -13 -13 -12 -10 -10 -10 -11 -11 -11 -11 -11 -11
-24 -24 -25 -24 -24 -24 -24 -24 -24 -24 -24 -23 -22 -21 -22 -21 -20 -20 -18 -18 -19 -19 -17 -18 -18 -18 -17 -17 -17 -17 -16 -15 -16 -15 -14 -13 -11 -11 -11 -11 -11 -11 -11 -11 -11
-24 -24 -26 -26 -24 -24 -25 -25 -25 -25 -25 -24 -23 -22 -22 -21 -20 -19 -19 -18 -18 -18 -18 -18 -18 -17 -15 -14 -13 -14 -14 -15 -15 -15 -13 -12 -11 -12 -11 -11 -11 -11 -11 -11 -11
-25 -24 -23 -23 -23 -24 -25 -25 -25 -25 -25 -25 -24 -22 -22 -21 -20 -20 -19 -19 -19 -18 -19 -18 -18 -17 -17 -16 -16 -16 -15 -15 -15 -14 -14 -12 -12 -12 -12 -12 -12 -12 -12 -11 -11
-24 -24 -24 -24 -25 -26 -26 -25 -25 -25 -25 -24 -24 -24 -22 -20 -19 -20 -19 -19 -19 -19 -18 -18 -18 -17 -17 -17 -16 -16 -16 -16 -16 -15 -15 -13 -13 -12 -12 -12 -12 -12 -12 -12 -12
-25 -25 -25 -26 -26 -26 -25 -25 -25 -25 -25 -25 -25 -24 -22 -20 -21 -21 -20 -19 -19 -19 -19 -17 -17 -16 -17 -17 -17 -17 -16 -15 -15 -15 -15 -15 -12 -13 -13 -13 -13 -13 -13 -13 -13

GFSSW_500_temp_132.txt.gz
Temp
-16 -16 -15 -15 -14 -14 -14 -13 -13 -13 -13 -13 -13 -13 -13 -14 -13 -13 -13 -13 -13 -12 -12 -13 -13 -12 -11 -11 -10 -10 -10 -10 -10 -10 -9 -9 -9 -9 -9 -9 -8 -8 -8 -7 -7
-17 -16 -16 -16 -16 -15 -15 -14 -14 -13 -13 -13 -14 -14 -14 -14 -13 -13 -14 -14 -13 -13 -13 -12 -12 -12 -12 -11 -10 -10 -10 -10 -10 -10 -10 -9 -9 -9 -9 -9 -9 -8 -8 -8 -7
-18 -18 -17 -17 -17 -16 -16 -15 -15 -14 -13 -14 -14 -14 -14 -14 -15 -13 -13 -14 -13 -13 -13 -12 -12 -12 -12 -12 -12 -10 -10 -10 -10 -10 -10 -9 -9 -9 -9 -9 -9 -8 -8 -8 -7
-19 -19 -18 -18 -18 -17 -17 -17 -16 -15 -15 -15 -15 -15 -15 -15 -15 -12 -14 -16 -12 -13 -13 -13 -12 -12 -13 -12 -13 -12 -11 -10 -10 -10 -10 -10 -9 -9 -9 -9 -9 -9 -8 -8 -8
-20 -20 -19 -19 -19 -19 -18 -18 -17 -17 -17 -16 -16 -16 -16 -15 -14 -13 -15 -15 -14 -13 -13 -13 -13 -13 -13 -13 -12 -13 -12 -11 -10 -10 -10 -10 -9 -9 -9 -9 -9 -9 -9 -9 -8
-20 -20 -20 -20 -20 -19 -19 -19 -18 -18 -18 -17 -17 -17 -16 -15 -14 -14 -15 -15 -14 -14 -14 -13 -14 -14 -13 -13 -12 -13 -13 -11 -11 -11 -10 -9 -9 -9 -9 -9 -9 -9 -9 -9 -8
-21 -20 -20 -20 -20 -20 -20 -19 -19 -19 -18 -18 -18 -17 -16 -15 -15 -15 -15 -16 -15 -15 -15 -14 -14 -15 -13 -13 -13 -12 -13 -11 -11 -10 -10 -11 -9 -8 -10 -9 -9 -9 -9 -9 -9
-21 -21 -20 -20 -20 -20 -20 -20 -19 -19 -19 -19 -19 -18 -17 -17 -17 -16 -15 -16 -16 -16 -15 -15 -14 -15 -14 -13 -13 -12 -12 -11 -11 -11 -10 -10 -9 -10 -10 -9 -9 -9 -9 -9 -9
-21 -21 -21 -21 -21 -21 -21 -20 -20 -20 -20 -19 -19 -19 -17 -16 -18 -17 -16 -16 -16 -16 -15 -15 -14 -14 -14 -13 -13 -12 -11 -11 -11 -11 -11 -10 -10 -11 -10 -10 -9 -9 -9 -9 -9
-21 -21 -21 -22 -21 -21 -21 -21 -21 -21 -21 -20 -20 -20 -17 -16 -17 -17 -16 -17 -16 -16 -15 -15 -14 -15 -14 -13 -12 -11 -11 -11 -11 -12 -11 -10 -10 -10 -10 -10 -10 -9 -9 -9 -9
-21 -22 -22 -22 -22 -22 -22 -22 -22 -21 -20 -20 -19 -19 -17 -17 -18 -18 -16 -17 -17 -16 -15 -15 -15 -15 -14 -14 -13 -13 -12 -11 -12 -12 -11 -11 -10 -10 -10 -10 -9 -9 -9 -9 -9
-22 -21 -22 -22 -22 -22 -22 -21 -21 -21 -20 -20 -19 -19 -19 -19 -18 -18 -16 -17 -16 -17 -16 -16 -17 -15 -15 -15 -15 -14 -13 -12 -13 -12 -11 -11 -10 -10 -10 -9 -10 -10 -9 -9 -9
-22 -22 -22 -22 -22 -22 -22 -21 -22 -22 -22 -21 -21 -20 -19 -19 -18 -18 -17 -16 -16 -17 -17 -18 -15 -15 -15 -14 -14 -14 -13 -13 -13 -13 -11 -11 -10 -10 -10 -9 -10 -9 -9 -9 -9
-22 -22 -22 -22 -23 -22 -22 -22 -23 -22 -23 -22 -21 -21 -20 -19 -18 -18 -18 -17 -17 -16 -16 -16 -16 -16 -16 -15 -14 -14 -14 -14 -14 -13 -12 -11 -9 -10 -10 -9 -9 -9 -10 -10 -10
-21 -22 -22 -22 -22 -22 -22 -23 -23 -23 -23 -22 -22 -21 -20 -20 -19 -18 -18 -18 -17 -16 -17 -16 -15 -15 -16 -14 -14 -14 -14 -14 -14 -14 -12 -12 -10 -9 -10 -9 -9 -10 -10 -10 -10
-22 -22 -22 -22 -22 -23 -23 -24 -24 -25 -24 -23 -22 -21 -21 -20 -19 -19 -19 -18 -17 -18 -18 -17 -15 -17 -16 -16 -16 -16 -15 -15 -15 -15 -14 -12 -11 -7 -9 -10 -10 -10 -9 -10 -10
-22 -22 -23 -22 -22 -23 -24 -24 -25 -25 -23 -22 -21 -20 -20 -20 -19 -20 -19 -18 -17 -17 -17 -16 -16 -17 -17 -16 -16 -16 -16 -15 -16 -16 -12 -12 -11 -6 -9 -10 -10 -10 -10 -10 -10
-23 -22 -23 -22 -23 -24 -24 -25 -24 -22 -23 -22 -21 -21 -20 -20 -20 -20 -20 -19 -18 -17 -16 -17 -18 -17 -16 -15 -15 -15 -15 -15 -15 -15 -11 -12 -10 -7 -8 -10 -10 -10 -10 -10 -10
-23 -22 -23 -23 -23 -24 -24 -24 -23 -22 -22 -22 -21 -21 -21 -20 -20 -20 -20 -19 -18 -18 -17 -17 -16 -16 -15 -15 -16 -16 -16 -16 -16 -15 -14 -13 -10 -9 -9 -10 -11 -10 -10 -10 -10
-23 -23 -23 -23 -24 -24 -24 -23 -23 -23 -23 -22 -22 -21 -21 -20 -20 -20 -20 -18 -18 -18 -17 -17 -16 -15 -15 -16 -16 -16 -16 -17 -17 -15 -14 -12 -10 -9 -9 -10 -11 -10 -10 -10 -10
-23 -23 -23 -24 -24 -25 -23 -23 -23 -23 -23 -22 -22 -21 -21 -21 -20 -20 -19 -18 -18 -18 -17 -17 -17 -15 -16 -16 -15 -16 -16 -16 -16 -16 -15 -12 -11 -10 -10 -10 -11 -11 -11 -10 -10
-23 -23 -24 -24 -25 -24 -23 -23 -23 -23 -23 -22 -22 -22 -22 -22 -22 -21 -19 -19 -18 -19 -19 -17 -18 -16 -15 -15 -15 -16 -16 -17 -16 -15 -13 -12 -10 -10 -10 -11 -11 -10 -11 -11 -10
-23 -23 -24 -24 -24 -23 -23 -23 -23 -23 -23 -23 -23 -23 -24 -23 -22 -20 -20 -19 -20 -21 -19 -18 -19 -18 -18 -18 -17 -17 -16 -16 -16 -16 -16 -15 -11 -11 -11 -11 -11 -11 -11 -11 -11
-23 -24 -24 -24 -24 -23 -23 -23 -23 -23 -23 -23 -23 -24 -23 -23 -22 -21 -20 -19 -20 -20 -20 -21 -20 -19 -17 -16 -16 -15 -15 -15 -16 -16 -14 -14 -11 -11 -11 -11 -11 -11 -11 -11 -11
-23 -24 -23 -23 -23 -23 -23 -24 -23 -23 -24 -24 -23 -23 -23 -22 -22 -22 -21 -21 -21 -21 -21 -21 -20 -19 -17 -17 -17 -16 -16 -16 -16 -15 -16 -13 -12 -11 -12 -12 -12 -12 -12 -11 -11
-24 -23 -23 -23 -23 -23 -23 -23 -24 -25 -25 -24 -24 -24 -24 -23 -22 -22 -22 -22 -21 -21 -21 -21 -21 -20 -18 -16 -19 -18 -17 -17 -17 -16 -17 -15 -14 -13 -12 -13 -13 -13 -12 -12 -12
-24 -24 -24 -23 -23 -24 -24 -24 -25 -26 -25 -25 -25 -25 -24 -23 -24 -23 -23 -22 -21 -21 -21 -21 -21 -20 -18 -17 -18 -19 -18 -16 -14 -14 -15 -15 -13 -12 -14 -13 -13 -14 -13 -12 -12

GFSSW_500_temp_135.txt.gz
Temp
-16 -16 -15 -15 -15 -15 -14 -14 -14 -13 -13 -13 -12 -12 -12 -13 -13 -12 -12 -13 -13 -13 -11 -12 -12 -12 -12 -12 -12 -11 -11 -10 -10 -10 -10 -10 -9 -9 -9 -9 -9 -8 -8 -8 -7
-17 -16 -16 -16 -15 -15 -15 -15 -14 -14 -13 -13 -13 -13 -13 -13 -13 -13 -13 -14 -13 -13 -12 -12 -12 -12 -12 -12 -12 -11 -11 -11 -11 -10 -10 -10 -10 -9 -9 -9 -9 -9 -9 -8 -7
-18 -18 -17 -17 -16 -16 -16 -15 -15 -14 -14 -14 -13 -13 -13 -13 -14 -13 -14 -14 -14 -13 -12 -12 -12 -12 -12 -12 -12 -12 -12 -11 -11 -10 -10 -10 -10 -9 -9 -9 -9 -9 -9 -9 -8
-19 -19 -18 -18 -17 -17 -16 -16 -16 -15 -15 -14 -14 -13 -13 -14 -14 -13 -14 -13 -13 -13 -14 -13 -12 -12 -12 -12 -12 -12 -12 -11 -11 -10 -10 -9 -9 -9 -9 -10 -9 -9 -9 -9 -8
-20 -20 -19 -19 -18 -18 -18 -18 -17 -17 -17 -16 -15 -14 -15 -14 -13 -13 -14 -14 -13 -14 -14 -14 -13 -13 -13 -12 -12 -12 -12 -12 -11 -11 -10 -9 -9 -9 -9 -10 -9 -9 -9 -9 -8
-21 -20 -20 -20 -20 -19 -19 -19 -18 -18 -18 -17 -17 -16 -15 -14 -14 -13 -15 -14 -13 -14 -14 -14 -14 -13 -14 -13 -12 -12 -12 -12 -11 -11 -11 -10 -9 -8 -9 -9 -10 -9 -9 -9 -9
-21 -21 -21 -21 -20 -20 -20 -20 -19 -19 -19 -18 -18 -17 -17 -15 -15 -15 -15 -15 -14 -15 -14 -14 -14 -13 -13 -13 -13 -12 -12 -12 -12 -11 -11 -10 -9 -8 -10 -10 -10 -9 -9 -9 -9
-22 -21 -21 -21 -21 -21 -20 -20 -20 -20 -20 -19 -19 -18 -17 -16 -16 -15 -15 -16 -15 -14 -13 -14 -14 -13 -13 -13 -14 -14 -13 -12 -11 -11 -12 -11 -9 -10 -10 -10 -10 -10 -9 -9 -9
-22 -21 -21 -21 -21 -21 -21 -21 -21 -21 -21 -20 -20 -18 -17 -16 -16 -16 -16 -16 -16 -15 -15 -14 -15 -14 -14 -14 -14 -14 -13 -12 -12 -12 -11 -11 -10 -13 -12 -9 -10 -10 -9 -9 -9
-22 -22 -22 -21 -21 -21 -21 -21 -22 -22 -22 -21 -21 -20 -16 -16 -16 -17 -17 -17 -17 -16 -16 -16 -17 -16 -16 -15 -14 -14 -14 -13 -12 -12 -12 -11 -11 -12 -11 -9 -10 -9 -9 -9 -9
-22 -22 -21 -21 -21 -21 -21 -22 -22 -22 -22 -21 -19 -18 -17 -17 -17 -17 -17 -18 -17 -17 -16 -16 -16 -15 -14 -14 -15 -14 -14 -14 -14 -13 -13 -11 -12 -13 -11 -9 -9 -9 -9 -10 -9
-22 -22 -22 -22 -22 -22 -22 -21 -21 -21 -21 -21 -20 -19 -18 -19 -19 -19 -19 -18 -19 -17 -17 -16 -15 -15 -15 -14 -14 -14 -14 -14 -14 -14 -13 -12 -11 -12 -11 -9 -9 -9 -9 -9 -9
-22 -22 -22 -22 -22 -22 -22 -22 -22 -22 -22 -22 -21 -20 -20 -19 -19 -19 -19 -19 -19 -17 -17 -15 -14 -15 -15 -15 -15 -15 -15 -14 -15 -14 -13 -12 -11 -11 -11 -10 -9 -9 -9 -10 -10
-23 -23 -23 -21 -22 -22 -22 -22 -22 -23 -23 -22 -21 -21 -20 -20 -20 -20 -20 -19 -19 -18 -17 -16 -16 -16 -15 -15 -16 -15 -15 -15 -15 -15 -13 -13 -11 -11 -11 -10 -9 -9 -9 -10 -10
-24 -24 -23 -22 -22 -21 -21 -22 -23 -23 -24 -23 -22 -22 -21 -20 -20 -20 -20 -20 -19 -18 -18 -16 -17 -17 -16 -14 -15 -15 -15 -15 -15 -15 -14 -13 -12 -9 -10 -10 -10 -10 -10 -11 -10
-25 -24 -23 -22 -22 -22 -22 -23 -23 -24 -24 -23 -21 -21 -21 -20 -20 -20 -20 -20 -19 -19 -18 -18 -18 -17 -15 -15 -16 -17 -16 -16 -15 -15 -15 -12 -12 -9 -9 -10 -10 -10 -10 -10 -10
-25 -23 -23 -22 -22 -22 -23 -23 -23 -23 -23 -22 -21 -21 -21 -21 -21 -21 -20 -20 -19 -19 -18 -17 -17 -17 -17 -17 -17 -17 -18 -17 -17 -17 -15 -13 -13 -8 -9 -9 -10 -10 -10 -10 -10
-24 -23 -22 -23 -23 -22 -23 -23 -24 -22 -22 -21 -21 -22 -22 -21 -21 -21 -21 -20 -20 -19 -18 -18 -17 -17 -16 -16 -16 -16 -16 -17 -16 -15 -13 -14 -12 -9 -9 -9 -10 -11 -10 -10 -10
-24 -23 -22 -22 -22 -23 -23 -23 -22 -22 -21 -21 -22 -22 -22 -22 -22 -21 -21 -20 -20 -19 -18 -18 -17 -17 -16 -15 -15 -16 -17 -15 -17 -16 -15 -14 -11 -10 -9 -9 -10 -11 -10 -10 -10
-24 -23 -23 -22 -23 -23 -23 -22 -22 -22 -22 -22 -22 -22 -22 -22 -21 -21 -21 -20 -19 -19 -19 -18 -18 -17 -17 -17 -17 -17 -16 -18 -18 -17 -15 -14 -12 -10 -9 -9 -10 -10 -11 -11 -11
-25 -24 -23 -23 -22 -23 -23 -22 -22 -22 -22 -22 -22 -22 -22 -22 -22 -21 -21 -20 -20 -20 -20 -19 -19 -17 -18 -18 -17 -18 -17 -17 -17 -16 -16 -14 -12 -11 -10 -10 -10 -11 -11 -11 -11
-25 -25 -24 -22 -23 -23 -23 -22 -22 -22 -23 -23 -23 -23 -23 -22 -22 -22 -21 -21 -21 -21 -20 -19 -19 -18 -18 -17 -18 -18 -17 -17 -17 -16 -15 -14 -12 -11 -11 -10 -10 -11 -11 -11 -11
-25 -23 -23 -23 -23 -23 -23 -22 -22 -23 -23 -23 -23 -23 -23 -23 -23 -22 -21 -21 -21 -21 -20 -20 -20 -20 -18 -19 -18 -19 -18 -18 -17 -17 -16 -16 -13 -13 -12 -11 -11 -11 -11 -11 -11
-25 -23 -23 -23 -23 -22 -22 -22 -22 -23 -23 -23 -23 -24 -23 -23 -23 -22 -22 -22 -21 -21 -21 -21 -20 -20 -20 -19 -19 -19 -18 -17 -17 -17 -15 -15 -13 -12 -12 -12 -12 -12 -12 -12 -12
-24 -23 -23 -24 -23 -23 -23 -22 -22 -23 -23 -23 -23 -24 -24 -24 -23 -23 -23 -22 -22 -22 -22 -22 -22 -21 -19 -20 -19 -18 -18 -18 -18 -17 -17 -14 -14 -13 -13 -13 -13 -13 -12 -12 -12
-23 -23 -23 -23 -23 -22 -23 -23 -23 -23 -23 -23 -23 -24 -24 -24 -24 -23 -23 -23 -23 -23 -23 -23 -21 -21 -19 -19 -19 -18 -18 -18 -18 -16 -17 -15 -14 -12 -13 -13 -13 -12 -13 -12 -12
-23 -23 -22 -22 -22 -23 -23 -23 -23 -24 -25 -25 -25 -25 -24 -24 -24 -24 -23 -23 -23 -23 -23 -23 -21 -22 -18 -20 -21 -20 -17 -16 -15 -15 -15 -15 -14 -12 -14 -13 -13 -14 -14 -14 -13

GFSSW_500_temp_138.txt.gz
Temp
-14 -14 -14 -14 -14 -13 -13 -13 -13 -13 -12 -12 -12 -11 -11 -11 -11 -11 -11 -12 -12 -12 -12 -12 -11 -11 -11 -11 -11 -11 -11 -11 -11 -11 -10 -10 -9 -9 -9 -9 -9 -9 -9 -8 -8
-16 -15 -15 -15 -15 -15 -14 -14 -14 -14 -13 -13 -12 -12 -12 -12 -12 -11 -11 -12 -12 -12 -12 -12 -12 -11 -11 -11 -10 -11 -11 -11 -11 -11 -11 -10 -10 -10 -10 -10 -9 -9 -9 -8 -8
-17 -16 -16 -16 -16 -15 -15 -15 -15 -14 -14 -14 -13 -13 -13 -13 -12 -11 -12 -12 -12 -12 -12 -13 -12 -12 -11 -12 -11 -10 -11 -12 -12 -11 -11 -10 -10 -10 -10 -10 -9 -9 -9 -9 -8
-18 -17 -17 -17 -17 -16 -16 -16 -16 -15 -15 -14 -14 -14 -14 -14 -13 -12 -12 -13 -13 -13 -13 -13 -13 -13 -12 -12 -12 -11 -11 -11 -12 -12 -11 -10 -10 -10 -9 -10 -10 -9 -9 -9 -8
-19 -18 -18 -18 -18 -17 -17 -17 -17 -16 -16 -15 -15 -15 -15 -14 -13 -13 -13 -13 -13 -14 -13 -13 -13 -13 -12 -12 -12 -11 -11 -11 -11 -12 -11 -11 -10 -9 -9 -10 -10 -9 -9 -9 -8
-21 -20 -20 -19 -19 -18 -18 -18 -17 -17 -17 -16 -16 -16 -16 -15 -14 -14 -14 -13 -14 -14 -14 -14 -14 -13 -12 -12 -13 -12 -11 -11 -11 -11 -11 -12 -11 -9 -9 -10 -10 -9 -9 -9 -9
-21 -21 -21 -20 -20 -20 -19 -19 -18 -18 -18 -17 -17 -17 -17 -15 -15 -15 -13 -13 -13 -14 -15 -14 -13 -13 -13 -13 -14 -14 -12 -12 -11 -11 -11 -11 -10 -9 -11 -10 -10 -10 -9 -9 -9
-22 -21 -22 -21 -21 -21 -20 -20 -20 -19 -19 -19 -19 -19 -18 -17 -16 -16 -15 -14 -14 -14 -15 -15 -14 -13 -13 -14 -14 -14 -13 -12 -12 -11 -10 -11 -10 -11 -11 -10 -9 -10 -9 -10 -9
-22 -21 -22 -22 -22 -21 -21 -21 -20 -20 -20 -20 -20 -19 -19 -17 -16 -16 -16 -15 -16 -15 -16 -15 -15 -14 -14 -14 -14 -14 -13 -13 -12 -12 -11 -11 -10 -12 -11 -10 -10 -10 -10 -10 -9
-22 -22 -21 -22 -22 -22 -22 -21 -21 -21 -21 -21 -21 -20 -18 -17 -17 -17 -17 -17 -17 -16 -16 -16 -15 -15 -14 -14 -14 -14 -14 -14 -13 -13 -12 -11 -11 -11 -12 -11 -11 -10 -10 -9 -9
-22 -22 -22 -22 -22 -22 -22 -22 -22 -22 -21 -21 -19 -19 -18 -17 -18 -17 -17 -18 -18 -18 -17 -16 -16 -15 -14 -13 -14 -14 -14 -15 -15 -14 -14 -13 -12 -11 -12 -11 -10 -10 -10 -10 -10
-22 -22 -22 -22 -22 -20 -22 -22 -21 -21 -21 -21 -20 -20 -19 -19 -19 -18 -18 -19 -18 -18 -18 -18 -16 -14 -16 -15 -15 -15 -15 -15 -15 -15 -15 -14 -12 -12 -12 -11 -11 -10 -10 -10 -10
-23 -23 -22 -22 -22 -22 -22 -22 -22 -22 -22 -22 -21 -21 -20 -20 -19 -19 -19 -19 -19 -19 -18 -18 -15 -16 -16 -16 -16 -16 -16 -14 -15 -14 -14 -14 -12 -12 -11 -11 -11 -10 -10 -10 -10
-26 -23 -23 -22 -22 -22 -21 -22 -22 -22 -23 -22 -22 -21 -20 -20 -21 -20 -20 -20 -20 -19 -19 -18 -18 -17 -16 -16 -16 -15 -14 -15 -15 -15 -14 -14 -12 -12 -11 -11 -10 -10 -10 -10 -10
-27 -25 -23 -23 -22 -23 -21 -22 -23 -23 -23 -22 -22 -22 -21 -21 -21 -20 -21 -20 -20 -19 -20 -17 -18 -17 -17 -16 -16 -16 -16 -15 -15 -15 -15 -13 -13 -10 -11 -10 -10 -10 -10 -11 -10
-27 -26 -24 -23 -23 -21 -22 -23 -23 -23 -23 -22 -21 -21 -21 -21 -21 -21 -21 -21 -20 -20 -20 -19 -19 -18 -16 -16 -16 -16 -16 -15 -15 -16 -16 -13 -13 -10 -11 -10 -11 -11 -11 -11 -11
-27 -26 -26 -25 -23 -22 -22 -22 -23 -23 -23 -22 -21 -21 -21 -21 -21 -21 -21 -21 -20 -20 -19 -19 -19 -18 -17 -17 -16 -17 -16 -16 -16 -16 -14 -14 -14 -9 -10 -11 -11 -11 -11 -11 -10
-27 -26 -25 -25 -24 -23 -22 -23 -23 -22 -22 -21 -21 -21 -21 -21 -21 -21 -21 -21 -21 -20 -20 -20 -19 -18 -17 -16 -16 -15 -17 -17 -17 -16 -13 -14 -13 -11 -11 -11 -11 -11 -11 -10 -10
-27 -26 -25 -24 -23 -23 -22 -22 -22 -22 -21 -21 -21 -21 -21 -21 -21 -22 -21 -21 -21 -20 -20 -20 -19 -19 -18 -17 -17 -16 -17 -15 -17 -17 -15 -15 -13 -12 -12 -11 -11 -11 -11 -11 -11
-27 -26 -25 -25 -24 -23 -23 -23 -22 -22 -21 -21 -21 -21 -21 -21 -21 -21 -21 -21 -21 -21 -21 -20 -20 -19 -19 -18 -18 -17 -17 -18 -18 -18 -17 -15 -13 -12 -12 -11 -11 -11 -11 -12 -11
-27 -26 -25 -23 -23 -23 -23 -22 -22 -22 -22 -21 -21 -21 -21 -21 -22 -22 -22 -21 -21 -21 -21 -21 -20 -19 -19 -19 -18 -17 -17 -17 -17 -18 -17 -16 -14 -12 -12 -12 -11 -11 -11 -11 -12
-27 -26 -24 -24 -23 -23 -23 -23 -22 -22 -22 -21 -21 -22 -22 -22 -22 -22 -22 -22 -22 -22 -21 -21 -21 -19 -19 -19 -19 -19 -19 -18 -18 -17 -17 -16 -14 -13 -12 -12 -11 -11 -11 -11 -11
-27 -25 -24 -24 -23 -24 -23 -23 -23 -22 -21 -21 -21 -22 -22 -22 -22 -23 -23 -22 -22 -22 -22 -21 -21 -20 -20 -20 -20 -20 -19 -18 -17 -18 -18 -17 -14 -14 -12 -12 -12 -12 -12 -12 -12
-26 -26 -24 -24 -23 -23 -22 -22 -21 -22 -22 -22 -22 -22 -23 -23 -23 -23 -23 -23 -23 -22 -22 -23 -22 -21 -20 -20 -20 -20 -19 -18 -18 -19 -18 -17 -15 -13 -13 -13 -13 -12 -13 -13 -13
-26 -25 -25 -24 -23 -23 -22 -21 -22 -22 -22 -22 -23 -23 -23 -23 -23 -23 -23 -23 -23 -23 -23 -24 -23 -22 -21 -21 -20 -20 -20 -20 -20 -19 -18 -17 -16 -13 -14 -13 -14 -14 -14 -13 -13
-25 -25 -24 -24 -23 -23 -23 -23 -23 -22 -22 -22 -23 -24 -24 -24 -24 -24 -24 -23 -23 -23 -24 -23 -23 -23 -21 -21 -21 -20 -20 -19 -18 -19 -18 -17 -16 -14 -13 -14 -13 -14 -14 -13 -13
-24 -23 -23 -23 -23 -23 -23 -23 -22 -23 -23 -24 -24 -24 -24 -24 -24 -24 -24 -24 -24 -24 -23 -23 -23 -22 -21 -21 -21 -21 -19 -19 -19 -19 -18 -17 -15 -13 -14 -14 -14 -13 -14 -14 -14